ECMWFNIL_500_spd_000.txt.gz
Wind_Speed
20 20 20 19 18 18 19 19 20 20 19 19 19 20 20 22 23 24 25 26 26 25 25 24 23 23 23 24 24 25 26 26 27 27 26 26 26 26 26 26 26 26
19 19 19 19 19 20 20 20 20 21 21 21 22 22 22 22 24 26 26 27 27 27 26 26 25 24 24 25 25 26 26 27 28 29 28 28 27 27 27 27 27 27
19 19 20 21 21 21 20 20 20 22 23 24 24 24 24 25 26 27 28 28 28 27 28 27 26 26 26 25 26 26 26 28 28 29 29 29 29 29 28 28 28 28
19 20 21 22 22 22 22 21 21 23 25 26 27 26 25 27 30 30 30 30 28 27 27 28 28 27 27 27 27 26 26 27 28 29 29 30 31 30 29 29 29 29
18 19 21 21 22 23 23 23 24 25 27 28 28 28 27 30 33 33 31 30 30 28 28 29 29 28 28 28 28 28 27 27 27 28 29 30 30 30 29 29 30 30
16 18 19 21 22 23 23 24 25 27 28 29 29 30 31 33 35 36 36 34 33 31 30 29 29 29 30 31 31 31 31 30 29 28 28 29 30 30 30 30 30 31
15 17 18 22 24 23 24 25 26 28 28 29 30 32 33 35 37 38 39 39 36 33 33 32 32 32 33 34 35 36 35 34 32 30 29 29 29 30 31 31 31 31
15 17 19 23 24 25 27 28 30 31 31 32 34 36 37 38 37 38 39 41 39 36 36 35 35 35 37 38 39 39 39 38 36 34 33 32 31 32 32 31 31 32
16 18 20 22 23 23 25 28 32 32 32 35 37 39 42 40 35 34 37 40 41 40 40 38 37 38 40 41 42 41 40 39 38 38 37 36 35 34 33 33 32 32
17 19 21 22 21 22 24 28 31 31 32 36 37 40 46 42 34 34 39 42 42 41 40 39 37 36 36 38 41 41 40 39 38 38 39 39 38 36 35 34 32 32
20 22 24 21 19 23 27 27 28 29 32 36 39 40 42 38 34 36 40 41 41 39 38 38 36 34 34 37 40 40 40 39 39 40 40 40 40 38 37 35 33 32
23 25 28 28 28 32 34 32 32 34 36 38 41 37 33 32 34 35 34 35 36 35 31 29 29 29 31 35 39 40 42 43 41 41 42 41 41 40 39 36 33 32
25 25 26 30 35 39 40 37 36 38 41 43 43 38 32 33 35 35 34 34 33 30 25 23 25 27 30 36 39 41 43 45 44 42 43 43 41 40 39 38 35 32
27 26 24 26 33 39 41 41 38 39 42 44 43 40 37 38 38 36 33 30 29 28 25 27 31 34 37 41 43 44 44 45 46 45 44 43 41 39 39 39 37 34
30 31 30 32 36 38 38 40 40 39 40 41 42 41 39 39 40 38 34 31 30 28 27 29 33 37 41 44 46 47 45 44 46 46 45 43 41 39 39 39 38 37
34 35 36 37 38 38 37 39 41 40 39 40 41 42 41 42 43 41 38 35 31 29 31 33 36 39 42 43 44 47 46 43 42 43 44 44 42 39 39 39 39 39
36 37 38 37 36 37 39 42 45 45 44 44 44 45 46 47 46 44 41 38 36 35 37 38 39 40 41 41 42 45 46 42 39 38 40 41 41 40 41 41 41 43
36 37 37 36 35 36 38 42 45 47 47 48 48 48 49 48 47 44 40 38 37 38 40 41 40 39 40 41 42 43 43 40 37 36 36 36 37 40 42 43 43 42
37 38 39 39 40 40 41 42 45 47 48 49 50 51 52 51 48 43 39 37 37 38 41 42 40 39 39 40 39 38 37 36 34 34 33 32 33 37 41 42 41 40
39 41 43 44 46 46 46 46 48 50 51 52 53 54 54 54 51 46 41 39 39 39 40 41 39 38 38 37 36 34 32 31 29 29 29 29 30 32 34 36 36 37
43 45 47 49 51 51 51 51 51 52 53 54 56 57 56 56 55 50 44 41 41 40 40 39 37 35 34 33 32 31 30 28 25 23 24 25 27 29 30 31 32 33
45 47 49 50 52 52 52 53 53 53 54 55 56 58 58 57 57 52 46 42 41 40 40 38 35 32 30 30 29 28 28 26 23 21 21 23 25 27 27 28 30 31
46 48 49 51 53 53 53 54 55 56 56 56 57 58 58 58 57 53 46 40 39 39 38 36 34 31 29 28 27 26 26 26 25 22 20 21 24 25 26 28 30 32
48 49 50 52 55 55 55 56 57 58 58 58 59 60 60 58 56 52 44 38 37 37 36 34 32 31 30 29 28 26 24 22 22 21 19 21 26 29 30 31 33 35
49 50 52 55 57 58 58 58 59 60 59 59 62 64 62 58 56 52 44 38 36 35 33 32 31 31 31 30 29 26 22 19 18 19 20 23 29 32 34 34 35 37
50 51 54 58 60 60 60 60 60 60 60 62 66 66 60 56 55 52 43 37 35 34 32 31 31 31 31 29 27 24 22 19 19 22 25 28 32 34 36 37 37 36

ECMWFNIL_500_spd_003.txt.gz
Wind_Speed
22 22 22 22 22 22 21 20 20 21 22 23 25 25 26 26 27 28 28 29 29 28 28 27 28 28 29 30 31 31 30 29 29 29 28 28 28 28 28 29 30 31
21 21 21 21 21 20 19 19 20 21 23 24 25 26 26 27 28 28 29 28 28 28 28 29 30 30 30 30 31 32 31 30 29 29 29 30 30 30 30 31 32 33
20 21 21 20 19 18 18 19 19 20 22 23 25 27 27 28 30 31 31 30 30 29 28 30 32 34 34 33 31 31 31 31 30 29 30 30 31 31 31 32 33 33
20 20 19 18 18 18 18 18 18 19 20 22 25 26 28 30 32 34 35 36 35 32 31 32 34 35 35 34 34 32 31 30 29 28 30 31 32 33 33 33 33 33
19 18 17 16 16 17 17 17 18 18 20 22 24 25 28 30 32 34 38 41 38 34 33 33 33 34 34 33 34 34 33 32 30 29 30 32 34 35 35 35 35 34
17 16 16 15 15 16 16 17 18 19 21 22 23 27 29 29 32 37 42 43 38 33 32 32 33 36 38 36 35 34 34 35 34 34 33 34 36 37 38 37 37 36
16 15 15 15 15 15 17 19 20 20 20 22 24 28 28 28 34 39 40 40 34 28 28 31 34 37 38 36 34 33 34 36 37 37 36 35 36 38 38 38 39 39
16 15 15 14 14 15 19 22 23 21 19 22 26 27 27 31 37 38 35 36 34 28 26 29 32 35 34 30 28 29 31 33 34 33 34 35 38 39 38 37 39 40
16 15 14 14 15 17 22 24 26 25 24 27 32 31 30 33 35 34 32 34 35 33 29 28 31 33 28 22 20 22 23 25 26 27 31 36 39 39 38 37 37 39
16 16 16 16 17 20 24 25 26 27 27 31 35 33 30 32 33 33 34 35 37 36 32 30 32 31 25 21 22 24 26 27 28 30 33 37 40 39 39 39 39 39
17 18 19 20 21 23 24 25 27 28 29 32 33 31 30 31 32 33 33 34 36 36 35 33 32 31 28 27 28 31 33 34 35 37 39 41 42 40 38 39 41 42
19 20 20 21 24 25 26 27 29 31 32 32 30 28 29 30 31 33 34 34 35 36 36 36 34 32 31 31 32 34 36 37 39 40 40 42 43 41 37 36 39 42
20 20 20 23 26 27 28 29 30 31 31 31 28 28 31 33 34 36 36 36 37 38 38 38 36 35 35 35 35 36 38 40 40 40 40 41 41 40 36 34 37 43
17 19 21 25 27 28 30 30 29 29 30 32 33 33 34 36 38 39 39 39 40 41 41 40 38 37 37 37 38 38 39 40 40 40 40 41 41 41 37 33 36 43
17 19 22 25 26 28 30 30 30 30 31 33 35 36 36 37 39 41 41 42 43 44 44 43 41 39 38 39 39 40 40 41 40 40 40 41 41 41 38 33 34 40
16 15 18 21 24 27 30 31 32 33 33 34 36 38 39 39 41 43 44 44 45 46 47 46 45 42 40 39 39 40 41 41 41 40 38 40 41 41 39 34 33 38
13 14 17 21 24 28 30 32 34 34 35 36 36 38 41 42 44 45 47 48 48 48 49 49 47 44 41 40 39 39 40 41 40 38 35 37 40 41 40 35 32 35
15 17 20 23 26 30 32 35 36 37 38 38 39 40 41 44 47 49 50 50 51 51 51 51 48 43 40 40 38 38 40 40 39 36 34 35 37 40 40 37 33 32
20 22 24 27 29 32 35 37 38 40 41 42 42 43 43 45 49 51 53 53 53 53 53 54 51 45 40 40 39 38 39 39 37 34 33 34 36 38 40 39 34 30
26 27 29 30 32 34 36 38 40 42 44 45 46 46 46 48 50 52 55 56 56 56 55 56 55 47 41 41 40 38 38 36 34 32 32 34 36 37 40 39 34 30
30 31 32 33 34 36 38 39 41 43 46 48 49 49 48 50 52 54 56 57 58 58 58 57 56 48 42 42 40 37 36 34 32 32 33 33 35 37 39 38 34 31
35 36 37 38 39 40 40 41 43 45 47 51 53 52 50 51 54 56 57 58 59 60 59 58 56 48 42 41 39 35 34 33 32 32 32 32 34 36 38 38 37 34
39 39 40 42 43 42 42 43 44 46 49 53 56 55 52 53 55 56 58 59 60 62 61 58 55 48 42 39 36 34 34 34 32 32 31 31 33 34 36 37 37 35
42 43 43 44 45 43 43 44 46 49 51 54 56 55 53 54 55 56 59 60 61 63 61 56 53 48 41 37 34 33 34 34 32 31 31 31 32 32 33 34 34 35
45 45 46 47 46 43 43 46 49 52 54 55 55 55 55 56 56 56 59 60 62 63 58 52 50 46 38 34 33 34 35 33 32 31 31 32 32 32 33 35 37 40
47 47 48 51 49 45 44 47 51 53 54 55 56 57 58 58 56 57 59 61 62 58 51 47 45 40 35 33 34 35 35 33 32 32 34 35 36 36 38 40 42 46

ECMWFNIL_500_spd_006.txt.gz
Wind_Speed
23 23 23 24 25 24 23 22 21 19 17 17 18 18 18 17 18 19 20 23 28 31 31 32 31 29 26 25 26 27 28 28 27 26 25 25 25 25 25 25 25 26
24 24 24 24 24 23 22 21 19 16 15 16 17 17 16 16 18 19 21 27 31 32 33 34 33 28 24 23 25 28 30 31 29 27 25 25 25 26 26 26 26 26
25 24 24 24 23 22 20 18 15 13 13 15 16 16 16 17 19 20 24 29 30 29 30 31 30 24 21 22 27 31 33 33 31 28 26 26 27 27 27 27 26 27
24 24 24 23 22 20 17 13 11 11 13 13 13 14 16 18 19 21 25 27 27 27 26 25 25 24 22 25 30 32 33 32 30 27 27 28 29 29 29 29 29 29
24 24 23 22 20 16 11 9 9 11 11 10 9 12 18 20 19 19 22 24 25 25 25 24 24 24 25 28 30 31 30 29 27 26 26 28 29 30 30 30 31 32
24 23 21 19 14 9 7 7 9 11 11 10 11 15 19 20 17 17 18 20 22 23 24 25 25 25 26 28 29 30 29 28 28 28 28 29 29 29 30 29 29 31
22 20 17 13 7 4 4 6 10 12 12 11 12 15 16 17 16 15 17 18 20 21 22 23 25 26 26 27 29 30 30 31 31 32 32 31 31 31 31 31 30 31
20 16 11 6 2 2 5 7 10 12 12 12 13 13 15 16 16 16 17 18 19 20 21 22 23 25 26 27 29 30 32 33 34 35 35 34 33 33 32 32 33 34
15 10 6 4 3 5 6 9 11 11 11 11 11 12 14 16 16 16 17 18 19 21 21 22 23 25 27 28 29 30 32 33 34 36 37 37 37 36 36 35 35 35
9 5 4 4 5 6 8 10 11 11 10 10 9 10 13 15 16 17 18 19 20 21 22 23 24 26 28 30 30 31 31 32 33 34 36 38 39 39 38 38 38 38
6 3 4 6 6 6 8 10 11 11 11 10 11 12 13 15 16 17 18 19 21 23 24 25 26 28 31 32 33 33 33 33 33 33 35 37 39 40 39 39 39 39
6 4 6 7 6 6 8 9 10 11 12 12 13 14 16 17 18 18 18 21 24 26 27 27 28 30 33 35 36 37 38 37 36 36 37 38 39 40 39 39 38 38
7 6 8 9 7 5 6 8 9 10 12 14 16 18 19 20 22 23 23 24 27 30 31 31 31 33 36 38 39 40 42 42 40 38 38 39 39 39 39 38 38 37
7 8 9 9 7 5 5 7 10 13 15 18 20 21 23 25 26 27 28 28 30 33 35 35 35 36 39 41 41 42 44 45 43 39 38 39 39 39 39 38 37 36
8 8 9 8 7 7 8 11 14 17 19 21 22 24 25 28 29 30 31 30 31 36 39 40 40 40 42 44 44 43 45 47 46 42 39 39 39 38 38 37 37 37
8 7 8 8 8 10 13 15 17 19 21 23 24 26 28 30 32 34 35 34 35 39 42 43 45 45 45 47 47 47 47 49 49 45 41 39 38 37 37 36 36 37
9 9 10 9 10 13 16 18 19 21 24 26 27 29 30 32 34 36 38 39 41 43 44 45 47 47 47 49 50 50 50 52 52 48 42 39 37 35 35 35 37 38
12 13 14 13 14 16 18 19 21 24 27 29 30 30 32 34 36 37 39 41 43 46 47 47 47 48 49 49 50 52 52 54 53 47 41 38 35 33 33 34 37 38
15 16 17 16 16 18 19 20 23 26 29 31 32 32 33 35 37 38 40 42 44 47 49 49 49 50 51 50 51 52 54 55 51 44 39 36 33 32 33 34 36 38
15 16 16 17 19 21 22 24 26 28 31 32 33 33 34 36 38 40 42 44 46 48 49 50 50 52 53 53 52 52 54 53 47 41 36 32 31 32 33 35 37 37
17 17 18 20 23 24 26 28 29 31 33 34 35 36 36 38 40 41 44 46 48 48 49 49 50 52 53 53 51 51 51 48 43 37 32 30 30 32 33 36 37 36
19 21 22 24 26 28 30 32 33 34 36 37 38 38 38 40 42 43 45 48 49 47 46 49 51 51 51 52 50 48 46 42 37 32 29 29 31 32 34 37 37 34
23 24 25 27 29 32 34 35 36 37 38 39 40 40 40 41 43 45 47 49 49 47 48 52 53 51 50 49 46 42 39 35 31 29 28 30 32 33 36 38 37 34
26 27 29 31 33 35 37 38 39 40 41 42 42 41 42 43 45 46 48 48 48 47 48 51 51 48 46 42 37 34 33 31 30 29 30 32 33 34 37 39 39 37
30 31 33 35 37 39 40 41 41 42 44 46 45 44 44 44 46 48 49 47 46 46 47 49 47 44 39 35 32 31 32 32 31 32 32 34 35 36 38 40 40 40
33 35 37 39 40 41 42 43 44 45 47 49 49 48 47 46 48 50 48 46 45 46 47 47 45 40 36 34 33 33 33 33 33 33 35 36 37 37 39 40 40 40

ECMWFNIL_500_spd_009.txt.gz
Wind_Speed
20 20 19 17 15 14 13 12 11 9 7 6 6 7 7 7 7 8 10 13 15 17 18 19 19 19 19 19 19 18 19 21 23 25 26 26 25 24 23 24 24 25
21 21 19 18 16 14 12 11 9 6 4 4 6 6 4 5 7 8 10 12 14 16 18 19 19 19 20 20 21 21 21 22 23 25 26 26 26 25 25 25 24 24
22 21 20 18 15 13 11 8 5 4 4 6 7 5 2 5 9 10 10 11 13 15 16 17 17 19 20 21 21 21 22 22 23 24 25 25 25 25 26 26 26 26
23 21 19 17 14 11 8 4 6 6 6 7 7 6 4 6 9 10 10 11 12 13 14 15 16 18 20 21 21 22 23 23 24 25 25 26 26 26 27 28 28 28
21 19 17 14 11 8 6 8 9 8 6 7 7 6 7 8 8 8 9 10 10 11 12 14 15 17 19 21 22 23 23 24 25 26 27 28 28 28 29 29 30 31
15 13 12 9 7 6 9 10 8 6 5 6 6 5 6 7 7 7 8 9 10 11 12 14 15 16 18 20 21 22 22 23 25 26 27 28 29 30 30 30 31 32
9 8 6 4 5 10 11 8 6 5 5 6 6 6 6 7 8 9 9 10 10 11 12 13 15 17 18 18 20 21 21 22 24 25 26 27 28 29 30 31 32 32
5 4 2 4 10 12 10 7 6 6 6 6 7 7 7 7 9 10 10 10 10 10 11 13 16 18 20 20 20 21 21 22 23 25 26 27 28 29 30 31 32 32
2 3 6 10 13 11 8 7 7 7 7 6 6 6 7 8 9 9 9 9 9 10 12 15 18 21 23 24 24 24 24 24 25 26 27 28 29 29 30 30 31 32
5 8 12 14 13 10 8 7 6 6 6 6 6 6 6 7 7 7 7 8 9 11 14 17 19 22 24 26 27 27 27 27 28 29 29 30 31 31 31 32 33 33
8 13 16 16 13 11 9 8 6 4 3 3 4 4 5 5 6 7 8 10 11 14 16 18 20 22 25 28 29 29 29 30 31 32 32 33 33 34 33 32 33 33
12 16 17 16 14 13 10 9 6 4 2 2 2 4 5 5 6 8 9 12 14 16 18 20 21 23 26 28 29 30 31 31 32 33 34 35 36 36 36 34 32 33
15 18 16 16 15 14 12 9 7 5 3 2 4 6 8 9 9 10 12 14 17 17 18 20 22 24 27 30 32 34 34 34 34 35 36 37 37 38 38 36 34 32
18 18 16 16 16 15 13 11 8 5 4 5 8 10 13 14 15 15 16 18 19 19 20 21 23 25 28 31 35 36 36 36 36 37 38 38 38 38 38 37 35 33
19 18 16 16 16 16 15 11 8 6 7 9 11 13 15 16 17 18 19 21 22 23 23 24 26 27 30 33 35 36 36 36 37 39 40 40 39 37 35 34 34 33
19 17 16 16 16 18 16 11 9 8 9 11 13 15 16 17 18 19 21 23 25 26 26 27 28 29 32 33 35 35 36 37 38 39 39 39 38 37 34 32 33 33
20 17 17 17 18 19 17 12 10 11 11 12 14 16 17 18 19 20 22 24 27 28 29 30 31 31 32 34 35 36 37 38 39 39 38 37 37 35 33 32 32 31
20 19 19 19 19 18 16 13 13 13 13 15 16 17 19 20 20 21 23 26 28 30 32 34 34 34 34 36 38 38 37 38 40 40 39 36 34 32 31 30 29 28
21 21 21 21 20 19 17 16 15 15 16 18 19 20 21 22 22 23 24 26 30 32 34 35 36 36 36 38 41 40 38 38 40 40 38 35 32 30 29 28 27 26
23 23 23 23 22 21 20 19 18 18 19 20 21 22 24 24 26 27 26 28 32 35 37 38 39 38 36 39 43 44 41 40 40 38 36 33 31 29 28 27 26 27
24 24 24 24 23 23 22 21 20 20 21 22 24 25 26 27 29 29 28 31 37 40 40 41 42 41 39 41 44 43 40 39 38 36 34 33 31 31 30 29 28 28
26 26 25 24 24 25 24 22 22 22 22 24 25 26 28 29 30 31 32 35 41 43 43 42 43 42 41 41 43 41 39 38 37 35 34 34 33 33 31 31 31 31
28 28 26 26 26 26 24 23 23 23 23 25 26 27 29 31 33 35 37 40 43 45 44 41 40 39 37 37 39 40 39 38 37 35 35 35 35 34 33 33 33 33
30 29 28 27 26 26 24 24 24 24 24 26 27 28 30 33 35 38 40 42 44 42 40 38 36 33 33 36 39 40 40 39 37 35 35 35 35 34 34 34 34 34
32 30 28 27 25 24 24 25 25 24 25 27 28 30 31 34 37 40 42 44 43 40 38 37 35 34 36 39 41 41 41 40 37 35 34 35 34 34 34 35 35 35
33 31 29 25 23 23 25 26 25 25 26 28 30 31 33 36 38 40 42 42 41 39 38 37 36 37 39 41 42 42 41 39 37 35 35 35 34 34 35 35 35 35

ECMWFNIL_500_spd_012.txt.gz
Wind_Speed
16 16 17 16 15 14 13 13 13 14 15 16 14 12 11 8 6 4 3 5 7 8 8 8 8 9 9 9 9 9 10 11 12 14 15 15 16 16 16 16 16 16
17 18 18 18 17 16 15 15 15 15 17 16 14 12 11 7 4 3 4 6 8 9 9 9 9 9 9 9 9 10 10 12 13 14 15 16 17 17 17 18 18 18
18 19 20 20 19 17 17 16 16 17 18 16 14 12 10 7 5 4 6 7 8 9 10 9 8 8 8 9 10 11 11 12 14 15 17 18 19 20 20 20 20 20
20 22 23 23 21 19 19 18 18 19 19 16 13 11 10 9 7 6 7 7 8 10 10 10 9 8 9 10 11 12 13 14 15 16 18 19 20 21 22 23 23 23
22 24 24 24 21 21 20 19 20 21 19 15 12 10 10 9 7 7 7 8 9 10 10 9 9 9 10 11 12 13 14 15 16 17 19 20 21 21 23 24 24 25
23 23 23 22 21 21 21 22 23 22 18 14 12 11 9 8 7 7 7 8 8 9 9 9 9 10 11 12 12 14 15 16 17 19 20 21 22 23 23 25 25 26
22 22 21 20 21 22 23 24 24 20 16 14 12 10 8 7 7 8 8 8 8 8 9 10 11 12 13 14 14 15 16 17 19 20 21 22 24 24 25 26 27 28
20 20 19 21 23 23 24 25 23 19 16 13 10 9 8 8 8 9 9 8 8 9 10 11 12 13 15 16 16 17 17 19 20 22 22 23 24 25 26 27 29 30
19 20 21 23 24 24 25 24 22 19 15 12 10 10 9 9 9 9 9 9 9 10 10 11 12 14 16 17 17 17 18 19 20 22 23 23 24 25 26 27 29 31
19 21 24 24 24 25 25 24 22 18 14 13 12 11 10 10 10 10 10 9 9 9 9 10 12 14 15 16 17 18 19 20 21 22 23 24 25 26 27 27 27 29
19 22 24 24 25 25 25 24 21 18 16 15 14 12 12 11 10 10 10 10 9 9 9 10 12 14 15 16 18 19 21 23 24 24 26 27 28 30 31 30 28 28
20 23 25 25 26 27 26 24 21 19 18 16 15 14 12 11 10 11 11 11 10 9 9 10 12 13 14 17 19 20 22 25 25 26 28 30 31 33 34 33 30 29
19 23 26 27 28 28 26 24 22 20 19 17 16 15 13 12 12 11 11 11 9 8 8 9 11 13 15 18 20 22 24 26 26 27 29 31 31 32 34 34 33 31
20 24 28 29 29 29 27 25 24 22 20 19 18 17 16 15 13 11 10 9 7 8 9 10 12 14 17 20 22 24 27 28 28 28 30 31 30 30 32 33 33 32
23 26 30 31 31 31 28 27 25 23 22 21 19 18 17 14 12 10 8 8 9 10 11 12 15 17 20 24 27 29 31 31 30 30 31 32 32 30 30 32 31 30
26 28 32 34 33 31 29 28 27 26 24 21 19 17 15 12 9 8 8 10 12 14 15 16 18 20 25 29 32 35 36 36 34 33 34 35 34 31 30 30 29 27
28 31 33 35 34 31 30 29 29 27 25 21 18 17 14 11 9 8 9 11 14 17 18 19 21 24 29 33 35 38 41 41 38 36 35 34 33 31 30 29 28 26
29 33 35 36 35 33 32 31 30 28 24 20 18 16 14 12 9 9 11 13 16 18 21 22 23 26 31 33 35 39 41 41 40 38 34 32 31 32 31 30 28 27
30 33 35 36 36 34 34 34 33 29 24 20 18 17 15 12 11 11 13 15 17 19 21 23 24 27 30 32 34 37 38 39 40 38 33 28 29 31 31 30 29 27
31 34 36 36 36 36 36 36 34 29 25 22 21 19 16 13 13 13 14 16 18 20 22 24 26 28 30 31 33 34 36 38 39 36 30 28 29 30 29 30 29 28
30 33 35 36 37 37 36 36 35 31 27 25 23 20 16 14 14 15 16 17 19 21 23 25 27 29 31 33 34 34 35 37 38 35 33 34 34 33 32 32 32 31
30 32 35 37 37 36 36 36 36 34 30 28 25 21 17 16 16 16 17 19 20 23 25 26 27 29 32 34 33 32 34 38 38 36 37 40 40 38 36 35 34 33
31 31 34 37 38 37 36 36 35 34 32 30 27 22 19 18 18 19 19 20 22 24 26 26 27 30 32 33 32 32 34 38 39 39 40 42 42 40 38 35 34 33
33 32 33 37 40 40 38 36 36 35 34 31 28 24 22 21 21 21 21 22 24 26 27 28 28 31 33 33 32 33 36 38 39 41 43 44 42 39 36 34 33 33
34 33 33 36 40 42 40 37 37 36 35 32 29 27 25 25 24 23 23 24 26 28 29 29 30 32 33 34 34 35 37 38 39 41 44 43 40 37 34 32 32 33
35 36 35 36 39 42 41 39 39 37 35 32 30 30 29 27 25 25 26 26 28 30 31 31 33 34 34 34 36 37 37 38 40 42 43 41 36 33 32 32 32 33

ECMWFNIL_500_spd_015.txt.gz
Wind_Speed
15 15 16 16 15 14 15 16 18 18 18 16 16 16 17 17 15 11 9 8 8 8 9 9 10 11 11 11 9 8 7 7 9 10 12 13 13 14 15 16 17 18
16 17 17 17 16 16 16 18 19 20 20 19 17 17 18 17 15 12 10 9 9 10 10 10 11 12 12 12 11 10 10 10 11 13 14 15 16 16 17 18 19 19
17 18 18 18 18 18 19 20 20 21 22 21 19 19 18 17 15 12 11 10 11 11 11 12 12 13 13 13 13 13 13 13 14 15 16 17 18 19 19 20 21 22
19 20 20 20 20 21 22 21 21 22 23 23 21 20 19 17 15 14 12 12 12 13 12 13 13 13 14 14 14 14 14 14 14 15 16 18 19 20 20 21 22 24
20 21 22 23 23 23 24 23 23 24 24 24 24 22 19 17 16 15 14 14 14 13 13 13 13 13 13 13 14 14 14 14 14 15 17 18 19 20 20 21 22 23
19 21 23 24 24 25 25 25 25 26 26 25 24 22 19 18 18 17 16 16 15 14 14 13 13 13 13 14 14 15 15 15 15 16 17 18 19 20 20 21 22 24
17 20 23 25 26 26 26 27 28 28 27 26 24 22 20 19 19 19 18 17 16 15 14 14 14 14 14 15 15 16 16 15 15 16 18 19 20 20 21 21 23 24
17 19 22 25 26 27 28 28 29 29 28 26 23 21 20 20 21 21 20 18 17 16 16 15 15 16 16 15 15 16 16 15 15 17 19 21 22 22 22 23 25 26
17 19 22 25 26 27 28 29 29 29 28 25 23 22 22 22 22 22 20 19 18 17 17 17 17 17 17 15 15 16 16 16 17 18 20 22 22 23 24 25 26 27
17 19 21 22 24 26 27 29 30 30 28 25 23 23 23 23 23 23 21 20 19 18 18 17 17 18 17 16 16 16 16 16 17 18 20 21 22 23 24 26 27 27
16 18 18 18 21 24 27 28 30 30 27 24 24 24 24 24 24 23 21 20 19 18 17 16 16 17 17 17 15 15 16 17 17 18 20 22 23 23 23 25 27 27
16 16 15 15 19 24 27 29 30 30 27 25 25 25 25 25 24 23 22 21 20 18 16 15 16 17 16 15 14 14 16 18 19 20 21 22 23 24 24 26 27 27
15 16 15 14 17 24 29 31 32 30 27 25 26 26 26 26 25 24 23 21 19 17 16 16 16 16 15 14 13 15 19 22 23 24 24 24 24 25 25 26 27 27
15 17 17 16 18 25 30 33 33 30 27 28 28 28 27 26 25 24 23 21 18 17 17 16 15 14 15 16 17 19 23 25 26 27 28 28 27 27 27 26 26 27
16 18 19 19 20 24 30 34 33 29 29 30 29 28 27 27 26 24 22 20 18 18 17 15 14 14 16 18 20 22 26 28 28 28 29 28 30 32 30 27 25 26
18 19 20 22 22 24 29 34 34 31 32 32 30 28 28 28 27 24 21 20 19 18 17 15 15 15 16 18 19 23 27 29 29 28 27 29 32 33 29 25 24 25
20 21 22 23 24 25 28 34 36 34 34 33 31 29 29 29 28 24 22 22 21 19 18 17 16 15 15 16 19 23 28 32 32 30 29 31 33 29 25 25 26 27
22 23 24 25 26 27 28 33 37 37 36 35 32 30 30 30 29 26 25 24 23 22 20 19 17 16 15 16 20 24 29 34 36 32 30 31 30 26 24 25 28 30
24 25 26 26 27 29 29 33 38 39 38 37 34 31 32 32 30 29 27 25 24 23 21 20 17 15 15 17 21 24 29 36 38 34 31 31 29 26 25 25 29 32
24 26 27 28 29 31 32 32 36 40 40 39 37 34 34 34 32 30 28 27 26 25 24 21 18 16 16 18 21 25 30 35 38 35 33 32 29 27 26 27 30 33
26 27 27 28 29 31 32 32 35 40 42 41 39 37 36 35 33 31 29 28 28 27 26 23 20 17 17 19 22 26 31 35 36 36 34 33 32 30 29 29 31 32
29 29 28 28 28 30 31 32 34 38 42 43 41 39 39 38 36 32 30 30 29 28 27 24 21 19 19 21 24 28 33 35 35 35 34 34 35 34 32 32 34 33
32 31 30 29 29 29 30 31 33 37 41 43 42 41 40 40 38 33 31 31 31 30 29 26 23 22 22 24 27 31 35 36 35 34 33 34 35 33 33 35 35 34
34 33 32 31 31 30 29 29 31 35 39 43 43 42 42 41 39 35 34 35 34 33 30 28 26 25 25 27 30 33 37 38 36 33 33 35 35 33 33 35 35 34
33 34 33 32 32 32 30 29 30 32 37 42 43 42 42 42 41 40 39 39 38 36 33 30 29 29 29 31 33 35 38 40 40 37 35 36 35 32 33 35 36 36
32 33 34 34 34 33 32 32 31 31 35 40 44 44 44 43 43 44 43 42 41 41 37 34 34 34 34 35 36 37 39 40 40 40 38 36 33 33 35 37 38 38

ECMWFNIL_500_spd_018.txt.gz
Wind_Speed
15 14 14 14 15 16 16 17 17 17 16 16 15 15 15 16 17 17 16 13 11 11 11 10 9 10 11 12 13 13 12 13 13 13 14 14 15 16 16 16 16 16
17 17 16 16 16 17 17 18 19 18 18 17 17 16 15 16 19 19 17 14 12 12 11 10 9 10 11 12 13 13 13 13 13 13 13 13 14 14 15 15 15 15
18 18 18 17 18 19 19 19 20 20 20 19 19 18 16 17 19 20 19 16 14 13 12 10 9 9 10 11 12 13 12 12 13 14 13 13 13 13 13 14 15 16
18 20 20 19 20 21 21 21 21 21 22 21 20 20 18 18 19 20 20 17 15 14 13 11 10 9 10 10 11 12 12 12 13 14 13 13 13 13 13 14 15 17
18 20 21 21 21 22 22 22 22 23 24 23 22 21 20 20 20 21 21 19 17 16 14 12 10 9 10 10 11 12 12 12 13 13 13 12 13 13 14 15 16 18
16 18 20 21 22 23 23 23 24 25 25 25 24 23 22 22 21 21 22 20 19 17 15 13 11 10 10 10 11 12 12 12 13 13 12 12 13 14 15 17 18 20
15 16 19 20 22 22 23 24 25 26 26 27 26 25 24 23 22 22 22 21 20 18 16 14 12 11 11 11 12 13 13 13 13 12 12 13 14 15 17 19 20 21
15 15 16 18 20 21 23 25 25 26 28 28 27 26 25 24 24 23 22 21 21 20 18 16 13 12 12 13 13 14 14 14 13 12 12 13 14 15 18 20 21 21
14 13 14 15 17 20 22 25 26 27 29 29 28 28 27 26 25 24 23 22 21 21 20 18 15 14 14 15 15 15 15 15 14 12 12 13 14 16 18 20 21 22
13 12 13 14 16 18 20 23 25 27 30 30 30 30 28 27 26 25 23 22 22 22 21 20 18 16 16 16 16 16 16 16 15 14 13 13 14 16 18 19 20 21
12 12 12 14 15 16 18 20 23 26 29 31 31 31 29 27 26 24 23 23 23 23 23 23 21 18 18 18 18 17 18 17 16 15 15 15 16 16 17 18 20 21
12 12 12 13 14 15 17 18 20 23 26 29 31 31 29 27 25 24 23 24 25 24 24 24 22 20 20 20 19 19 20 19 17 16 17 17 18 18 18 18 20 23
11 12 12 13 13 15 17 18 19 21 23 25 28 29 27 25 24 24 24 25 26 26 26 25 24 22 21 21 21 22 22 21 20 20 19 18 18 18 18 20 23 24
11 12 12 13 15 16 17 18 19 20 22 23 24 25 25 24 24 25 26 27 27 27 27 26 24 23 22 22 23 25 25 24 23 22 20 19 18 18 19 22 23 22
13 14 13 14 16 17 18 19 20 20 22 23 23 23 23 24 26 28 28 28 28 28 27 26 24 23 22 23 25 27 27 26 24 23 21 20 20 20 21 22 22 20
16 16 14 14 15 18 20 20 21 21 22 23 23 22 22 24 28 30 29 28 28 28 27 26 24 23 23 25 26 27 27 27 27 26 25 23 22 22 22 22 22 21
16 17 17 16 15 18 20 22 23 23 23 23 23 21 21 24 29 31 30 28 28 28 28 27 26 23 24 26 27 27 28 28 30 31 28 26 25 25 26 26 23 23
15 17 18 18 17 18 21 24 25 26 26 26 24 22 21 24 28 30 31 29 29 29 29 29 27 24 25 27 27 28 30 31 33 33 31 30 29 30 32 30 27 27
15 16 18 20 21 21 23 26 27 27 27 29 27 24 22 23 26 30 32 31 30 31 31 30 28 26 27 28 28 30 32 33 35 34 32 32 32 32 34 32 30 31
18 18 19 21 23 23 24 24 26 27 28 30 30 27 23 23 25 28 32 33 32 31 32 32 30 29 30 30 31 32 34 35 36 34 33 34 34 33 33 31 32 32
22 21 21 22 24 25 24 23 24 26 27 28 30 29 25 24 26 28 32 34 34 33 34 34 32 32 33 33 33 34 36 37 36 35 35 35 35 35 35 35 36 33
24 24 23 23 24 26 27 26 25 25 26 27 29 30 28 26 26 29 31 34 36 36 35 35 35 35 36 36 36 37 39 39 37 36 37 37 36 37 38 38 36 31
27 27 26 25 25 26 28 28 28 26 27 27 27 29 29 28 27 29 32 35 38 39 38 37 38 39 39 39 38 39 41 41 38 37 38 40 42 43 40 38 36 34
30 30 30 29 29 29 29 29 30 28 28 29 28 28 29 30 30 31 33 36 38 40 40 39 40 42 42 41 41 42 43 43 41 39 37 39 45 46 44 42 40 39
32 32 32 31 32 32 32 31 32 31 30 30 31 31 31 31 32 32 33 35 37 40 42 43 44 45 44 44 44 45 45 45 44 43 39 37 42 46 47 46 45 45
36 35 34 33 32 32 32 33 33 33 32 32 33 33 33 34 34 34 34 35 36 39 43 46 47 47 46 46 47 48 48 48 48 48 45 41 43 45 46 48 51 52

ECMWFNIL_500_spd_021.txt.gz
Wind_Speed
16 15 15 15 16 16 17 17 17 17 17 17 16 15 14 14 13 13 12 11 12 12 11 11 10 9 9 6 4 5 7 8 8 8 9 9 10 11 11 12 12 13
18 17 17 16 16 17 17 18 18 18 18 18 17 16 16 15 15 15 14 13 12 12 12 12 11 10 10 8 5 4 5 6 7 8 9 10 11 12 12 12 12 13
19 19 18 18 19 19 19 19 19 19 19 19 18 18 17 17 17 17 16 14 13 13 13 13 12 11 11 10 7 4 4 5 6 8 9 9 11 12 13 14 14 14
20 20 20 21 21 22 21 21 20 20 20 20 20 20 19 18 18 18 18 16 15 14 13 14 14 12 12 12 9 6 4 4 6 7 9 9 10 12 14 14 14 15
20 20 21 22 23 24 23 22 22 21 21 22 22 21 20 20 19 19 19 18 17 15 14 15 15 13 13 13 12 8 6 5 6 7 9 9 10 12 13 14 15 16
19 19 20 21 22 24 24 23 24 23 23 23 23 23 22 21 21 21 21 20 19 17 16 15 16 15 14 15 14 11 8 7 7 8 9 10 11 12 13 14 15 16
19 19 20 20 21 22 23 24 25 24 24 24 25 24 23 22 22 22 22 22 21 20 18 16 17 17 16 15 16 14 11 9 9 9 10 11 12 12 14 15 16 17
21 20 20 20 20 20 21 23 24 25 25 25 25 25 25 24 24 24 24 24 23 22 20 18 18 18 17 17 17 16 13 11 10 10 11 12 13 13 15 17 18 19
21 20 19 18 18 19 19 21 23 25 26 26 26 27 26 26 25 25 25 25 25 23 21 19 19 19 18 18 18 18 15 13 12 12 12 13 14 14 16 18 20 21
21 19 18 17 17 18 18 19 21 22 24 25 26 26 27 27 26 26 27 27 26 24 22 21 20 21 20 20 20 19 17 15 13 13 14 15 15 14 16 19 21 21
21 19 18 17 17 17 17 18 19 19 20 21 23 24 25 25 26 27 27 27 26 25 23 22 23 23 22 22 22 21 19 16 15 14 15 15 16 15 17 20 21 22
21 19 17 17 16 16 16 17 16 16 16 16 17 18 19 20 22 24 26 26 26 25 25 24 25 25 24 23 23 22 20 18 16 16 16 16 16 16 18 20 21 22
21 19 18 17 16 16 15 14 12 11 11 11 11 11 11 13 15 18 21 23 24 26 26 26 27 26 25 25 24 22 21 19 19 19 18 17 17 17 19 20 21 22
21 19 18 17 16 15 14 12 9 8 7 8 8 8 9 9 10 13 15 18 22 25 27 27 28 27 26 26 25 23 22 21 21 21 20 19 18 18 19 20 20 21
21 20 19 18 16 15 13 11 10 8 7 8 8 9 10 10 10 11 13 15 19 24 27 28 28 27 26 27 26 25 24 23 24 24 23 21 20 19 19 21 21 21
21 21 20 18 16 14 13 12 12 11 10 10 11 11 12 12 12 12 12 15 18 23 27 28 27 27 27 28 28 27 26 26 26 26 25 23 22 21 21 22 22 23
20 20 20 18 16 15 14 13 14 14 14 13 13 14 14 14 13 12 13 15 18 22 25 27 27 27 28 29 29 29 29 28 28 29 28 26 25 24 24 24 24 26
18 19 19 18 17 17 16 15 15 16 16 16 16 17 18 16 14 13 14 15 17 20 23 24 27 29 30 30 30 31 31 31 31 32 31 29 27 27 26 26 26 27
17 18 17 18 18 18 19 19 17 17 17 19 20 20 20 19 16 14 14 15 16 18 20 22 26 30 31 31 32 33 34 34 34 34 33 33 31 30 29 28 28 28
19 18 17 17 18 19 20 21 19 18 18 19 20 21 20 19 18 16 15 15 16 17 19 22 26 29 31 32 33 35 36 37 37 37 36 36 35 33 31 30 30 30
22 21 20 18 18 20 21 21 20 19 18 18 19 20 20 19 19 18 17 16 17 19 20 22 24 27 31 33 35 36 38 40 40 39 38 38 38 36 34 33 32 31
24 23 23 22 20 20 21 22 22 21 20 20 21 22 23 22 22 21 19 19 19 20 21 22 23 25 28 33 36 38 40 42 42 41 40 39 40 39 37 35 34 33
24 26 26 26 24 23 22 23 23 23 23 23 24 25 26 26 26 25 23 23 23 23 23 24 25 24 26 31 37 40 43 43 43 43 42 42 42 42 40 38 35 35
24 27 28 28 28 27 26 25 25 25 26 27 28 30 30 29 30 29 28 27 27 26 25 26 28 27 27 30 36 41 44 45 45 45 45 44 44 44 42 40 37 37
27 27 28 29 29 28 28 29 29 29 29 30 32 33 33 33 33 33 32 31 30 30 29 29 30 30 29 30 35 41 45 47 48 48 48 47 46 46 44 42 40 40
30 30 30 32 32 31 31 32 33 32 32 32 32 32 32 34 35 35 35 34 33 34 34 33 33 33 31 32 35 40 44 48 50 51 51 50 49 48 47 45 43 43

ECMWFNIL_500_spd_024.txt.gz
Wind_Speed
20 19 19 18 18 18 18 18 18 18 18 17 17 16 14 12 12 12 11 10 9 8 8 8 8 8 9 9 9 8 5 4 3 3 2 3 4 5 7 9 10 10
20 20 19 19 18 19 19 19 18 18 18 18 18 17 16 14 14 13 12 11 11 10 9 9 9 9 10 10 10 9 7 6 5 4 3 3 5 6 8 10 11 11
20 19 19 19 19 20 20 20 19 18 19 18 18 18 17 16 15 15 14 13 13 12 11 11 11 11 10 10 10 10 8 7 7 5 4 4 5 7 9 10 12 13
20 20 20 20 21 21 21 20 19 19 19 19 19 19 18 17 16 16 15 15 14 14 13 13 13 13 12 11 11 10 9 8 8 7 6 6 6 7 9 10 12 14
21 20 20 20 21 21 21 20 21 21 21 21 21 20 19 18 18 17 17 17 16 16 15 15 15 15 14 13 12 11 10 9 9 9 8 7 7 8 9 10 11 13
20 20 19 20 20 21 21 21 22 22 23 22 22 22 20 19 19 18 18 18 18 18 17 16 16 16 16 15 13 12 11 10 10 9 9 9 9 9 10 10 11 13
20 20 20 20 21 21 21 21 22 23 23 24 24 23 22 21 20 20 20 20 20 20 19 18 18 17 17 17 16 14 12 12 11 10 10 10 11 11 11 12 12 14
21 21 21 22 22 21 21 21 22 23 24 25 24 24 24 23 22 22 21 22 22 22 21 20 19 19 18 18 18 16 15 14 12 11 11 11 12 12 12 13 14 15
22 22 23 23 22 21 20 21 22 23 24 24 24 25 24 23 23 23 23 23 24 24 23 22 21 20 20 19 19 19 17 16 14 13 12 12 13 13 13 14 14 16
23 23 23 23 22 21 21 22 22 22 23 23 24 24 23 23 23 24 24 24 24 24 24 24 23 22 21 21 21 21 20 18 16 15 14 14 14 14 14 14 15 16
23 23 23 23 23 22 22 22 22 21 21 21 21 21 20 21 21 22 23 23 24 24 25 25 25 24 23 23 23 23 22 21 18 16 16 16 15 14 15 15 16 17
23 23 22 22 23 23 22 22 21 20 19 19 19 18 17 17 17 18 20 21 22 23 24 25 25 25 24 24 25 25 24 23 20 18 17 18 17 16 16 16 17 17
22 22 22 22 23 22 22 21 20 18 16 16 15 14 13 11 11 12 14 17 19 20 21 23 24 25 25 25 26 26 25 25 22 20 19 19 19 18 18 18 17 17
22 22 22 23 23 23 22 21 18 15 13 13 13 11 9 8 6 7 9 11 14 16 18 19 22 23 23 24 25 26 26 26 24 22 21 22 22 21 20 20 19 18
23 23 23 24 24 23 22 20 18 15 14 13 12 11 9 7 5 5 7 9 12 13 16 17 19 20 20 22 24 25 26 26 26 24 23 24 24 24 23 22 21 20
24 24 24 24 24 23 22 21 19 16 15 14 13 12 10 8 7 7 8 9 11 13 15 17 18 18 19 21 23 24 26 27 27 25 25 26 26 26 26 24 23 22
24 25 25 24 23 23 22 21 19 18 16 15 14 13 11 10 10 10 10 11 12 14 15 17 18 18 18 20 22 24 25 27 27 26 26 27 27 27 28 27 26 25
23 24 24 23 22 21 21 21 20 19 17 16 15 14 13 14 14 13 13 14 14 15 16 17 18 18 18 20 22 23 24 26 27 27 27 27 27 28 29 29 29 27
22 22 21 20 20 21 21 21 21 20 18 17 16 16 16 17 17 17 17 16 16 16 17 18 19 19 19 20 22 24 24 26 27 28 28 29 28 28 29 31 30 29
20 20 19 20 20 21 21 22 22 21 20 19 18 18 19 19 19 19 19 19 19 18 19 20 20 19 19 21 23 25 26 28 29 29 30 30 30 30 30 31 31 30
19 18 19 20 21 22 21 22 23 23 22 21 21 20 21 20 20 20 19 19 20 20 20 21 20 20 20 20 23 26 28 30 31 32 32 32 32 33 32 32 32 31
20 20 20 20 21 22 22 21 21 22 22 23 23 22 22 22 22 22 22 23 23 23 22 22 23 23 23 22 23 26 29 31 33 33 33 33 34 35 35 34 33 32
22 22 23 22 22 22 22 21 21 22 23 24 24 25 25 25 25 25 26 27 28 27 26 25 25 26 26 25 25 27 30 32 33 34 34 34 35 36 36 36 35 34
24 23 24 25 23 22 23 24 24 24 25 25 25 26 26 27 27 28 28 29 30 31 31 30 30 29 28 28 29 30 33 33 34 34 34 34 34 35 36 36 37 37
25 24 25 25 24 24 25 26 26 27 27 28 29 28 27 28 29 29 29 29 29 31 33 34 34 33 32 30 31 32 34 35 36 36 35 35 34 34 34 35 37 39
26 26 26 26 26 26 27 27 27 29 30 32 31 30 30 30 30 31 31 30 29 30 32 33 34 34 34 33 33 34 35 37 39 38 36 37 37 36 35 35 37 39

ECMWFNIL_500_spd_027.txt.gz
Wind_Speed
20 19 19 19 19 18 17 17 17 16 15 15 14 12 11 10 10 9 9 8 7 7 7 8 8 9 9 8 6 4 4 4 5 5 4 3 3 2 2 4 6 9
20 20 19 19 19 19 18 18 17 17 17 16 15 14 13 12 11 11 11 10 9 8 9 9 9 9 10 10 8 7 5 5 5 6 6 5 4 3 3 3 5 8
20 20 20 20 20 20 19 18 17 17 17 17 17 16 15 14 13 13 12 12 11 10 10 11 11 11 10 11 11 9 8 7 6 7 7 7 6 5 4 4 4 6
20 19 20 20 21 21 20 18 17 17 17 17 17 17 16 16 15 15 14 14 13 12 12 12 13 12 12 12 12 11 11 10 8 8 8 8 8 7 6 6 6 6
20 19 19 19 20 20 19 18 18 17 17 17 17 17 17 17 16 16 16 16 15 14 14 14 14 14 13 13 13 13 13 12 11 10 9 10 10 9 8 8 8 8
20 19 19 19 19 19 19 18 18 19 18 18 18 18 18 18 18 17 17 17 17 17 16 16 16 16 15 15 14 14 14 14 13 12 11 11 11 11 10 10 10 10
20 20 20 19 19 19 18 19 19 19 20 20 19 19 19 19 20 19 19 19 19 19 18 18 18 17 17 17 16 16 16 16 15 15 14 13 13 12 11 11 11 11
21 21 20 20 19 19 19 19 19 20 20 20 19 20 20 20 20 20 20 21 21 20 20 20 20 20 19 18 18 18 18 18 17 16 16 15 14 14 13 12 12 12
22 21 21 20 19 19 19 19 19 19 19 19 19 19 20 20 20 20 20 21 22 22 21 21 21 21 21 20 20 20 20 20 19 18 18 17 16 15 14 14 13 13
22 22 21 20 19 19 20 20 20 19 19 19 19 19 19 20 20 20 19 20 21 22 23 23 23 23 23 22 22 22 22 22 21 20 19 19 18 17 16 15 14 14
22 22 20 19 20 20 20 20 20 19 19 19 19 19 19 20 20 19 18 19 20 21 23 24 24 24 24 24 23 23 23 23 22 21 21 20 19 18 17 16 16 16
21 21 19 19 20 21 21 21 20 19 19 19 19 19 19 19 19 18 17 17 19 20 21 23 24 24 24 24 24 23 23 23 23 23 22 22 21 20 19 18 17 17
21 20 19 20 21 22 21 21 21 20 19 19 19 19 19 18 18 17 15 15 15 16 17 19 21 23 23 24 24 23 23 23 24 23 23 23 22 21 21 20 19 18
22 22 22 22 22 23 22 21 21 20 19 20 19 18 17 17 16 15 14 13 13 13 14 15 16 17 18 19 21 21 22 22 23 24 24 24 23 22 22 22 21 20
24 24 24 24 24 23 22 21 21 21 21 20 19 17 16 16 16 15 14 13 12 11 12 12 12 13 14 15 17 19 20 20 22 23 24 24 24 23 23 23 23 23
27 26 25 25 25 23 23 22 22 22 22 20 18 17 16 16 16 16 14 13 12 11 11 11 11 11 12 13 15 17 19 19 20 22 23 24 24 24 24 24 24 24
28 27 27 26 26 24 24 23 24 23 22 20 18 17 17 17 18 17 15 14 13 12 12 11 11 12 12 14 16 17 19 20 20 21 23 24 24 25 25 25 25 25
26 27 27 26 26 25 24 24 24 24 22 20 18 17 18 19 19 18 17 16 15 14 13 14 14 14 14 15 16 18 20 21 21 21 23 24 25 26 26 26 26 26
25 25 25 25 25 25 25 24 24 23 22 20 18 19 20 21 21 20 19 18 17 16 16 16 16 17 17 17 18 19 21 22 22 22 23 24 25 26 27 28 28 28
23 23 24 24 25 24 23 22 22 22 22 20 20 20 21 21 22 22 21 20 20 19 18 18 18 18 19 19 19 20 22 24 24 23 23 24 25 26 28 29 29 29
21 22 22 22 22 22 21 20 20 21 21 21 21 21 22 22 23 23 23 22 22 21 20 19 18 19 19 21 22 22 24 26 27 25 24 24 25 26 28 29 30 30
20 21 21 20 20 20 19 18 19 20 21 22 23 23 23 24 24 24 24 24 24 24 23 22 21 21 20 21 23 25 27 29 30 30 28 26 26 27 28 28 29 30
18 19 19 19 19 18 17 18 19 21 22 23 23 23 23 24 25 26 26 26 27 27 26 26 25 24 23 22 23 26 28 31 32 33 32 30 29 29 30 30 30 30
18 19 19 19 19 19 18 19 20 21 23 24 24 24 24 25 26 27 27 28 29 29 29 28 28 27 25 24 24 25 28 31 32 34 35 34 32 32 31 31 32 33
21 22 22 21 21 21 22 22 22 23 24 25 26 26 26 27 28 28 28 29 29 29 29 29 29 29 29 27 26 26 27 30 32 35 36 36 36 35 33 33 34 35
24 24 24 23 23 24 24 24 24 24 24 25 26 26 27 28 29 30 30 30 30 30 30 30 29 30 30 29 29 29 29 31 34 35 36 38 39 39 37 36 36 36

ECMWFNIL_500_spd_030.txt.gz
Wind_Speed
17 16 16 15 13 12 11 10 10 10 9 8 8 7 7 7 6 7 7 6 5 5 6 5 5 6 7 7 8 8 8 7 5 3 2 2 3 4 3 2 3 4
16 15 15 14 13 12 11 10 10 9 9 8 8 8 8 8 8 8 8 7 6 7 7 7 7 7 7 8 8 8 9 8 8 6 4 3 4 4 5 4 3 3
15 14 14 14 13 13 12 10 10 10 10 10 9 9 9 9 9 10 10 9 9 8 9 9 8 8 8 9 9 9 9 9 9 9 7 5 5 5 6 6 5 4
14 14 14 14 14 13 12 11 11 11 11 12 12 11 10 10 11 11 11 12 12 11 11 11 10 10 10 10 10 10 10 10 10 10 10 8 7 7 7 7 7 6
14 14 14 14 14 14 13 13 13 13 12 12 13 12 12 12 12 12 13 13 14 14 14 13 13 12 12 12 12 12 11 11 11 11 11 11 10 10 9 9 9 9
14 14 13 13 14 13 13 13 14 13 13 13 13 14 13 14 14 14 15 15 15 15 15 15 15 15 15 14 14 14 13 12 12 12 12 13 13 13 12 11 11 11
15 14 14 14 14 14 13 14 14 14 15 14 14 14 14 14 15 15 16 16 16 17 17 17 17 17 17 16 16 16 15 15 14 13 14 14 14 15 15 14 13 13
17 16 15 15 14 14 14 14 15 15 15 14 14 14 14 14 14 14 14 15 16 17 17 18 19 19 19 18 18 18 17 17 16 15 15 15 15 16 17 16 16 15
18 17 16 15 14 14 14 15 15 16 15 15 15 15 14 14 14 14 13 14 15 16 17 18 19 20 20 20 20 20 19 18 18 17 17 16 16 16 17 17 17 17
17 17 16 16 15 15 15 15 15 15 14 14 14 13 13 14 14 14 14 14 14 15 16 18 19 20 21 21 21 22 22 21 20 19 18 18 17 17 18 18 18 18
17 16 16 15 15 16 16 15 15 14 14 14 14 13 13 14 14 15 15 15 14 14 14 16 17 19 20 21 21 22 23 22 22 21 20 19 19 18 18 18 19 19
16 15 15 15 15 15 16 15 14 14 14 14 14 13 13 14 15 15 15 14 13 12 12 13 14 15 17 19 20 21 22 23 23 22 21 21 20 20 20 19 19 20
16 15 15 16 16 16 16 15 15 14 14 15 15 15 14 14 15 15 14 13 13 11 10 10 11 12 14 15 17 18 19 20 21 21 21 21 21 22 21 21 20 20
18 17 17 17 18 17 17 17 16 15 15 15 16 16 15 15 15 15 13 13 12 10 9 9 9 10 11 12 14 15 15 16 18 19 20 19 20 21 22 22 21 21
21 20 19 20 20 20 19 19 18 18 17 17 16 17 16 15 15 14 13 12 12 11 9 9 8 9 9 10 12 13 14 14 15 17 18 18 18 19 20 21 21 21
25 24 23 22 22 22 21 21 20 20 19 18 17 17 17 16 15 13 12 12 12 11 10 9 8 8 9 10 11 13 14 14 14 15 17 18 18 18 18 19 20 21
27 26 25 23 23 23 23 22 22 21 19 18 18 17 17 17 15 13 13 13 13 12 11 9 9 9 10 11 13 15 16 16 16 16 17 18 18 18 18 19 20 21
26 26 25 23 22 23 23 23 22 20 19 18 18 18 17 17 16 14 14 14 14 14 12 11 10 11 11 13 15 17 19 19 19 18 18 18 18 19 19 19 20 21
22 23 22 21 21 22 23 23 21 19 18 18 18 18 17 17 17 16 16 15 15 15 14 13 13 13 14 15 16 18 20 21 21 20 19 19 19 20 21 21 21 21
20 20 19 19 20 21 22 21 19 18 18 18 18 18 17 16 17 18 18 17 17 16 16 16 16 15 15 16 17 18 20 22 23 21 20 19 20 22 22 23 23 23
20 18 18 18 18 19 20 18 17 17 18 18 17 17 17 17 17 18 18 18 18 18 17 16 16 16 16 16 16 18 20 22 23 24 23 22 22 22 23 24 24 25
19 18 18 17 17 18 18 17 17 16 17 17 17 17 17 17 17 17 17 18 19 19 18 16 16 16 16 16 17 19 22 24 24 25 25 24 24 23 23 24 24 26
17 17 18 18 18 18 17 16 16 16 16 17 17 16 16 16 16 17 17 17 18 18 18 17 18 18 18 17 18 20 22 23 25 27 27 26 26 26 26 26 26 27
15 15 15 16 16 16 15 15 15 16 16 16 16 16 16 16 16 17 17 18 18 18 18 19 20 21 21 20 21 22 23 24 26 28 29 29 28 29 29 29 29 29
17 15 14 14 14 14 15 15 15 16 16 17 17 17 17 18 17 17 18 19 20 20 20 20 21 22 23 24 24 26 27 27 28 29 31 31 32 33 34 34 33 33
20 18 17 17 17 17 17 16 17 17 18 18 19 19 20 20 20 19 19 19 20 21 21 21 22 23 24 25 26 27 28 29 31 31 31 32 34 36 37 37 37 37

ECMWFNIL_500_spd_036.txt.gz
Wind_Speed
16 16 16 16 15 14 13 13 12 11 10 9 8 7 6 5 4 2 2 2 1 0 1 2 3 4 5 5 5 5 5 5 5 4 5 5 5 5 5 4 5 5
18 18 17 17 16 15 14 14 13 12 11 9 9 7 7 6 4 3 2 2 2 2 3 4 4 4 4 4 5 5 5 5 6 6 6 6 6 6 6 6 6 6
19 19 19 18 18 17 16 16 15 14 12 10 10 10 9 7 6 6 6 6 6 6 6 7 7 7 6 6 5 5 5 5 5 6 6 6 6 7 7 7 7 7
20 21 20 20 19 18 17 17 16 15 14 13 12 12 11 10 9 9 10 10 10 9 9 9 10 10 9 9 8 8 8 7 7 6 7 7 7 7 8 8 8 9
22 22 21 20 19 18 17 17 17 16 15 14 13 13 12 12 12 11 11 11 11 11 10 10 10 10 11 11 10 10 10 10 9 8 8 9 9 9 9 10 10 10
23 22 21 20 19 19 19 19 18 17 15 14 13 12 12 11 11 10 10 10 10 11 11 11 11 11 11 11 11 11 11 11 11 10 9 10 10 11 11 12 12 12
23 22 21 21 20 20 20 19 18 16 15 14 13 12 11 11 10 10 9 10 10 11 12 12 11 11 12 12 11 11 11 12 12 11 10 10 11 12 13 13 14 13
24 24 23 22 21 20 19 18 17 16 14 13 12 11 11 10 10 10 10 10 11 11 12 12 12 12 12 12 12 11 11 11 12 12 11 11 11 12 13 14 14 15
25 25 24 22 21 20 18 17 16 15 13 12 12 11 11 11 10 10 10 11 11 11 11 11 12 12 12 12 11 11 10 10 10 11 11 11 11 11 12 13 14 15
24 23 22 21 20 19 18 17 15 13 12 11 11 11 11 11 10 10 11 11 11 11 11 11 11 11 11 11 10 9 9 9 9 10 10 11 11 11 11 12 12 14
22 22 21 20 19 18 17 16 14 13 12 11 11 11 12 11 10 10 10 10 11 10 10 10 10 10 10 10 9 8 8 8 8 9 9 9 10 9 9 9 10 11
21 21 21 20 19 19 17 16 14 13 12 12 12 12 12 11 10 10 9 9 9 9 9 9 9 10 9 8 7 6 6 5 5 5 5 4 4 4 4 5 6 7
20 21 21 20 20 19 18 16 15 14 13 13 13 12 11 11 10 9 9 9 9 9 9 9 10 9 7 6 5 3 3 3 3 3 2 2 3 3 3 3 4 5
21 21 21 20 20 19 17 16 15 14 14 13 13 12 11 11 9 8 9 9 10 10 10 10 9 8 6 4 3 3 4 5 6 6 6 6 6 7 7 7 6 6
21 21 20 19 18 18 17 16 15 15 14 14 13 12 11 11 9 9 10 10 10 11 10 10 8 7 5 4 4 3 4 4 5 6 6 6 6 6 6 6 6 5
21 20 19 18 18 18 18 16 15 15 15 14 13 13 11 11 10 10 11 11 11 11 11 10 8 7 6 5 4 3 2 3 4 4 5 5 5 5 4 4 3 3
21 20 18 18 17 17 17 16 16 15 15 14 14 13 12 12 12 12 12 11 11 11 11 10 9 8 7 6 5 4 3 3 3 3 3 4 4 3 2 1 2 3
19 19 19 19 18 18 17 17 17 16 15 15 15 14 14 13 13 13 13 12 11 11 12 11 11 10 8 8 7 6 5 4 4 4 3 3 2 1 1 2 3 4
15 15 17 18 18 18 19 19 19 18 17 17 17 17 17 16 14 14 13 13 12 12 13 13 12 11 10 9 9 7 6 6 6 5 4 4 4 3 4 5 5 6
11 12 13 14 16 18 19 19 18 18 18 19 20 20 19 17 15 15 14 14 13 14 15 14 14 13 12 11 10 8 7 7 8 8 7 7 6 6 6 7 7 9
11 11 12 13 15 17 17 17 17 18 19 20 21 21 20 18 18 17 16 16 15 16 16 15 15 15 14 13 12 11 10 10 10 10 10 9 9 9 9 9 10 12
11 11 11 12 13 15 16 17 17 17 18 20 22 22 20 19 18 18 17 16 17 18 17 16 17 17 16 15 15 15 14 12 11 11 11 11 11 12 12 13 13 15
13 13 12 12 12 14 16 17 17 18 19 21 21 21 20 18 18 18 18 18 19 19 18 18 18 18 18 17 17 17 16 15 14 13 12 12 12 13 14 15 16 18
15 14 14 13 12 13 15 18 19 19 20 21 21 20 20 19 19 20 19 19 19 19 19 20 20 20 20 19 19 19 18 17 16 15 14 13 14 16 18 19 20 21
18 16 15 15 14 14 14 17 19 20 20 21 21 21 21 21 21 20 20 19 19 19 19 20 21 21 21 20 20 20 19 18 18 17 15 15 17 18 20 22 23 24
21 19 18 17 17 16 15 15 18 20 20 21 21 21 21 21 21 20 19 19 19 20 20 21 21 21 21 21 21 21 21 20 20 19 17 18 19 21 22 23 25 26

ECMWFNIL_500_spd_042.txt.gz
Wind_Speed
17 17 17 17 17 17 16 16 16 16 15 14 12 11 10 10 10 10 10 11 11 10 10 9 9 9 10 10 11 11 11 11 10 10 9 8 7 7 6 6 6 5
19 19 18 17 17 16 16 16 16 16 15 14 12 12 12 12 11 11 11 11 11 9 8 6 5 4 5 5 5 6 7 7 8 8 8 8 7 7 7 7 6 5
21 21 19 18 17 17 17 18 18 18 16 14 13 13 13 13 13 12 11 10 9 8 6 4 3 2 1 0 1 1 2 2 3 4 4 4 5 5 5 5 4 4
23 22 21 20 19 18 18 19 19 18 17 15 15 15 15 15 14 14 12 10 8 7 6 4 4 4 4 4 3 2 1 1 1 1 0 0 1 2 2 2 2 2
25 24 23 22 21 19 19 19 19 18 17 17 16 16 16 16 15 14 13 11 10 8 7 6 6 6 6 6 5 4 3 3 3 3 3 3 2 2 1 1 1 1
26 25 24 23 22 20 20 20 20 19 18 18 17 16 16 16 15 13 12 11 10 9 8 8 8 7 7 7 6 5 4 4 4 4 4 4 4 4 3 3 2 1
27 26 25 24 23 22 21 21 21 20 19 19 17 17 16 15 14 13 12 11 10 10 10 10 9 8 8 7 7 6 5 5 5 5 5 5 6 6 5 4 3 2
29 28 27 26 24 23 23 23 22 22 21 20 19 18 17 15 14 13 12 12 12 11 11 10 10 9 9 9 8 7 7 7 7 7 7 7 7 7 6 5 4 4
30 29 28 27 25 25 24 24 24 23 22 21 20 19 18 16 15 14 14 14 13 12 12 11 11 10 10 10 9 9 9 8 8 8 8 9 9 8 6 6 6 6
30 29 28 27 26 26 26 26 25 25 24 23 22 20 19 18 17 16 15 15 14 13 13 13 13 13 12 11 11 11 11 10 10 10 10 11 10 9 8 7 7 6
29 29 28 28 28 28 28 28 27 26 25 24 23 21 21 20 19 18 16 15 15 15 14 15 15 14 13 12 12 13 12 12 12 12 13 12 11 10 9 9 8 7
28 28 28 28 28 29 30 30 29 28 26 25 25 23 23 21 20 19 17 17 17 17 16 16 15 13 13 13 14 14 14 14 14 14 14 14 13 12 11 10 9 7
27 27 28 28 29 31 32 32 30 28 28 27 26 25 24 22 20 20 19 19 18 17 16 15 14 13 14 14 14 15 15 15 16 16 15 14 14 13 12 11 10 8
27 27 28 29 30 32 34 33 31 29 29 28 27 26 24 22 21 21 20 20 18 16 15 14 13 13 14 15 15 16 16 17 17 17 16 15 14 13 12 11 11 10
28 28 28 29 31 33 33 32 31 30 30 29 28 26 24 23 22 21 20 20 18 16 15 14 14 14 15 15 16 17 17 18 18 17 16 15 14 13 13 12 12 11
30 30 30 30 31 33 32 32 31 31 30 29 27 26 25 23 22 21 21 20 18 16 16 15 15 15 15 15 16 17 18 19 18 18 17 15 14 14 14 13 13 12
31 31 31 31 32 32 32 32 32 31 30 29 27 26 25 23 22 21 21 20 18 17 17 16 16 15 15 16 17 18 19 19 19 18 17 15 15 14 14 13 13 12
31 31 32 32 32 32 32 32 32 31 29 28 27 26 25 23 22 21 21 20 19 18 18 17 17 17 16 17 18 19 20 20 20 19 17 16 15 14 14 13 12 11
31 32 32 32 32 32 32 32 31 29 28 28 27 27 25 23 22 22 21 20 20 19 18 18 18 18 17 17 18 20 20 21 20 19 17 17 16 15 15 14 13 11
32 32 32 32 32 31 31 31 29 28 28 28 28 26 24 23 23 23 22 21 20 20 19 19 19 19 18 18 19 21 21 21 20 19 18 17 16 16 16 16 14 13
32 32 32 31 31 31 30 29 28 28 28 28 27 26 24 24 24 23 22 22 21 21 20 20 21 21 20 19 21 22 22 21 20 19 18 18 17 16 16 16 15 14
32 31 31 31 30 29 29 27 27 27 27 27 26 25 25 25 24 23 23 23 23 22 21 22 23 22 21 21 23 23 23 22 21 20 20 19 18 17 17 17 15 14
31 30 29 28 27 26 26 26 26 26 26 27 26 26 25 25 25 24 25 25 25 24 23 24 25 24 23 23 24 25 24 23 23 23 22 21 20 20 19 17 16 16
29 29 27 26 25 25 25 26 26 27 27 28 28 27 27 27 27 27 26 26 26 26 26 26 26 26 25 25 26 26 25 25 25 25 23 21 21 21 20 18 18 19
27 27 26 25 25 25 25 26 26 27 28 28 28 29 29 29 29 28 28 27 27 28 28 28 27 27 27 26 26 27 26 26 26 25 23 21 21 22 21 20 20 21
25 26 26 25 24 24 24 25 25 26 26 27 27 29 29 29 29 29 29 29 29 30 30 29 28 29 28 27 27 27 27 27 27 26 24 23 24 24 23 23 23 23

ECMWFNIL_500_spd_045.txt.gz
Wind_Speed
20 20 20 20 19 19 18 17 16 15 14 14 13 11 10 10 11 11 12 13 14 15 15 15 14 14 13 13 12 12 11 10 10 9 9 9 8 8 7 7 6 6
21 21 21 20 19 18 17 17 17 16 15 15 14 11 10 11 12 13 14 15 14 14 12 11 11 10 10 10 10 10 10 10 10 9 9 9 8 7 7 6 6 6
24 23 21 20 19 19 18 18 17 17 16 15 13 12 12 13 13 14 15 15 14 12 10 9 7 6 6 6 6 6 6 6 6 7 7 7 6 6 6 5 5 5
25 24 23 22 21 20 20 18 18 17 16 15 14 13 14 14 14 15 16 15 14 12 10 8 6 5 4 3 3 3 4 4 4 4 4 4 4 4 4 3 4 4
28 27 26 24 23 21 20 19 18 18 18 17 16 15 16 16 16 16 17 16 14 12 10 8 6 5 4 3 3 3 4 5 5 5 5 5 5 5 4 3 2 2
30 29 28 25 24 22 21 20 20 20 20 19 17 17 18 18 17 17 17 15 13 11 10 8 7 6 5 5 4 4 5 5 6 7 7 7 7 7 5 4 3 3
31 30 29 26 25 23 22 22 22 22 21 20 19 19 19 19 19 18 17 15 13 12 10 8 7 7 6 6 5 6 7 7 7 8 8 8 8 8 7 5 5 5
31 31 30 28 26 25 24 23 23 23 22 21 20 20 20 20 20 19 18 16 14 13 11 10 9 8 8 8 7 7 8 9 9 9 9 9 10 9 8 7 7 6
32 32 30 29 27 27 26 25 24 24 23 23 23 22 22 21 21 20 18 17 15 14 13 12 11 10 10 9 9 9 10 10 10 10 10 11 11 10 9 9 9 8
33 32 31 30 29 28 28 27 26 25 24 25 25 24 23 23 22 21 19 18 17 15 15 14 13 12 11 11 10 10 11 11 11 12 12 12 12 11 10 10 10 9
33 32 31 30 30 30 29 29 28 27 26 27 27 26 25 24 23 21 20 19 18 17 16 15 14 13 13 12 11 11 12 12 13 13 14 14 13 12 12 11 11 10
34 32 32 31 31 31 31 31 30 29 28 28 28 28 27 26 24 23 22 21 20 18 17 16 15 14 13 13 12 13 13 13 14 15 15 15 15 14 13 12 11 10
33 33 32 32 32 32 32 32 31 31 30 30 30 29 28 26 25 25 24 22 21 19 18 16 15 14 13 13 13 14 15 15 15 16 16 16 16 15 14 13 11 11
33 33 33 34 33 33 33 33 32 32 32 32 31 30 29 28 27 26 25 22 21 20 18 16 15 14 14 14 14 15 15 15 16 17 17 17 16 15 14 13 12 11
34 34 34 34 34 34 33 33 33 33 33 33 32 31 30 29 28 27 25 22 21 21 19 16 14 14 15 15 14 15 15 16 16 17 17 17 16 15 15 14 12 11
34 34 34 33 33 33 33 33 33 34 34 33 32 32 31 30 29 27 25 23 22 21 19 17 15 16 16 16 14 14 14 15 16 17 17 17 16 16 15 14 12 12
35 35 34 33 32 32 32 32 33 34 34 34 33 32 32 31 29 27 25 24 23 22 19 17 17 17 17 16 15 14 14 14 15 17 17 17 16 16 15 14 13 12
36 35 34 33 32 32 32 32 33 34 34 33 33 33 32 31 29 27 26 25 24 22 20 18 19 19 18 17 15 15 15 15 16 17 17 17 16 16 15 14 13 13
36 36 35 33 33 32 33 33 34 34 33 33 33 33 33 31 29 28 27 25 24 22 20 20 20 20 19 17 16 16 16 16 16 17 17 16 16 15 15 14 14 14
36 36 35 34 34 34 34 34 33 33 33 34 34 33 32 30 29 28 27 25 24 23 22 21 21 21 20 18 17 17 17 17 17 17 16 16 16 16 16 15 15 15
36 35 34 34 34 34 34 34 33 33 33 33 33 32 30 30 29 28 27 25 25 24 22 21 21 21 21 19 19 19 19 18 18 17 16 16 17 17 17 17 16 16
34 34 34 33 33 33 33 33 33 32 32 32 31 30 29 29 29 28 27 26 25 24 23 22 22 22 22 21 20 20 19 19 18 17 16 17 18 18 19 18 17 17
33 33 33 32 32 32 32 32 32 31 31 31 30 29 29 29 28 28 27 27 26 25 24 24 24 24 23 23 22 21 20 19 18 17 17 18 19 20 20 19 18 18
32 32 32 31 31 31 31 32 31 31 31 30 29 29 29 29 29 29 28 27 26 25 26 26 26 25 25 25 24 22 20 19 18 18 18 19 20 20 20 20 20 20
31 31 31 31 30 31 31 31 31 30 30 29 28 28 28 28 29 28 27 27 26 26 27 27 27 27 26 26 26 24 21 20 19 18 18 20 21 22 22 22 22 22
31 31 31 31 30 30 30 30 29 28 27 27 26 27 28 28 28 28 28 28 28 28 28 28 28 29 28 28 28 26 23 21 19 18 18 21 23 23 24 24 24 24

ECMWFNIL_500_spd_048.txt.gz
Wind_Speed
26 23 22 21 21 21 21 20 19 19 18 18 17 15 13 12 10 10 9 10 11 11 11 11 10 9 9 8 8 7 7 7 7 7 7 7 7 7 7 6 6 6
27 25 23 22 22 22 22 21 20 20 19 19 17 15 14 13 12 11 12 13 14 14 14 13 12 11 10 9 7 7 6 6 6 5 5 5 5 6 5 5 4 4
27 25 25 25 25 24 23 22 21 21 20 19 17 16 15 15 14 14 16 17 17 17 16 14 13 12 11 9 8 7 6 5 5 4 4 4 4 4 3 3 3 2
27 26 27 27 27 26 24 22 22 22 21 20 18 17 17 17 16 17 19 19 18 16 15 13 11 9 8 7 6 5 4 4 3 3 3 3 3 2 2 2 2 1
29 28 29 29 28 26 24 23 23 22 21 21 20 19 19 19 19 19 20 20 18 16 14 12 10 8 7 6 5 5 4 5 4 4 4 4 4 3 3 3 3 3
30 30 30 29 28 26 25 24 24 23 22 22 21 20 21 21 20 21 22 21 19 17 14 12 10 8 6 5 6 6 6 6 6 7 7 7 6 5 5 5 5 5
32 32 32 30 28 27 26 25 24 24 23 22 21 21 22 22 22 22 23 22 20 17 15 12 10 8 6 6 6 7 7 7 7 8 8 8 8 7 7 7 8 7
34 34 33 31 29 28 27 26 25 25 25 23 22 22 23 23 23 23 23 23 21 18 16 13 11 9 8 7 8 8 8 8 8 8 8 9 8 8 7 8 9 9
35 34 33 32 30 29 28 27 27 27 26 25 24 25 25 25 24 24 24 24 22 20 17 15 13 11 10 9 9 9 9 9 8 8 9 9 9 9 8 9 10 10
36 35 34 33 31 29 29 28 28 28 27 26 26 26 26 26 25 25 25 25 23 21 19 17 14 12 11 10 9 9 10 10 9 9 9 10 10 10 10 10 10 10
37 36 35 33 32 30 30 29 29 28 27 27 27 27 28 28 27 26 26 26 25 23 21 18 16 13 12 11 10 10 10 11 11 11 11 11 11 11 11 11 10 9
37 36 35 34 33 32 31 31 30 29 28 28 28 28 29 28 28 27 28 27 26 24 22 19 17 14 13 12 11 10 11 12 13 13 13 12 12 12 11 11 10 9
38 37 36 35 34 33 33 32 30 30 29 28 28 29 30 29 28 29 29 29 27 25 22 20 17 15 14 13 11 11 12 13 14 14 14 14 13 12 11 10 9 9
39 38 37 36 35 35 34 32 31 31 30 29 29 30 30 30 29 30 30 29 28 25 22 20 18 16 15 14 13 13 13 13 14 15 15 14 14 13 11 10 9 9
39 39 38 38 37 36 34 33 32 32 31 30 29 30 31 31 30 30 30 29 27 25 23 20 18 17 16 15 14 14 14 13 13 14 14 14 13 13 11 10 9 9
39 40 39 39 37 36 35 34 34 33 32 31 30 31 32 32 31 30 30 30 28 26 23 21 19 18 17 16 15 14 13 12 12 13 13 13 13 12 11 10 9 9
39 39 40 39 38 37 36 35 34 33 33 32 31 32 33 33 32 31 31 31 29 27 24 22 20 19 19 17 16 14 13 12 12 12 12 12 12 12 11 10 10 10
37 39 39 39 39 38 37 36 35 34 33 32 32 32 33 33 33 33 33 32 30 27 25 24 22 21 20 18 17 15 14 13 12 12 12 12 12 11 11 10 10 10
37 37 38 38 39 38 38 37 36 34 32 32 33 33 34 34 34 34 34 32 30 29 27 25 23 22 20 19 18 16 15 13 13 13 13 12 12 11 11 10 10 10
37 36 36 37 37 38 38 38 36 34 32 32 33 34 34 34 35 35 35 33 32 30 28 26 25 23 21 20 19 17 15 14 14 14 14 13 13 12 12 11 10 11
37 36 36 36 37 38 38 37 35 34 32 33 33 34 34 35 35 36 35 34 33 31 29 27 26 24 22 21 20 18 17 15 15 15 14 14 14 13 12 11 11 12
36 36 36 36 37 37 37 36 35 33 32 33 34 34 34 34 35 35 34 33 33 31 29 27 26 25 23 22 21 19 18 16 15 15 15 15 15 14 13 12 11 11
35 35 35 36 36 36 36 35 34 33 33 33 34 34 33 33 34 34 33 33 32 31 29 28 27 26 24 23 22 21 19 17 16 16 16 15 15 14 13 12 11 12
34 34 35 35 35 35 35 35 34 34 34 33 33 32 32 32 33 33 33 32 32 30 29 29 29 27 25 25 24 22 20 19 17 17 16 15 15 15 13 12 12 13
33 34 35 34 34 34 35 35 35 34 34 33 32 32 31 31 32 32 32 31 31 30 30 30 29 28 27 26 25 23 22 20 19 17 17 16 17 16 14 13 14 14
32 33 34 34 34 34 35 34 34 34 33 32 31 31 31 30 30 30 30 30 30 30 30 30 30 29 27 27 27 25 24 23 21 19 18 18 18 18 16 15 15 15

ECMWFNIL_500_spd_051.txt.gz
Wind_Speed
24 23 22 22 22 22 23 22 22 21 20 18 17 15 14 12 11 10 10 10 10 9 9 9 8 8 7 6 6 5 5 5 5 4 4 3 2 1 1 1 2 2
26 24 23 22 22 22 22 22 22 22 21 20 18 16 14 13 12 11 10 10 10 10 10 10 9 8 7 6 5 5 4 4 4 3 2 2 1 1 2 2 2 1
27 25 24 23 23 23 23 23 23 22 22 21 19 17 15 14 13 11 11 11 10 10 10 10 10 9 8 8 7 6 5 5 4 3 2 2 2 3 3 3 3 2
27 26 24 24 24 24 24 24 24 23 22 21 19 18 17 15 14 12 12 12 12 12 13 13 13 12 11 9 8 7 6 5 4 4 3 2 2 3 3 4 4 3
29 27 26 26 25 25 25 24 24 23 23 22 21 20 19 17 16 14 15 15 15 15 15 15 13 12 10 9 7 5 4 3 3 2 2 1 0 1 2 3 3 3
30 28 27 27 27 26 25 25 24 24 23 23 22 21 20 19 17 17 17 18 17 17 16 15 13 11 9 7 6 5 5 4 4 4 3 3 3 3 3 3 4 4
32 30 29 28 28 28 27 26 25 25 24 24 23 22 21 20 19 19 20 20 19 18 17 15 13 11 9 8 7 6 6 6 6 5 5 5 5 5 5 4 5 5
33 32 31 30 30 29 28 27 26 25 25 24 23 22 22 22 21 21 21 21 21 20 18 16 14 12 10 9 8 8 8 7 7 6 6 6 6 6 6 5 6 5
35 33 32 31 30 29 29 28 27 26 26 25 24 23 23 23 22 22 22 23 22 22 20 18 15 13 11 10 9 9 9 9 8 8 7 6 6 6 6 6 7 6
36 34 33 32 31 30 29 28 28 27 27 26 26 25 25 25 24 23 23 23 24 23 22 20 18 15 13 11 10 10 10 10 9 9 8 7 7 6 6 6 7 7
37 35 34 33 31 31 30 29 29 28 28 28 27 27 26 26 25 24 24 24 25 25 24 22 20 17 14 12 11 10 11 10 10 10 9 9 8 7 6 6 7 7
37 36 35 33 32 32 31 31 30 29 29 29 28 28 28 28 27 26 25 26 27 27 26 24 21 18 15 13 12 11 12 12 11 11 10 10 9 8 7 6 6 7
37 37 36 34 34 33 33 32 31 29 29 29 29 28 28 28 28 27 27 27 28 29 28 25 22 18 15 13 13 13 13 13 13 12 11 10 10 9 7 6 6 6
36 37 37 36 36 35 34 33 31 30 29 29 29 28 28 29 29 28 28 27 28 29 28 26 22 19 16 14 14 14 14 14 14 13 11 10 10 9 7 7 7 6
35 36 37 38 37 36 36 34 32 31 30 29 28 28 28 29 30 29 28 27 28 28 28 25 22 19 17 16 16 15 15 14 14 13 11 9 9 8 8 7 7 7
35 36 37 38 38 37 36 35 34 32 31 29 29 29 28 28 30 30 29 28 28 27 27 25 22 20 19 18 17 15 15 14 13 13 11 9 8 8 8 8 8 8
34 36 36 37 38 38 37 36 35 34 32 30 30 29 28 28 29 30 30 29 28 27 27 25 23 21 20 19 18 16 15 14 13 13 11 9 8 8 8 8 8 9
32 34 35 36 37 38 38 37 36 35 33 32 31 30 29 28 28 29 30 30 28 27 27 26 25 23 21 20 18 16 15 14 14 13 12 10 9 9 8 9 9 9
29 32 34 35 35 37 38 38 37 36 34 32 32 31 31 29 28 29 31 31 30 28 28 27 26 24 23 22 20 17 16 15 14 14 13 12 10 9 9 9 9 10
28 30 32 33 33 35 37 38 37 36 35 34 33 32 31 30 29 29 30 31 32 30 29 29 28 26 24 23 21 19 18 16 15 15 14 13 12 11 10 10 10 10
26 29 31 31 31 32 34 36 37 36 35 35 34 32 31 30 30 30 31 31 32 32 32 31 29 27 26 25 23 21 19 17 16 15 15 14 13 12 11 10 10 10
26 27 29 30 31 31 31 34 35 36 35 35 35 33 32 31 31 31 31 32 33 33 33 32 31 29 28 27 25 22 21 18 16 15 15 15 15 13 11 10 10 10
26 26 27 29 30 30 30 31 32 34 35 35 35 34 33 32 32 32 32 33 33 33 33 33 33 31 30 29 27 24 22 20 18 17 17 17 16 13 11 10 10 10
27 25 25 27 29 30 31 31 31 32 33 34 35 35 34 33 33 33 33 33 33 32 33 33 33 33 32 30 28 25 24 22 20 18 18 18 17 15 12 11 11 11
28 25 24 26 27 29 31 32 32 32 33 33 34 35 34 34 33 33 32 32 32 32 32 33 33 33 32 31 29 26 25 24 22 20 19 19 18 17 15 13 12 12
29 26 24 24 26 28 30 32 33 33 33 33 34 34 34 34 33 32 31 31 31 31 31 32 33 32 31 30 29 27 26 25 24 22 21 21 20 19 17 15 14 14

ECMWFNIL_500_spd_057.txt.gz
Wind_Speed
15 14 14 14 15 15 15 14 14 14 15 15 15 15 14 13 12 11 9 8 6 5 4 3 2 2 3 4 4 5 6 7 8 8 7 8 8 8 8 8 9 9
16 16 15 15 15 15 15 15 15 15 15 15 15 15 14 13 12 11 9 8 7 6 5 4 4 3 2 3 3 4 6 7 8 9 9 9 9 9 9 9 8 8
17 17 16 16 16 16 16 16 17 17 17 16 15 15 14 13 12 11 9 8 7 7 7 6 5 4 3 3 4 5 7 9 10 10 10 10 9 9 9 9 9 8
19 18 18 18 17 17 16 17 17 18 17 17 16 16 15 13 12 11 9 8 7 7 7 7 7 6 5 5 6 8 9 11 11 11 11 10 9 9 9 9 9 8
21 20 19 19 19 18 17 17 17 18 18 18 17 16 15 14 13 12 10 8 7 7 7 7 7 8 8 9 10 11 11 11 11 11 10 9 8 7 7 7 7 7
22 21 20 20 20 19 18 18 18 18 18 18 17 17 16 15 14 13 11 9 7 7 7 8 9 10 11 11 12 11 11 10 10 9 9 8 7 6 6 6 6 5
23 22 22 21 21 20 20 20 19 19 19 19 18 17 17 16 15 14 12 9 8 7 7 9 11 11 12 11 11 10 9 8 8 7 7 6 6 5 5 5 5 4
25 24 23 23 22 21 21 21 20 20 20 20 19 18 18 17 16 15 13 10 9 9 8 9 11 11 11 11 10 9 8 7 7 6 5 5 4 4 3 3 4 4
26 25 24 23 22 21 21 21 22 22 21 21 20 20 19 18 17 16 14 11 10 10 9 10 10 11 11 10 9 8 7 7 6 5 4 4 3 2 2 2 2 3
27 26 25 24 22 22 21 22 23 23 23 22 22 21 20 19 18 17 15 13 12 11 11 11 11 11 11 10 9 8 7 6 5 4 3 2 2 2 2 2 2 3
27 25 24 23 22 22 22 23 23 23 23 23 23 22 21 20 19 18 17 15 14 14 13 13 13 13 12 11 10 8 7 5 5 4 3 2 2 3 3 3 3 3
26 25 23 22 23 23 23 24 24 24 24 23 23 23 22 22 20 19 19 18 17 16 15 15 15 14 14 12 10 9 8 6 5 4 3 3 4 4 5 5 5 5
25 24 23 23 23 24 24 25 24 24 24 24 24 24 23 22 21 21 20 20 19 18 17 17 16 16 16 14 12 10 9 8 6 5 4 4 5 5 6 7 7 7
22 23 23 23 24 24 25 25 25 24 24 25 25 24 23 22 22 22 22 21 20 19 18 18 17 17 17 16 14 13 11 10 8 7 6 6 6 7 8 8 9 9
19 20 22 22 23 23 23 24 24 25 25 25 25 24 23 23 23 24 23 23 22 20 19 18 18 18 18 18 17 16 14 12 10 8 7 7 7 8 9 10 11 11
16 16 18 20 21 22 22 23 23 24 25 25 25 25 24 23 23 24 24 23 23 21 20 18 18 18 19 19 20 19 17 15 12 10 8 8 8 8 9 11 12 12
14 14 14 16 19 20 22 22 23 24 24 25 25 26 25 24 24 24 24 24 24 22 21 19 19 19 20 20 21 21 20 17 14 12 10 9 9 9 10 11 12 12
15 14 13 14 15 18 20 22 23 23 23 24 25 26 26 25 24 24 24 25 24 23 22 20 20 21 21 20 21 22 22 20 17 14 12 11 11 11 11 12 12 12
17 15 14 13 14 16 18 20 22 22 23 23 25 26 27 26 24 24 24 25 24 23 22 22 21 22 22 21 21 22 24 23 20 17 15 13 12 12 12 13 13 13
19 17 15 15 15 15 16 18 20 22 23 24 25 26 27 27 26 25 25 25 25 24 23 23 22 22 22 23 22 23 24 24 22 19 17 16 14 14 14 15 15 14
19 18 17 16 15 15 15 16 19 21 23 24 25 25 26 28 28 27 26 26 26 25 24 23 23 23 23 23 23 23 23 24 23 21 19 18 17 16 16 17 17 16
19 19 18 17 17 15 15 16 17 20 23 24 25 25 25 27 29 28 27 27 26 26 25 24 23 23 23 23 24 24 23 24 24 23 22 21 20 18 18 18 18 17
19 19 20 19 18 16 15 16 17 19 22 24 24 24 24 25 27 29 29 28 27 26 25 25 24 24 24 24 24 25 24 23 24 25 24 23 22 20 20 20 19 19
21 21 21 21 19 17 16 17 17 19 21 23 24 24 24 25 26 28 30 30 29 27 26 25 25 25 25 25 25 25 24 23 24 25 25 24 24 23 22 21 21 20
23 23 23 22 20 19 18 18 18 19 21 22 24 24 24 25 26 27 28 29 29 29 28 27 26 26 25 25 25 25 24 23 24 25 25 25 26 25 24 23 23 22
24 25 25 24 22 21 20 19 20 20 21 22 23 24 25 25 25 25 27 28 29 29 29 28 27 26 26 26 26 25 25 24 24 24 26 26 27 27 27 25 25 24

ECMWFNIL_500_spd_060.txt.gz
Wind_Speed
17 17 16 15 16 16 16 15 15 15 15 15 15 15 14 14 13 12 11 9 9 8 7 7 7 7 7 8 9 9 9 9 9 9 8 8 8 9 10 10 12 13
18 18 17 15 15 16 17 16 16 15 16 16 16 15 15 14 13 12 10 8 7 6 6 6 6 7 7 7 8 9 9 9 10 10 9 9 8 9 9 10 11 12
19 19 18 17 16 16 17 17 17 16 16 16 16 16 15 14 13 11 10 8 6 4 4 4 5 6 7 7 8 9 9 10 10 11 11 10 9 9 9 9 10 10
19 19 20 19 18 17 17 18 18 17 16 16 16 16 15 14 12 11 9 7 5 4 3 3 4 6 7 8 9 10 11 11 11 11 11 11 10 9 9 9 9 9
21 21 21 21 19 18 17 17 18 17 17 17 17 16 15 14 12 10 8 6 5 4 4 4 4 6 8 10 11 12 12 11 11 11 10 10 10 9 8 8 8 8
22 22 21 21 21 19 18 17 18 18 18 18 17 16 15 14 12 10 8 6 5 5 5 5 6 7 9 11 13 13 12 11 10 10 9 8 8 8 7 7 7 7
23 23 22 21 21 20 20 19 18 18 19 18 18 17 16 14 13 11 8 6 5 5 5 6 8 10 12 13 13 12 11 11 10 9 8 7 6 6 5 5 5 5
25 25 24 23 22 21 21 20 19 19 19 19 18 18 17 15 14 12 9 7 5 5 5 6 9 11 13 13 13 12 11 10 9 8 7 7 6 5 4 4 4 4
26 26 25 24 23 22 22 22 21 20 19 19 19 19 18 17 15 13 11 8 6 5 5 7 9 12 13 13 13 12 11 10 9 8 7 6 5 5 4 4 4 4
27 27 26 25 24 23 23 23 23 22 21 20 20 19 18 18 16 14 12 10 8 7 6 7 9 11 12 13 13 12 12 11 10 8 7 6 5 5 4 4 4 5
27 28 27 26 26 25 25 25 25 24 23 22 21 20 20 19 18 16 14 12 10 9 9 9 10 12 13 13 13 13 12 11 10 9 7 6 6 5 5 5 5 5
27 27 27 27 27 27 27 27 26 25 25 24 23 22 22 21 19 18 16 15 14 12 11 11 12 13 13 14 14 14 13 12 11 9 8 7 6 6 6 6 6 6
27 27 28 29 29 29 29 28 27 27 26 25 25 24 23 22 21 20 19 18 17 15 14 14 14 14 14 15 15 15 14 13 12 11 9 8 8 7 7 8 8 8
26 28 29 30 31 31 30 29 28 28 27 27 26 25 24 23 22 22 21 20 19 18 17 16 16 16 15 15 15 16 15 14 13 12 10 9 9 8 8 9 9 10
25 28 30 32 32 32 31 30 29 29 28 28 27 26 25 25 24 23 23 22 21 20 19 18 17 17 17 17 17 17 17 16 15 13 12 11 10 10 10 10 10 11
22 26 30 32 32 32 31 31 30 30 30 29 28 27 27 26 25 24 23 23 22 22 21 20 19 19 19 19 18 19 19 18 17 15 14 12 11 11 11 11 12 12
19 22 26 29 31 31 31 31 31 31 31 30 30 29 28 28 27 25 24 24 24 24 23 22 21 21 21 21 20 20 20 20 19 18 16 14 13 12 11 12 13 13
17 19 22 25 28 30 31 31 32 32 31 31 31 30 30 29 28 26 25 25 25 25 24 23 22 23 23 22 22 21 21 21 21 20 19 17 15 14 13 12 13 14
17 18 19 22 25 28 30 31 31 31 31 31 32 32 32 31 29 28 27 26 26 25 25 24 24 24 24 24 23 22 22 23 23 23 22 20 18 16 14 14 14 15
19 19 19 20 21 23 26 28 29 30 31 32 33 33 33 31 30 29 28 27 26 25 25 26 25 26 26 25 24 24 23 24 24 25 24 23 21 19 17 15 15 16
23 22 21 21 20 20 21 23 26 29 31 32 33 33 33 32 32 31 30 29 28 27 27 26 26 26 26 26 25 25 25 25 25 25 26 26 24 22 20 18 17 17
26 25 25 24 22 21 21 22 24 27 30 32 33 33 33 33 34 33 32 31 30 29 28 27 27 27 26 26 26 25 26 26 25 26 26 27 27 26 24 22 20 19
28 28 28 27 26 24 23 23 24 25 27 30 31 32 32 32 33 33 33 32 32 31 29 28 28 28 27 26 26 26 26 25 25 26 26 28 29 29 28 26 23 21
32 30 30 30 29 26 25 26 25 25 26 27 29 31 32 32 32 33 34 34 33 32 31 30 30 29 28 28 28 27 26 25 25 26 27 28 30 30 30 29 26 24
36 34 31 30 30 29 28 28 28 27 27 27 28 30 31 32 32 32 32 33 33 33 32 32 31 31 30 29 29 29 28 26 25 25 26 28 29 30 31 31 30 28
39 36 33 30 31 32 31 31 30 29 28 27 28 29 31 31 31 30 30 31 32 33 33 33 32 32 31 30 30 30 29 28 26 25 25 27 29 31 31 32 32 31

ECMWFNIL_500_spd_063.txt.gz
Wind_Speed
16 16 15 13 13 14 14 14 13 13 14 14 14 14 13 12 12 12 12 11 11 10 10 10 9 9 9 9 10 10 10 10 10 10 10 10 10 10 10 11 12 12
17 17 15 14 13 14 14 15 14 13 13 14 14 14 14 13 12 12 11 11 10 9 9 9 9 9 9 9 9 9 9 9 9 9 10 10 10 10 10 11 11 12
18 17 16 15 14 15 16 16 15 14 13 13 13 13 14 13 12 12 11 10 9 9 8 8 9 9 10 10 9 9 9 9 9 9 9 10 10 10 10 10 11 11
19 18 18 17 16 16 17 17 16 15 14 14 14 14 14 13 12 11 10 9 9 8 8 8 9 9 10 10 10 10 10 9 9 9 9 10 10 10 10 10 10 10
21 20 20 19 17 16 16 16 16 16 16 16 16 15 14 13 12 11 10 8 7 7 7 8 9 10 10 11 11 12 11 11 10 10 9 9 9 10 10 10 10 10
22 22 21 20 18 17 16 17 17 17 17 17 16 16 15 14 13 11 10 8 6 6 6 8 10 11 11 12 12 12 12 12 11 10 9 8 8 8 8 9 9 9
23 23 22 21 20 18 17 17 17 17 17 17 16 16 15 14 13 12 10 8 6 5 6 8 10 12 12 13 13 12 12 12 11 10 9 8 7 6 6 6 7 7
25 25 24 22 21 20 19 18 17 17 17 17 16 16 16 15 14 12 10 8 6 5 5 8 11 13 14 15 14 13 12 12 11 10 9 8 7 5 4 4 4 5
26 26 25 24 22 21 21 20 19 18 18 17 17 17 17 16 15 13 11 8 6 5 5 8 11 14 16 16 16 14 13 12 11 10 9 8 7 6 5 4 4 4
28 27 27 25 24 23 23 22 22 20 19 18 19 18 18 17 16 15 12 10 8 7 6 8 12 15 17 17 17 15 14 13 12 11 10 9 8 7 6 5 4 5
28 28 27 26 26 25 25 24 24 23 21 21 20 19 19 18 17 15 13 11 10 9 8 8 11 14 16 17 17 16 16 14 13 12 11 10 9 8 7 6 6 5
29 28 28 27 28 27 27 27 26 25 24 23 22 21 21 20 19 17 15 14 13 12 11 10 11 14 16 17 17 17 16 15 14 13 12 11 10 9 8 8 7 7
29 28 28 28 29 30 30 29 28 27 26 25 25 24 23 22 21 19 18 18 16 15 14 13 13 13 15 16 17 18 17 17 16 15 13 12 11 11 10 9 8 8
29 30 29 30 30 31 31 31 29 28 28 28 27 26 25 25 23 22 22 21 19 18 17 16 15 15 16 17 17 18 19 18 18 16 15 14 13 12 11 10 10 9
28 31 31 31 32 32 32 31 30 30 29 29 29 28 27 27 26 25 25 23 22 21 20 19 18 17 17 18 18 19 20 20 20 19 17 16 15 14 12 12 11 10
28 30 32 33 33 32 32 32 31 31 31 30 29 29 29 29 28 28 27 26 25 24 23 21 20 19 19 19 20 21 22 22 21 20 19 18 16 14 13 12 12 12
27 28 31 33 33 33 33 33 32 32 32 32 31 31 30 30 30 29 28 27 27 26 25 23 22 21 21 21 21 22 23 23 23 22 21 20 18 16 15 13 13 13
26 25 27 29 31 33 33 33 33 33 33 33 33 32 32 32 31 30 29 29 28 28 26 25 24 24 23 23 23 23 24 25 25 25 24 22 21 19 17 16 14 14
26 24 24 25 28 31 33 33 34 34 33 33 33 34 34 34 32 32 31 30 30 29 28 27 26 26 26 26 25 25 25 25 25 26 26 25 24 22 20 19 17 16
26 25 23 23 25 28 31 33 33 33 33 34 35 35 36 35 34 33 33 32 31 30 30 29 29 29 29 28 28 27 26 25 25 26 26 26 26 25 24 22 21 19
27 26 25 25 25 27 30 32 33 33 34 34 35 36 36 36 36 36 35 34 33 32 32 31 30 31 31 31 29 29 28 27 26 26 25 26 26 26 26 25 24 23
29 28 28 28 28 28 29 31 33 34 35 36 36 37 37 37 37 37 36 36 35 35 34 32 31 32 32 32 31 30 29 28 27 26 26 26 26 26 27 28 27 26
32 30 30 29 29 28 28 29 31 33 35 37 38 38 38 38 38 38 38 38 37 37 35 33 33 33 33 33 33 32 31 29 27 27 27 26 27 27 28 28 29 28
34 32 30 29 28 27 27 28 30 32 34 36 37 38 38 38 38 39 39 39 39 38 37 35 34 34 34 34 34 34 32 30 28 28 27 27 27 28 28 29 29 29
36 33 31 30 28 27 27 28 29 31 33 34 35 36 37 38 39 39 39 39 39 39 38 37 36 36 36 35 35 35 33 31 30 28 27 27 28 29 30 30 30 30
38 36 34 32 30 30 29 30 31 31 32 32 33 34 36 37 38 38 38 38 38 39 38 37 37 37 37 36 36 36 35 33 31 29 27 27 28 29 30 31 31 31

ECMWFNIL_500_spd_066.txt.gz
Wind_Speed
16 17 16 13 11 12 13 15 15 15 16 16 16 15 13 13 12 13 13 13 13 13 13 14 13 13 13 13 12 11 11 11 10 10 9 10 11 11 12 12 12 12
18 18 17 14 12 11 13 14 15 15 15 15 14 13 12 12 13 13 14 14 13 13 13 13 13 13 14 13 13 12 11 11 11 10 10 10 11 11 12 12 13 13
19 19 18 16 14 13 13 15 15 15 15 15 14 13 12 12 12 13 14 14 13 13 13 13 13 13 14 14 14 13 12 11 11 10 10 11 11 11 11 12 12 13
19 20 19 18 17 15 14 14 15 16 15 15 15 14 13 12 12 13 14 13 13 13 13 13 13 14 14 14 14 13 13 12 11 11 11 11 11 11 11 11 11 12
21 21 20 19 18 16 14 14 15 15 15 15 15 14 13 13 13 14 13 13 12 12 13 13 13 14 14 14 14 14 13 12 12 11 11 11 11 11 11 11 11 11
22 22 21 20 18 17 15 14 15 15 16 16 15 14 14 14 14 14 13 12 11 11 12 13 13 14 14 14 14 14 13 13 13 12 12 12 11 11 11 10 10 10
24 23 23 21 19 18 17 16 15 15 16 16 15 14 14 14 14 14 13 11 10 10 11 12 13 14 14 14 15 14 14 14 13 13 12 12 11 11 10 9 9 9
25 25 25 23 21 19 19 18 16 15 16 16 15 15 15 15 14 14 12 11 9 8 9 11 13 14 15 15 15 15 15 15 14 13 12 12 11 10 9 8 8 8
27 27 26 25 22 20 20 19 18 17 16 15 16 16 16 16 15 15 13 11 9 8 8 9 12 14 15 16 16 16 16 15 14 13 12 12 11 10 9 8 7 6
28 28 27 26 24 23 22 22 21 20 18 17 17 17 17 17 17 16 14 12 10 9 8 10 12 15 16 16 17 17 16 15 15 14 13 12 11 10 9 8 7 7
29 29 28 28 27 26 25 25 24 22 21 19 19 18 18 19 18 17 15 13 12 11 10 11 13 15 17 17 17 17 16 15 15 14 13 12 11 10 9 9 8 7
31 30 30 29 29 28 28 28 27 25 24 23 21 20 20 20 19 19 17 16 15 13 12 12 13 16 18 18 18 18 17 16 16 15 14 13 12 11 10 9 9 8
33 32 32 32 31 31 31 30 29 28 26 25 24 23 22 21 21 20 20 19 17 16 14 13 13 15 18 19 19 19 18 18 17 16 15 14 13 12 11 10 9 8
36 35 35 34 33 33 33 31 30 29 28 28 27 26 24 23 23 22 22 22 20 18 17 16 14 15 17 19 20 21 20 20 19 18 17 16 15 14 13 12 11 9
38 38 37 36 36 35 34 33 32 30 30 30 28 27 27 26 25 24 24 23 22 21 20 19 17 16 17 19 20 21 22 22 21 20 19 18 17 16 15 13 12 11
37 39 39 38 37 35 35 34 34 33 32 31 30 29 29 29 28 27 26 25 24 24 23 21 20 19 19 19 21 22 23 23 23 22 22 21 19 18 17 15 14 14
35 38 40 40 38 37 36 36 35 35 34 33 32 31 31 30 30 29 28 27 27 26 25 23 22 21 21 21 21 22 23 24 25 25 24 23 22 20 19 18 17 16
32 36 40 41 40 40 39 38 37 36 35 34 33 33 32 32 31 30 30 29 29 28 27 25 24 23 23 23 22 22 23 24 26 26 26 25 24 22 21 20 19 17
32 34 37 40 41 41 41 40 39 38 36 35 34 34 34 33 32 32 31 31 30 29 28 27 26 26 25 25 24 24 24 25 26 27 27 27 26 25 24 22 21 19
32 32 34 37 40 42 42 42 40 39 37 37 36 36 35 34 33 33 33 32 31 31 30 29 28 28 27 27 27 27 27 26 26 27 28 28 27 27 26 25 23 22
33 31 32 34 37 41 42 43 42 40 39 38 38 37 37 36 36 35 35 34 33 32 32 30 29 29 29 29 28 29 29 29 28 27 27 27 28 28 28 28 27 25
35 32 32 33 35 38 40 42 42 41 40 40 39 39 39 38 38 38 37 36 36 35 33 32 31 31 31 30 30 31 31 31 29 28 27 27 27 28 29 30 30 29
37 34 32 33 34 35 37 39 41 41 41 41 40 40 40 39 39 39 39 39 38 36 34 33 32 33 33 32 32 33 33 32 30 29 28 27 27 28 28 29 29 30
38 35 33 33 33 33 34 35 38 39 40 41 41 41 40 40 39 39 39 39 38 37 36 34 34 35 35 34 34 34 34 33 32 30 29 28 28 28 28 28 29 30
40 37 35 34 34 33 33 34 35 36 38 39 39 39 39 39 39 39 38 38 38 37 37 36 36 36 37 36 36 36 36 35 34 32 30 29 28 28 28 29 29 31
42 40 38 37 36 34 34 33 33 33 33 34 34 35 36 37 37 37 37 37 38 38 38 37 37 38 38 38 38 38 37 37 36 34 31 30 29 29 29 29 30 32

ECMWFNIL_500_spd_069.txt.gz
Wind_Speed
15 15 15 14 13 13 13 14 15 15 13 11 10 10 11 11 12 12 12 13 13 13 13 12 12 12 12 12 11 10 9 9 9 9 9 9 10 11 12 13 13 13
17 17 16 14 14 14 14 15 16 16 14 12 10 11 12 13 12 12 13 13 13 13 13 13 13 13 13 13 12 11 10 10 10 10 10 10 10 11 12 13 13 13
18 18 18 16 15 15 15 15 16 16 15 13 13 13 14 13 13 13 13 13 14 14 14 14 14 14 13 13 12 12 11 11 10 10 11 11 11 11 12 13 13 13
20 21 20 18 16 16 16 15 16 16 16 16 16 15 15 14 13 13 14 14 14 14 14 14 14 14 14 13 13 12 11 11 11 11 11 12 12 12 12 12 13 13
22 22 22 19 17 16 16 16 16 17 18 18 18 17 16 15 14 14 15 15 15 14 15 15 14 14 14 14 13 12 12 12 12 12 12 12 13 12 12 12 12 13
24 24 23 21 19 18 17 17 17 18 19 19 19 18 17 16 15 15 16 15 15 15 15 15 15 15 14 15 14 13 13 12 12 12 12 12 13 12 12 11 11 11
25 25 25 23 21 20 19 19 18 18 19 20 20 19 18 17 17 17 16 16 15 15 15 15 15 15 15 15 15 14 14 13 12 12 12 12 12 11 11 10 10 10
27 26 25 24 23 22 21 20 19 19 20 20 20 20 20 19 18 18 17 17 16 15 15 15 16 16 16 16 16 15 14 13 13 12 12 12 11 11 10 10 9 9
29 27 26 25 24 23 23 22 22 21 20 21 21 22 21 20 19 19 18 17 16 15 15 15 16 17 17 17 16 16 15 14 13 12 12 12 11 11 11 10 9 9
30 29 28 27 26 25 25 25 24 23 22 21 22 22 21 21 20 19 19 18 16 15 15 15 16 17 18 17 17 16 15 14 13 13 12 12 11 11 11 10 10 9
32 31 29 29 28 27 27 27 26 25 24 23 22 22 22 22 21 20 20 19 18 16 15 15 16 18 18 18 18 17 16 15 14 13 12 12 12 11 11 10 9 9
33 32 31 31 30 30 29 29 28 27 26 25 24 24 23 23 22 21 21 20 19 17 16 15 16 17 19 19 18 17 17 16 15 14 13 13 13 12 11 10 9 9
34 33 33 33 33 32 32 31 30 29 28 27 26 26 25 24 24 23 23 22 21 19 17 15 15 16 18 19 18 18 18 17 16 15 14 13 13 13 11 10 10 9
36 36 35 35 35 34 33 32 31 31 30 29 28 27 26 26 26 25 25 25 23 21 19 17 15 14 16 18 19 19 19 18 17 16 15 14 14 13 12 11 11 10
38 38 37 37 36 35 34 33 33 32 32 32 30 29 28 28 28 27 27 26 25 24 21 19 16 15 15 17 18 20 20 20 19 18 17 16 15 14 13 12 12 12
35 38 39 38 37 37 36 35 34 34 33 33 32 31 31 30 29 29 28 28 27 26 24 21 19 18 17 17 18 20 21 21 20 19 18 17 16 15 15 14 14 14
31 34 38 39 39 38 38 37 36 35 35 34 33 33 32 31 30 29 29 28 28 28 26 24 22 21 20 19 19 20 21 22 22 22 21 20 18 18 17 17 17 16
29 31 34 37 39 40 39 39 38 37 36 35 34 33 33 32 31 30 30 29 29 29 28 26 25 24 24 22 22 22 22 23 24 24 23 23 22 21 21 20 20 19
31 30 31 34 37 40 41 41 40 39 38 37 36 35 35 34 32 31 31 30 30 30 29 28 28 27 27 26 25 24 24 24 25 25 25 25 25 24 24 23 22 22
34 32 31 31 34 37 41 42 41 40 39 39 38 37 36 35 34 33 32 32 31 31 30 30 30 30 29 29 28 27 26 26 26 26 26 26 26 27 27 26 26 25
36 34 32 31 32 34 37 40 41 41 41 41 40 39 38 37 36 35 34 33 33 32 31 31 30 30 31 30 30 29 29 28 27 26 26 26 26 27 28 29 29 28
39 37 34 33 32 32 32 35 37 40 41 42 42 41 40 39 38 36 35 35 34 33 32 31 31 31 32 32 31 31 31 30 29 27 26 26 26 27 28 30 30 30
42 40 37 36 34 32 31 32 33 36 39 41 42 42 41 40 39 38 38 37 36 35 33 32 32 32 33 33 33 33 32 31 30 29 28 26 26 27 28 29 30 30
44 42 40 39 37 35 33 32 33 34 36 39 41 42 42 42 41 41 40 39 38 36 34 33 33 34 34 34 33 34 33 32 31 30 28 27 27 27 28 28 29 30
45 44 43 42 40 39 37 35 34 35 35 36 38 40 42 43 43 42 41 40 38 37 36 35 34 35 35 35 35 35 34 33 32 31 29 28 28 28 29 30 29 30
46 46 45 44 43 42 41 38 37 36 36 36 36 38 39 42 43 42 41 40 38 37 37 36 35 36 37 37 36 36 35 34 34 32 30 30 30 30 31 31 30 30

ECMWFNIL_500_spd_072.txt.gz
Wind_Speed
16 16 17 16 16 16 16 17 17 16 15 13 11 11 12 12 11 11 10 9 9 10 10 10 9 9 8 8 8 8 8 8 8 9 9 10 10 11 12 12 12 13
18 18 18 17 16 16 17 17 18 17 16 14 12 11 11 12 11 11 10 10 10 10 11 10 10 9 9 9 9 9 9 8 9 9 9 10 11 11 12 12 12 13
19 19 19 18 17 17 17 18 18 18 17 15 13 13 12 12 12 11 11 10 11 11 11 11 11 10 10 10 9 9 9 8 9 9 9 10 10 11 12 12 11 12
21 21 21 19 18 18 17 18 18 18 17 16 15 14 14 13 13 12 11 12 12 12 11 11 11 11 10 10 9 9 8 8 8 9 9 10 10 11 11 11 11 11
24 23 22 21 19 18 18 18 18 18 18 17 16 16 15 14 14 13 12 12 12 12 12 12 11 11 10 10 9 8 8 8 8 8 9 10 10 10 11 11 11 11
26 25 24 23 21 19 19 19 19 19 19 18 18 18 17 16 15 14 13 13 13 13 12 12 11 11 10 10 10 9 8 8 8 8 9 9 10 10 10 10 11 11
27 26 25 24 23 21 20 20 20 20 19 19 20 20 19 17 16 15 14 14 14 14 13 12 12 11 11 11 10 9 8 8 8 8 9 9 10 11 11 11 10 10
28 27 26 25 24 23 22 22 22 21 21 20 21 21 20 19 17 16 15 15 15 14 14 13 12 12 11 11 10 9 9 8 8 8 9 10 10 11 11 11 11 11
28 27 26 25 24 24 23 23 23 23 22 22 23 23 22 20 19 17 16 16 16 15 14 14 13 12 12 11 11 10 9 9 8 8 8 10 10 11 11 11 11 11
28 27 27 26 25 25 24 24 25 24 24 24 24 24 23 22 20 19 18 17 17 16 16 15 14 14 13 12 12 11 11 10 9 8 8 9 10 11 11 11 10 10
29 28 28 27 26 26 26 26 26 25 25 25 25 25 25 24 22 20 19 19 19 18 17 16 15 15 14 14 14 13 12 11 11 10 9 10 11 11 11 10 10 10
29 29 29 29 29 28 27 27 27 26 26 26 26 26 26 25 24 23 22 21 21 20 19 17 16 15 15 15 15 14 14 13 13 12 11 11 11 11 11 11 11 10
30 31 31 31 31 30 29 28 28 27 27 27 27 27 27 26 26 25 24 24 24 22 21 19 17 16 15 15 15 15 15 15 15 14 13 13 13 12 12 12 11 11
29 32 33 33 33 32 31 29 29 28 28 28 28 28 27 27 27 27 27 26 25 24 22 20 18 17 16 15 15 16 16 16 16 15 15 15 14 14 13 13 12 12
28 30 33 34 34 34 33 31 30 29 29 29 28 28 28 28 28 28 28 28 27 26 24 22 19 18 17 16 16 17 17 17 17 16 16 16 15 15 14 14 13 13
28 28 30 33 34 35 34 33 32 31 30 30 29 29 29 29 28 29 29 29 28 28 26 24 21 19 18 18 17 17 17 17 17 17 17 16 16 15 15 15 14 13
30 28 28 30 33 35 35 35 34 33 31 31 30 30 30 29 29 29 29 29 30 29 28 26 23 22 21 20 19 18 18 18 18 18 18 17 17 16 16 16 16 15
32 30 29 28 31 34 36 37 36 35 33 32 31 31 31 30 30 30 30 30 30 30 29 27 25 24 24 23 21 19 19 19 20 20 19 19 18 18 18 18 17 17
33 32 30 29 29 32 35 38 38 36 35 34 33 33 32 31 30 30 30 31 30 30 30 29 28 27 27 25 24 22 22 21 21 21 21 20 20 20 20 20 19 19
35 33 32 31 30 30 33 35 37 37 37 36 36 35 33 31 31 31 31 31 31 30 30 30 30 29 29 28 27 26 25 24 23 22 22 21 21 21 21 22 22 21
36 36 34 33 32 31 31 32 34 35 37 37 37 36 35 34 34 33 32 31 31 31 31 31 30 31 31 31 30 29 28 27 25 24 23 22 22 22 22 23 24 24
38 37 37 36 35 33 32 31 31 32 35 37 38 38 37 37 36 35 33 33 33 32 32 31 31 32 32 32 32 32 31 29 26 24 24 24 23 23 24 25 25 26
40 40 39 39 38 36 34 33 33 32 33 36 38 39 39 39 38 37 36 35 35 34 32 32 32 32 33 33 33 33 32 30 27 26 25 25 25 25 25 26 26 27
42 42 42 41 41 40 38 37 36 36 35 35 36 37 38 40 40 39 38 37 36 35 34 33 33 33 33 33 34 34 33 31 29 28 27 26 26 27 27 27 27 28
42 43 43 43 43 43 42 42 41 40 38 37 36 36 36 38 39 39 39 38 38 37 36 35 35 35 34 34 35 35 34 32 31 30 28 28 28 29 29 29 29 29
44 44 43 44 44 45 46 46 44 42 40 39 38 36 34 33 35 37 39 39 39 39 39 38 37 37 36 36 37 36 35 34 32 31 29 29 30 31 30 30 29 29

ECMWFNIL_500_spd_075.txt.gz
Wind_Speed
17 18 19 19 18 17 16 16 17 16 14 12 11 10 9 9 9 9 9 9 9 8 7 7 6 5 4 3 3 4 4 4 4 5 5 7 9 9 10 11 12 12
19 20 20 20 19 18 17 18 18 17 16 14 13 11 11 11 11 11 11 10 9 8 8 7 6 5 4 3 3 4 4 4 4 5 6 7 8 9 9 10 11 12
20 20 21 20 20 19 18 18 19 19 17 16 15 14 13 13 12 12 11 11 10 9 8 7 6 5 4 4 4 4 4 4 5 5 6 7 7 8 9 9 10 11
21 21 20 20 20 19 18 18 19 20 19 18 17 16 15 14 14 13 12 11 10 9 8 7 7 6 5 5 5 5 5 5 5 6 7 7 7 8 8 8 9 10
21 21 20 20 19 18 18 19 19 20 20 20 19 18 17 16 15 14 13 12 11 10 9 8 7 7 6 6 6 5 5 5 6 6 7 8 8 8 8 8 8 9
21 20 20 19 19 18 19 19 19 19 20 20 19 19 18 17 16 15 14 13 11 10 10 9 8 8 8 7 7 7 6 6 7 7 7 8 8 8 8 8 8 8
22 21 20 19 19 19 19 19 19 19 20 20 20 20 19 18 17 16 15 14 12 11 10 10 9 9 8 8 8 8 7 7 7 7 8 8 8 9 9 9 9 9
23 22 21 20 19 19 19 19 19 20 20 21 21 21 20 19 18 17 16 14 13 12 12 11 10 10 9 9 9 9 9 9 8 8 8 9 9 9 10 10 9 9
24 24 23 22 21 20 20 20 21 20 21 21 22 22 22 21 19 18 17 15 14 14 13 12 11 10 10 10 10 10 10 10 9 9 9 9 10 10 10 10 10 10
23 24 24 24 23 21 20 21 21 22 22 22 23 23 23 22 20 19 17 16 15 15 14 14 13 11 11 11 11 11 11 11 10 10 10 10 10 11 11 11 11 10
23 24 24 25 24 23 22 21 21 22 23 23 23 23 23 23 21 20 19 18 17 16 15 15 14 12 12 11 12 12 12 11 11 11 10 11 11 12 12 11 11 10
23 24 25 25 25 25 24 22 21 22 23 23 23 23 23 23 22 21 20 19 18 17 16 16 15 13 13 12 12 13 12 12 12 12 11 11 12 12 12 12 11 11
23 24 25 26 26 25 24 23 22 22 22 23 23 23 23 24 23 22 22 21 20 19 18 17 16 14 13 13 13 13 13 14 14 13 13 12 12 12 12 12 11 11
23 24 25 25 25 25 25 24 23 22 22 23 23 22 23 24 23 23 23 22 21 20 19 18 17 15 14 13 13 14 15 15 15 15 14 13 13 12 12 12 12 12
24 25 26 26 26 26 27 26 26 24 23 23 23 22 23 24 24 24 24 23 22 21 20 20 18 16 15 14 14 14 15 16 16 16 15 14 14 13 12 12 12 12
26 26 27 27 28 28 29 29 28 26 25 25 24 23 24 24 24 24 24 24 24 23 22 21 20 18 16 15 15 15 16 16 16 16 16 15 15 14 13 13 13 13
27 27 26 26 26 28 28 29 29 29 28 26 25 25 24 24 24 24 25 25 25 24 23 22 21 20 19 17 17 16 16 16 16 16 16 16 15 15 14 14 14 14
29 28 27 26 26 27 27 28 30 31 30 29 28 27 27 26 25 25 25 25 26 25 25 24 23 23 21 20 19 17 16 16 16 16 16 16 15 15 15 15 15 14
30 30 30 29 29 28 27 28 30 31 31 30 30 30 29 28 27 26 25 26 26 26 26 26 25 25 24 23 23 21 19 18 17 17 16 16 16 16 16 16 15 15
32 32 31 31 31 31 30 29 29 31 32 32 32 32 31 30 29 28 28 27 26 26 26 27 27 27 26 26 26 25 23 22 20 19 18 17 16 16 17 17 17 16
34 34 32 32 33 33 32 31 29 30 32 33 34 34 33 32 31 30 30 29 28 27 27 27 27 27 28 28 29 29 27 26 24 22 20 19 18 18 18 18 18 18
36 36 35 35 35 34 34 33 32 32 33 34 35 35 34 33 32 31 31 31 30 30 28 27 28 28 28 29 30 31 31 29 27 25 23 22 21 20 20 20 20 20
38 38 38 37 36 34 34 35 34 33 31 31 32 33 32 31 30 30 30 30 30 31 30 28 29 29 29 30 31 32 32 31 29 28 27 25 24 23 23 22 22 22
40 39 39 38 37 36 36 36 35 33 30 29 30 30 29 30 30 29 30 31 30 30 30 30 30 31 31 31 32 33 32 31 30 30 29 28 27 26 26 25 25 25
44 43 43 42 40 39 38 37 35 34 33 32 32 29 28 30 31 30 29 31 32 31 31 31 32 33 33 33 33 34 33 32 32 31 30 29 29 29 29 29 28 28
47 46 45 46 45 43 40 39 37 35 34 34 33 31 30 30 32 30 29 29 30 31 31 31 32 33 34 34 35 35 35 34 33 32 31 31 31 32 31 31 30 30

ECMWFNIL_500_spd_078.txt.gz
Wind_Speed
14 13 14 14 14 13 12 13 13 12 11 10 9 8 8 8 8 7 6 6 4 4 4 3 3 3 2 2 3 4 5 5 5 5 5 6 6 6 7 8 9 8
14 14 14 14 14 13 12 13 13 13 12 11 10 10 9 9 8 8 7 6 5 5 5 4 4 3 3 3 3 4 5 5 5 6 6 6 6 6 6 7 8 8
15 14 14 14 13 12 12 12 13 13 12 12 11 11 10 9 9 8 8 7 6 5 5 5 5 5 5 4 5 5 5 6 6 6 7 7 7 6 6 7 8 8
17 15 15 14 12 11 11 12 13 13 13 12 12 11 11 10 9 9 8 7 7 6 6 6 6 6 6 5 5 6 6 6 6 6 6 6 7 7 6 6 7 8
19 17 15 14 12 11 11 12 13 14 14 13 13 12 11 10 10 9 8 8 8 7 7 7 7 7 7 6 6 6 6 6 6 6 5 5 6 6 7 6 6 7
21 19 17 15 13 12 11 12 13 14 15 15 14 13 12 12 11 10 9 9 9 8 8 8 8 8 8 8 7 7 7 6 6 6 6 6 6 6 6 6 6 6
21 20 19 16 14 13 12 12 12 14 15 16 16 15 14 13 13 11 10 10 10 9 9 9 8 8 8 8 8 8 7 7 7 7 7 7 7 7 6 6 7 6
19 20 20 18 15 13 12 12 12 13 14 16 17 16 15 14 14 13 12 11 11 10 10 10 10 9 9 9 9 9 8 8 8 7 7 7 7 7 7 7 7 7
19 19 20 20 18 16 14 13 13 13 13 15 16 17 17 16 15 14 13 12 12 11 11 11 11 10 10 10 10 10 9 9 8 8 7 8 8 8 8 8 8 8
20 19 21 21 20 18 16 15 14 14 14 14 15 17 17 17 16 15 14 14 13 13 12 12 11 11 11 11 11 11 11 10 9 9 8 8 8 9 9 9 8 8
20 20 21 21 20 20 18 17 16 15 15 15 15 16 17 17 17 16 16 16 15 15 14 13 12 12 11 11 12 12 12 11 11 10 9 9 9 10 10 10 9 9
21 20 20 20 21 21 20 19 18 17 17 17 16 16 16 17 17 17 17 17 17 17 15 14 13 13 12 12 12 13 13 12 12 11 11 11 11 11 11 11 10 10
20 19 19 20 21 22 22 21 20 19 18 18 18 17 16 16 17 18 18 19 19 18 17 15 14 13 13 13 13 13 14 14 13 13 13 12 12 12 12 12 12 11
20 20 21 22 22 23 22 22 22 21 20 20 20 18 17 17 17 18 18 19 19 19 18 17 15 14 14 13 13 14 14 15 15 14 14 13 13 12 12 13 13 12
21 22 23 23 24 25 25 24 24 23 22 22 21 19 18 18 17 18 18 18 19 19 18 18 17 16 15 15 15 15 15 15 15 15 15 14 14 13 13 13 14 13
21 22 22 22 23 25 24 24 23 22 22 23 22 20 20 18 17 17 18 18 18 18 19 19 18 17 17 17 16 15 15 15 15 16 16 15 15 14 14 14 14 14
21 22 22 21 22 23 22 22 23 22 23 24 23 22 21 20 18 18 18 18 18 18 19 19 19 19 18 18 18 17 16 15 15 15 16 16 16 15 15 15 15 15
20 20 22 23 24 24 22 23 23 23 24 25 24 24 24 21 20 19 19 19 19 19 19 19 19 19 19 20 20 20 18 16 15 14 15 15 16 16 16 16 16 15
19 19 21 24 26 24 22 23 25 24 24 24 25 26 25 22 21 21 20 20 20 20 20 19 19 20 20 21 22 22 22 19 17 15 15 15 16 17 17 17 17 16
24 24 24 24 23 22 21 24 27 26 23 22 25 27 27 24 23 23 22 21 22 22 21 21 21 21 21 22 23 24 25 23 20 18 16 15 15 16 17 18 18 17
29 29 28 26 24 23 22 24 26 26 23 22 24 27 27 25 24 24 24 24 24 24 23 22 22 23 22 22 23 25 27 26 24 21 19 17 16 16 17 18 18 18
33 32 32 30 27 26 25 24 24 24 24 25 25 25 25 25 25 26 26 25 25 25 24 23 23 24 24 24 24 26 28 28 26 24 23 21 19 18 18 18 19 19
36 35 34 33 31 30 29 27 25 24 24 24 25 25 25 25 26 26 26 26 27 27 25 23 24 25 26 25 26 27 28 28 27 27 26 25 23 22 21 21 20 20
41 39 36 34 33 33 32 29 26 25 25 24 24 24 24 24 25 25 26 27 28 29 27 26 26 26 27 27 28 29 29 29 29 29 28 27 26 26 26 25 25 24
45 43 38 35 35 35 34 31 28 26 25 24 24 25 25 24 25 26 26 27 29 30 31 30 29 28 28 29 30 31 32 31 31 31 29 28 28 29 29 29 29 28
49 47 44 41 40 38 36 33 31 30 29 27 26 26 27 27 27 27 27 27 28 31 33 33 32 32 32 33 33 34 34 34 33 32 31 30 30 31 31 31 31 31

ECMWFNIL_500_spd_081.txt.gz
Wind_Speed
12 10 9 8 7 7 8 8 9 9 9 9 8 7 6 7 7 6 6 5 5 5 5 4 3 2 2 1 2 2 3 4 5 5 7 7 7 8 9 9 9 9
14 11 10 10 8 8 8 9 10 10 10 10 9 8 8 7 8 7 6 6 6 5 5 4 3 2 1 1 2 3 3 3 4 4 6 7 7 8 9 8 8 9
15 13 11 10 9 7 8 9 10 10 11 11 11 10 9 8 8 8 8 7 6 5 5 4 3 3 2 1 2 3 4 3 4 4 5 6 7 8 9 9 9 9
16 15 13 11 9 8 8 9 10 11 11 12 11 10 10 9 9 9 9 8 6 5 5 5 4 4 3 3 3 3 4 4 4 4 4 5 7 8 8 9 9 9
16 16 14 12 10 8 8 9 10 11 12 12 12 11 11 10 10 9 9 9 8 7 6 5 5 5 5 5 4 4 4 5 5 5 5 6 7 7 7 8 9 9
16 17 16 14 12 9 8 10 10 11 12 12 13 12 12 11 10 10 10 10 9 8 7 7 7 6 6 6 6 6 5 6 6 6 6 7 8 8 8 7 8 9
16 17 18 17 14 11 9 9 10 11 12 12 13 14 13 12 11 10 10 10 10 9 9 8 8 7 7 7 8 8 8 8 7 7 7 8 8 8 8 8 8 8
17 17 18 19 17 14 11 11 11 11 11 12 13 14 14 14 13 12 11 11 11 10 10 9 9 8 8 8 8 9 9 9 9 9 9 9 8 8 9 9 9 9
19 18 19 21 20 17 15 14 13 12 12 12 13 14 15 15 15 14 12 12 12 12 11 11 10 10 9 9 9 10 10 10 10 10 10 10 10 9 9 10 10 9
20 20 21 22 23 22 19 17 16 15 14 13 13 14 14 15 16 15 14 13 13 14 13 13 12 11 11 10 10 10 11 11 11 11 11 11 11 10 10 10 10 10
21 22 22 23 23 22 20 19 18 18 17 16 15 14 15 15 16 16 16 15 15 15 15 14 13 13 13 12 11 12 12 12 12 13 12 12 12 12 11 11 11 11
20 21 21 21 20 18 17 18 19 18 18 17 16 16 15 15 16 17 17 17 16 16 15 15 14 13 13 13 13 13 13 13 13 14 14 13 13 13 13 13 12 12
20 21 22 21 18 17 17 19 21 19 18 17 16 15 15 15 16 16 16 17 17 16 16 15 15 14 13 13 13 13 13 14 14 15 15 15 14 13 13 14 14 13
21 22 22 20 18 18 20 22 23 22 20 18 16 15 15 15 15 15 15 16 16 16 16 15 15 14 14 14 14 13 13 14 15 15 15 15 15 14 14 14 15 15
21 22 21 19 19 20 22 24 25 24 22 18 16 15 15 15 15 14 14 15 15 15 15 15 15 15 15 15 15 14 14 14 14 15 15 16 15 15 15 15 15 16
22 22 21 21 22 23 23 25 26 26 23 18 15 15 14 15 15 14 13 14 15 15 15 15 15 16 16 16 16 15 15 15 14 14 15 15 15 15 15 15 16 16
22 22 22 22 23 24 24 24 24 24 23 19 16 15 15 15 16 15 15 15 16 16 16 16 16 17 18 17 17 17 17 16 16 15 15 15 15 16 16 16 17 17
19 20 21 21 20 21 22 22 22 21 22 21 19 17 17 17 17 17 17 16 16 16 17 17 18 19 19 19 19 18 18 18 18 17 16 16 16 16 17 18 18 18
16 17 17 18 19 21 22 22 23 22 21 22 22 19 18 19 19 19 19 17 17 17 18 19 19 20 20 20 20 20 20 20 19 19 17 16 16 17 17 18 19 19
19 18 16 16 18 20 20 20 21 21 21 22 22 20 20 21 21 21 21 20 19 19 19 20 21 21 21 22 22 22 22 22 21 20 19 18 17 17 17 19 20 21
22 21 20 19 19 18 17 17 17 19 20 22 23 22 22 22 22 23 24 23 22 22 21 22 23 24 24 23 23 24 24 24 23 21 20 20 19 19 18 19 20 22
27 26 25 24 22 20 19 18 18 17 18 20 23 24 24 24 23 24 25 25 24 24 23 24 25 27 28 27 26 26 26 26 25 23 22 22 22 21 21 20 21 22
31 29 28 27 25 22 21 21 20 20 19 20 21 23 25 26 26 26 26 26 25 26 26 26 28 30 31 30 28 27 26 26 25 25 24 23 24 24 24 23 22 22
35 33 32 31 28 25 24 23 22 23 23 23 23 23 24 26 29 29 28 27 27 28 28 29 30 32 32 29 27 27 27 25 24 24 24 24 24 25 26 26 26 25
38 38 36 35 33 31 29 27 26 26 26 26 26 25 24 26 28 30 30 28 28 28 30 31 31 32 30 28 28 29 28 26 25 25 25 25 26 27 27 27 28 28
41 41 40 39 37 36 33 31 30 30 29 29 28 26 24 25 26 29 30 30 29 30 30 30 29 29 29 30 31 32 31 30 29 29 28 29 30 30 28 28 28 29

ECMWFNIL_500_spd_084.txt.gz
Wind_Speed
11 9 7 6 7 8 9 10 10 11 11 10 9 9 9 10 10 10 10 9 8 8 7 7 7 6 6 6 6 7 7 8 9 9 9 9 10 10 9 8 8 7
11 11 9 7 7 8 9 10 11 11 12 11 11 10 10 11 11 11 11 10 10 9 8 8 7 6 6 6 6 8 7 8 9 9 9 9 10 11 10 9 9 8
12 12 12 10 9 8 9 10 11 12 12 13 12 11 11 11 12 12 12 12 11 10 10 9 8 7 7 6 7 7 8 8 8 9 9 9 11 12 12 11 10 9
13 14 14 13 11 9 9 11 12 12 13 14 13 13 12 12 13 13 12 12 12 11 11 10 9 8 7 7 7 8 8 8 8 9 9 10 11 12 12 12 12 11
15 16 16 15 13 11 10 11 12 13 14 14 15 14 14 14 14 13 13 13 12 12 11 11 10 10 9 8 8 9 9 9 9 9 9 10 11 12 13 13 13 13
17 18 18 17 16 13 12 11 12 14 14 15 16 16 15 15 14 14 14 14 13 12 12 11 11 11 11 10 10 10 10 10 10 10 10 11 11 12 13 14 14 14
19 19 20 19 18 16 13 12 12 13 14 15 16 17 16 16 15 15 15 15 14 13 13 12 12 12 12 11 12 11 11 11 11 11 11 11 11 12 13 13 14 15
16 16 16 17 17 15 12 11 11 12 13 14 15 16 16 16 15 15 15 15 15 14 14 13 12 11 12 12 12 12 12 12 12 12 11 11 11 12 12 13 13 14
14 12 12 13 15 16 14 12 12 11 11 12 13 14 15 16 15 15 15 15 15 15 14 13 12 12 12 12 12 13 13 12 12 12 12 12 11 11 12 13 13 13
16 14 14 14 15 18 18 15 13 12 12 12 12 12 14 15 15 15 15 15 15 15 15 14 13 12 12 12 13 13 13 13 13 12 13 13 12 12 12 13 13 13
19 18 17 15 15 17 18 17 15 13 13 13 13 13 13 13 14 15 16 15 15 14 14 14 13 12 12 13 13 14 14 14 14 13 13 13 13 13 13 13 13 13
21 21 20 17 16 18 20 19 18 17 16 15 14 14 13 13 13 15 16 16 15 15 14 14 14 13 13 13 14 14 15 15 15 15 14 14 14 14 14 14 14 14
21 21 21 20 20 20 21 22 21 20 19 17 16 15 14 14 13 14 15 16 16 16 15 15 15 15 14 14 15 15 16 16 17 16 16 15 15 15 15 15 15 15
20 21 22 21 21 21 22 23 23 22 21 20 19 17 16 16 15 14 14 16 16 17 16 16 16 16 16 16 16 16 17 17 17 18 17 17 17 16 16 16 16 17
21 21 22 22 21 22 23 24 24 24 24 22 21 19 18 18 17 16 15 16 17 17 17 16 16 17 18 18 17 17 17 17 17 18 18 18 19 18 18 18 18 18
21 21 22 23 24 24 25 26 26 25 25 24 22 21 21 20 19 18 17 17 18 19 18 18 18 18 19 19 19 18 18 18 18 18 18 19 19 19 19 19 19 19
19 21 22 23 24 25 26 26 25 25 24 25 24 23 22 21 20 19 19 19 19 19 20 20 20 21 21 21 21 20 20 19 19 19 19 19 19 20 20 21 21 21
17 19 21 22 23 24 26 26 26 25 25 26 26 25 24 22 21 21 21 20 20 20 20 20 21 22 22 22 22 22 21 21 20 20 19 19 20 20 21 22 22 22
15 17 19 21 23 24 26 27 27 27 27 27 28 28 27 24 22 22 22 21 22 22 21 21 22 22 22 22 22 22 22 21 21 20 20 20 20 20 21 22 23 23
15 16 16 17 20 22 24 26 28 28 28 28 29 29 29 27 26 25 24 24 24 25 24 23 23 23 23 22 22 22 22 21 21 21 21 21 21 21 21 22 23 23
17 17 17 17 17 17 19 22 25 27 28 28 29 29 29 29 29 28 27 27 27 27 27 26 25 24 23 23 23 24 24 24 24 23 23 22 22 22 22 22 22 23
21 20 20 20 19 17 16 17 20 23 25 27 29 30 29 28 29 30 30 29 29 29 29 28 27 25 24 24 25 26 27 27 26 26 26 25 25 24 24 24 23 23
25 24 23 23 22 21 20 19 18 20 22 23 24 26 27 28 29 30 31 31 30 29 30 30 29 27 27 27 28 29 30 29 29 28 27 26 26 26 26 25 25 24
27 27 26 25 24 24 24 23 22 22 22 22 22 22 24 26 28 31 32 31 30 29 30 30 31 31 31 31 31 31 31 31 30 29 27 26 26 26 27 26 26 26
30 29 29 28 27 26 26 26 26 25 24 23 23 22 23 24 26 29 31 30 29 29 29 30 32 33 33 33 32 32 32 32 31 29 28 28 27 27 27 27 27 26
33 33 32 31 30 29 29 28 28 28 26 25 24 25 26 27 27 28 28 27 27 27 29 30 32 32 33 32 33 33 32 32 32 31 30 30 29 28 27 27 27 28

ECMWFNIL_500_spd_087.txt.gz
Wind_Speed
13 12 10 9 9 10 12 13 13 12 12 11 10 11 11 12 12 12 12 11 10 10 10 10 10 10 9 9 9 9 9 9 10 10 10 10 10 10 9 9 9 9
15 14 12 11 10 11 12 13 14 13 13 12 11 11 11 12 12 12 12 12 11 11 11 10 10 10 9 9 9 9 9 10 10 10 10 10 10 10 10 10 10 10
16 16 15 14 13 12 12 13 14 14 14 14 13 11 11 12 12 13 13 13 12 12 11 10 10 10 9 9 10 10 10 10 10 10 10 11 11 11 11 10 10 10
18 18 18 17 15 13 13 13 14 14 15 14 13 12 12 12 12 13 13 12 13 12 12 11 10 10 9 10 10 10 10 10 10 10 10 11 11 12 12 11 11 10
19 20 19 18 16 14 13 13 13 13 14 13 13 12 12 12 12 12 12 12 12 12 12 11 11 10 10 10 10 11 10 10 10 11 11 11 12 12 13 12 12 11
18 19 19 18 17 15 13 12 11 12 12 13 13 13 12 12 11 11 11 11 12 12 12 12 11 11 11 10 10 11 11 11 11 11 12 12 12 12 13 13 13 12
17 18 19 19 17 16 13 11 11 12 12 13 13 14 14 13 12 11 11 12 12 12 12 12 11 11 11 11 11 11 11 11 11 11 12 12 13 12 13 14 14 14
17 18 19 19 19 18 16 14 13 13 13 13 14 14 14 14 13 12 12 12 12 12 12 12 12 12 12 12 11 11 11 11 12 12 12 12 13 13 13 14 15 15
19 18 18 19 20 20 19 16 15 14 14 14 15 15 15 15 14 13 12 12 12 13 13 13 12 12 12 12 12 12 12 13 12 13 13 13 13 13 14 15 15 16
21 19 17 18 20 21 20 18 15 14 15 15 15 16 16 16 15 15 14 13 13 13 13 13 13 12 12 12 13 13 14 14 14 14 14 14 14 14 14 15 15 16
22 21 20 19 19 19 20 19 18 16 16 16 16 16 17 17 17 16 16 15 14 13 13 13 14 14 13 13 13 14 14 15 16 16 16 16 16 15 15 15 16 16
23 23 23 21 19 19 20 21 21 19 18 17 17 16 16 16 17 17 17 17 15 13 13 13 14 14 14 14 14 14 15 16 16 17 17 17 17 16 16 16 16 16
26 26 25 24 22 20 20 21 22 22 20 18 18 17 16 15 16 17 18 18 17 15 14 13 14 14 15 15 15 15 15 16 17 17 18 18 17 17 17 17 17 17
28 27 26 24 23 22 21 21 22 23 22 20 19 18 17 16 16 16 17 17 17 17 16 15 14 15 15 16 16 16 16 16 17 18 18 19 19 19 19 19 18 18
27 26 26 25 24 24 23 23 23 24 24 23 21 20 19 19 18 18 17 17 18 19 18 17 16 16 16 17 17 17 17 17 17 18 19 19 20 20 20 20 20 20
26 25 26 25 24 25 26 25 26 26 25 25 24 23 21 21 20 20 19 19 19 19 20 19 19 18 18 18 18 18 18 18 18 18 18 19 20 21 21 21 21 21
23 23 23 24 23 24 26 26 27 27 27 27 26 25 23 22 22 22 21 21 20 20 20 21 20 20 19 19 20 20 19 19 19 19 19 19 20 21 21 22 22 22
17 19 21 23 23 24 25 26 27 28 27 27 27 26 25 24 23 23 23 22 22 22 22 22 22 21 20 20 21 21 21 21 21 21 21 21 21 22 22 23 23 23
13 15 18 20 22 23 24 26 27 27 26 26 26 26 26 26 26 26 25 24 24 23 23 23 23 23 22 22 22 23 23 23 22 22 22 22 22 23 24 24 24 25
14 14 14 16 19 20 21 23 25 25 25 25 26 26 27 28 29 29 28 26 25 24 24 24 24 25 25 24 24 25 25 24 24 24 23 23 24 24 24 25 25 26
17 15 13 14 15 16 18 20 23 25 26 26 27 28 29 30 31 31 30 29 27 26 25 25 26 26 26 26 26 26 25 25 25 25 25 25 25 26 26 26 26 26
18 17 16 16 15 15 16 17 19 23 25 27 28 29 29 30 31 32 32 31 29 28 27 27 27 27 27 27 27 26 26 26 26 26 26 26 26 26 27 27 27 27
21 21 20 20 19 19 19 18 18 19 20 21 24 28 28 27 28 30 31 32 31 30 29 29 30 29 29 29 29 29 29 27 26 26 25 25 26 27 27 27 28 27
25 24 24 24 23 22 22 21 20 19 19 19 20 23 26 25 25 25 26 28 30 31 31 31 32 32 31 30 31 32 32 30 28 26 25 25 26 26 27 27 28 28
28 28 27 27 26 26 25 24 22 21 21 22 21 22 22 23 23 23 23 24 27 30 31 31 32 33 33 32 32 33 34 34 31 27 25 26 26 27 27 28 28 29
31 30 29 28 28 28 28 27 25 24 24 24 24 24 23 23 22 22 22 23 25 27 28 30 31 32 33 33 33 33 35 35 33 29 27 27 27 28 28 29 29 30

ECMWFNIL_500_spd_090.txt.gz
Wind_Speed
15 13 11 11 11 11 12 12 10 10 9 8 8 9 10 10 10 10 9 10 10 10 9 9 8 8 8 8 8 8 9 8 8 8 8 8 8 8 8 8 8 8
17 15 13 12 11 11 11 11 11 10 9 8 8 9 9 9 10 10 10 10 10 10 9 9 9 8 8 8 8 8 9 9 9 8 8 8 8 8 9 9 9 9
18 17 15 13 12 11 10 10 11 10 10 9 9 8 9 9 10 10 10 10 10 10 10 10 9 9 8 8 8 8 8 9 9 9 9 9 9 9 10 10 10 10
18 18 17 15 13 11 11 11 12 12 12 11 10 9 9 9 10 11 11 11 11 10 10 10 10 9 9 8 8 8 8 8 9 9 9 10 10 10 10 10 11 11
18 18 18 17 15 13 12 13 13 13 13 12 11 10 10 9 10 11 11 11 11 11 11 10 10 9 9 8 8 8 8 8 9 9 10 10 11 11 11 11 11 11
18 18 18 18 17 16 14 13 13 13 14 13 13 12 11 11 10 10 11 11 11 12 11 11 10 10 9 9 8 8 9 9 9 9 10 11 12 12 13 12 11 11
18 18 18 19 19 18 17 15 14 14 14 14 14 14 14 13 12 11 11 11 11 12 11 11 10 10 10 9 9 9 9 9 9 9 10 11 12 12 13 13 13 13
17 17 18 19 20 21 20 19 17 16 15 16 16 16 15 14 14 13 12 12 12 12 11 11 11 10 10 10 10 10 10 10 10 10 10 11 12 12 13 13 14 15
18 18 18 19 20 23 23 21 19 17 16 17 18 18 17 16 15 15 14 13 12 12 12 12 12 11 11 11 11 11 11 11 11 11 11 11 11 12 13 13 14 14
21 19 19 19 20 23 24 23 21 18 17 17 18 18 19 18 17 16 16 15 14 13 13 13 13 12 11 11 11 11 12 12 12 12 12 12 12 12 13 13 14 14
24 22 21 20 21 22 24 25 23 20 19 18 18 18 19 18 17 17 17 17 16 15 14 14 13 13 12 12 12 12 12 13 13 13 13 13 13 13 13 13 14 14
27 25 24 23 22 23 23 25 25 23 21 20 19 18 18 18 18 18 18 18 17 16 15 15 14 14 13 12 12 12 12 13 14 14 14 15 14 14 14 14 14 14
28 28 27 25 23 23 23 24 25 25 24 22 20 19 18 19 19 19 19 19 18 18 17 16 15 15 14 13 13 13 13 13 14 14 15 15 15 15 15 15 15 14
31 32 30 28 26 25 23 23 24 26 26 24 21 20 19 19 20 20 20 19 19 18 18 18 17 17 17 16 15 14 14 14 14 14 14 15 15 15 15 16 15 15
31 34 33 33 31 28 26 24 24 25 26 25 23 22 20 20 20 20 20 20 20 19 19 19 19 20 20 19 18 17 16 15 14 14 14 14 15 15 16 17 17 16
28 32 35 36 34 31 28 27 25 25 26 26 25 24 23 21 21 21 21 21 21 20 20 20 20 21 21 21 21 20 18 17 16 16 16 16 16 16 17 18 18 18
22 27 33 36 34 31 31 29 27 27 26 25 26 26 25 24 23 22 22 21 21 21 21 21 21 22 22 22 22 22 21 19 18 18 18 18 19 19 20 20 20 20
17 19 25 31 31 30 31 29 28 28 27 25 25 25 25 25 24 23 23 22 22 21 21 21 22 22 22 22 22 22 22 21 20 20 19 20 21 21 21 22 22 22
15 14 17 23 27 28 29 28 27 28 27 26 25 24 24 24 25 25 25 24 24 23 23 23 23 23 22 22 22 22 22 22 21 20 20 21 22 22 23 23 23 23
16 15 14 17 21 24 25 25 25 26 26 25 24 23 23 24 26 27 27 26 26 26 26 25 24 23 23 23 23 23 23 22 22 22 21 22 23 24 24 24 24 24
17 17 16 15 16 18 19 21 22 23 24 24 24 23 24 25 26 27 28 28 28 28 28 27 25 24 24 24 24 24 23 23 23 22 22 23 23 24 25 26 26 26
16 16 16 14 13 14 15 17 19 20 22 22 23 24 25 25 26 27 28 28 28 29 29 29 28 27 26 25 25 25 25 24 23 22 22 22 23 24 25 26 27 27
18 17 16 15 15 15 15 15 16 17 19 19 19 20 22 24 26 27 29 30 30 30 31 30 30 29 29 28 26 26 26 25 24 23 22 22 22 23 23 25 26 28
20 19 18 17 18 18 18 17 17 17 17 17 16 16 18 20 23 26 29 31 32 32 31 31 31 32 32 31 29 28 27 27 26 25 24 24 23 23 23 23 25 27
23 23 22 21 21 21 21 21 20 20 20 19 17 17 18 18 19 21 24 27 28 29 28 29 30 32 34 33 32 30 29 29 29 28 26 26 25 24 24 24 25 26
27 26 25 25 25 24 23 23 23 23 23 22 20 19 20 20 19 20 21 21 22 23 23 23 26 28 29 31 31 31 31 31 30 29 28 27 27 26 27 26 26 26

ECMWFNIL_500_spd_093.txt.gz
Wind_Speed
11 9 8 8 8 8 9 9 9 8 8 8 8 9 10 9 9 8 8 8 8 8 7 7 7 7 7 7 7 7 8 8 8 8 9 9 9 9 9 10 10 9
13 11 10 9 9 9 10 10 10 10 9 9 8 9 10 10 9 9 9 9 9 8 8 8 7 7 7 7 7 7 8 8 8 8 9 10 10 10 10 10 10 10
15 14 13 11 10 10 10 10 11 11 11 10 9 9 10 10 10 10 9 9 9 9 8 8 8 7 7 7 7 7 8 8 8 9 9 9 9 10 10 10 10 10
17 16 15 13 12 11 11 11 12 12 12 11 10 10 11 10 10 10 10 10 10 9 9 8 8 8 7 7 7 7 7 8 8 9 9 9 9 10 10 10 10 10
17 17 17 16 14 13 12 13 13 13 13 12 12 12 12 11 11 11 11 11 10 10 9 9 8 8 8 8 8 8 7 8 8 8 9 9 10 10 10 10 9 10
18 18 17 17 17 16 15 14 14 14 14 14 14 14 13 13 12 12 11 11 11 11 10 9 9 9 8 8 8 8 8 8 8 8 8 8 9 9 10 10 10 9
19 19 18 17 18 18 18 16 15 15 15 16 16 16 16 15 14 13 12 12 12 12 11 11 10 9 9 9 9 8 8 8 8 8 8 8 9 9 9 10 10 10
19 19 18 18 18 19 20 19 18 17 16 17 18 18 18 18 16 15 14 13 13 13 12 12 11 11 10 10 9 9 9 9 9 9 9 8 8 9 9 10 10 11
19 18 18 18 19 20 21 21 20 18 17 18 18 19 19 19 18 17 16 15 15 14 14 13 13 12 11 10 10 10 9 9 9 9 9 8 8 8 9 9 9 10
18 18 18 18 19 21 22 22 22 21 19 19 18 19 19 19 19 18 17 17 16 15 15 14 14 13 12 11 11 11 10 10 10 10 9 9 9 9 8 8 8 9
19 19 19 19 19 20 21 22 22 22 22 21 19 19 19 20 20 19 19 18 17 16 16 15 15 15 14 13 13 12 12 12 11 11 10 10 10 9 9 8 8 9
22 22 22 21 21 20 21 22 23 24 24 23 22 20 19 19 20 20 20 20 19 17 16 16 15 16 16 16 15 15 14 13 13 12 11 10 10 10 10 9 9 10
26 24 23 24 23 22 22 22 23 24 25 25 24 22 21 20 21 21 22 21 20 19 18 17 17 17 17 17 17 17 16 16 15 13 12 11 11 11 11 11 11 11
28 27 26 26 25 25 25 24 23 23 24 25 26 25 24 22 21 21 22 23 22 21 20 19 18 18 19 19 19 19 18 18 17 15 14 13 12 12 12 13 13 13
27 28 29 29 28 29 29 27 25 24 24 25 26 27 26 24 22 21 22 23 23 22 21 20 20 20 20 20 20 20 19 19 18 17 17 16 15 14 15 15 15 14
27 28 30 29 31 33 33 31 29 27 26 25 26 28 28 26 23 22 22 23 23 22 22 21 21 22 21 21 21 20 20 19 19 18 18 18 18 17 17 17 17 16
26 27 28 28 28 32 34 35 32 29 28 27 26 27 28 28 26 23 22 23 22 22 22 22 22 22 22 22 22 21 21 20 20 19 19 20 20 20 19 19 18 17
24 25 25 24 24 25 30 36 35 31 30 29 27 26 27 28 27 25 23 23 23 22 22 22 22 22 22 22 22 21 21 21 21 21 20 21 21 21 21 20 18 18
21 21 21 20 20 20 23 31 35 34 32 30 28 27 27 28 28 27 25 25 25 24 23 22 21 21 21 21 21 21 21 21 22 22 21 22 22 22 22 21 20 19
20 20 20 19 18 18 19 24 30 33 33 31 29 28 28 28 28 27 26 26 27 26 25 23 21 21 21 21 21 21 21 21 22 23 23 23 23 23 23 23 23 22
20 20 20 19 18 18 18 19 24 29 31 30 29 29 29 29 28 26 25 26 27 28 26 24 23 23 23 22 22 21 21 21 22 23 23 24 24 24 24 24 24 24
21 21 20 19 19 20 20 19 21 25 28 28 28 29 29 28 27 26 25 25 26 27 27 26 26 26 26 25 24 22 22 21 22 22 23 24 24 24 24 24 25 25
23 23 21 18 17 18 19 17 17 20 23 24 25 26 26 27 26 26 25 25 25 26 27 27 27 27 27 26 25 25 25 24 24 24 24 24 23 23 24 24 24 24
24 24 23 19 15 14 14 13 12 14 17 19 21 22 23 23 25 25 25 25 26 27 27 27 27 27 27 26 26 27 27 27 27 26 25 25 25 25 24 24 25 25
28 26 25 24 21 18 16 15 14 15 16 18 19 19 20 20 21 22 22 23 25 26 27 27 28 28 28 28 28 29 29 29 29 28 27 27 27 27 27 26 27 27
30 28 27 28 27 24 20 18 18 18 19 20 20 19 19 17 17 18 20 21 21 21 23 24 25 27 28 29 29 29 28 29 30 30 29 29 30 30 30 29 29 29

ECMWFNIL_500_spd_096.txt.gz
Wind_Speed
12 12 12 12 13 13 12 11 10 9 8 8 8 8 8 8 7 7 7 6 7 6 6 6 5 5 5 6 6 7 8 8 8 9 9 9 9 9 9 10 10 9
13 12 12 12 12 12 12 12 12 11 10 9 8 8 9 9 8 8 8 7 7 7 7 6 6 5 6 6 7 7 8 8 8 9 10 10 9 9 9 10 9 9
15 13 12 11 11 11 12 13 13 12 11 10 10 10 10 10 10 9 9 8 8 8 8 7 7 6 6 6 7 7 8 9 9 9 10 10 9 9 9 9 9 9
17 15 14 12 11 11 12 12 13 13 12 11 11 11 11 11 11 11 10 10 9 9 9 8 8 8 7 7 7 7 7 8 9 10 10 10 9 9 9 9 9 9
18 17 16 14 13 12 12 12 13 13 13 13 13 12 12 12 13 12 12 11 11 10 10 9 9 9 8 8 7 7 7 8 9 9 10 10 10 10 9 9 9 8
19 18 18 17 17 15 14 13 13 14 14 14 15 14 14 14 13 13 13 13 12 12 12 11 10 10 9 9 8 7 7 7 8 8 9 9 10 10 10 10 10 9
20 20 19 19 19 18 17 15 14 14 15 15 16 16 15 15 14 14 14 13 13 13 13 13 12 11 10 10 9 8 7 7 8 8 8 8 9 9 10 11 11 10
21 20 19 19 19 19 19 18 16 15 14 15 16 16 16 16 15 14 14 14 14 14 14 14 13 13 12 11 10 9 9 8 8 8 8 8 9 9 9 10 10 10
21 21 20 19 19 20 20 20 19 17 15 15 15 16 16 16 16 15 15 15 15 15 15 15 15 14 13 12 12 11 10 9 9 9 9 9 9 9 9 9 10 10
20 20 21 21 21 21 21 21 20 19 18 17 16 15 16 16 17 16 16 16 16 16 16 16 16 15 15 14 13 12 11 11 10 10 9 9 9 9 9 9 9 9
19 19 20 21 21 22 22 21 20 20 20 19 18 17 16 16 17 17 17 17 17 17 16 16 16 17 16 16 15 14 13 12 11 10 9 9 9 10 10 9 9 10
19 19 19 19 19 19 19 19 19 20 21 21 20 19 17 17 17 18 18 19 18 18 18 17 17 17 17 17 16 15 14 13 11 10 10 10 10 11 11 11 11 11
21 21 20 19 19 20 19 19 19 19 20 21 21 22 21 20 19 19 19 20 20 20 19 19 18 18 18 18 17 16 15 14 13 12 11 11 11 12 12 12 13 13
24 24 23 23 23 23 22 21 21 21 21 21 22 23 23 23 21 20 20 20 21 21 21 20 20 20 19 18 17 17 16 15 14 14 13 13 13 13 13 14 14 14
26 27 27 27 27 27 25 23 23 23 23 23 23 24 24 25 24 23 21 20 21 22 22 21 21 21 20 20 19 18 17 16 16 15 15 15 14 14 14 14 14 15
26 27 28 28 28 28 27 26 26 27 27 27 26 26 26 25 25 25 24 22 22 22 22 22 22 21 21 21 21 19 18 17 17 16 16 15 15 15 15 15 15 14
27 28 28 27 26 25 26 27 27 28 30 31 31 29 27 26 26 26 26 25 23 22 22 21 21 21 22 22 21 21 20 19 18 18 17 16 16 16 16 16 16 15
28 28 28 27 26 25 26 26 26 27 29 33 35 33 30 28 27 25 26 27 26 24 23 22 21 21 22 22 22 21 21 21 20 19 18 18 18 18 17 17 17 17
26 26 26 27 27 26 25 25 24 25 26 29 33 36 34 31 29 27 26 28 28 27 25 22 21 22 22 22 21 21 21 21 21 20 20 19 19 19 19 19 19 19
24 23 24 25 25 24 24 23 22 22 23 26 30 34 36 34 31 29 27 28 29 28 26 23 22 23 22 21 21 21 21 22 21 21 21 20 20 20 20 20 20 20
24 22 22 23 24 24 23 23 21 21 22 25 27 30 35 37 34 30 29 29 29 29 27 25 25 25 23 22 22 22 22 22 22 22 22 22 21 21 21 21 21 21
23 23 22 22 23 24 24 23 22 21 22 23 23 26 31 36 35 32 30 30 30 29 27 26 27 27 26 25 24 24 24 24 24 24 24 23 23 23 23 23 22 22
24 24 23 22 23 24 23 23 23 23 22 22 23 24 27 32 34 32 31 30 30 29 27 25 26 29 29 28 27 27 27 27 26 26 25 25 25 25 24 24 23 23
25 25 25 25 25 25 23 21 21 21 21 22 23 23 24 28 31 31 30 29 29 28 26 24 26 28 29 29 29 29 29 29 29 29 28 28 27 26 26 25 24 24
29 28 28 27 28 27 25 21 19 17 16 17 18 19 22 25 28 29 29 28 28 28 27 26 26 28 29 29 29 29 29 30 31 30 29 29 29 29 28 27 25 26
29 29 28 27 27 27 26 24 21 19 18 16 14 15 18 21 23 25 26 27 28 28 27 26 27 28 28 29 29 29 29 30 30 30 29 30 30 30 30 30 29 28

ECMWFNIL_500_spd_102.txt.gz
Wind_Speed
9 9 9 10 10 8 7 6 5 4 4 4 4 4 3 3 3 3 2 2 2 2 2 2 2 2 2 3 4 4 4 3 4 4 4 4 4 4 4 4 5 6
11 11 10 11 10 8 7 7 6 5 5 6 6 4 4 4 4 4 3 3 3 2 2 2 2 2 2 3 3 4 4 4 5 5 5 6 6 6 6 6 6 6
12 12 11 11 9 8 8 8 8 7 7 7 7 5 5 5 5 5 4 4 3 3 3 3 3 2 2 3 3 4 5 5 5 5 6 7 7 7 7 7 7 7
13 12 12 11 9 7 8 9 9 9 9 8 8 7 8 7 7 6 5 5 5 4 4 4 3 3 3 3 4 5 5 6 6 6 6 6 6 7 8 8 8 8
15 14 13 11 10 9 9 10 10 10 10 10 10 10 10 9 9 7 7 7 6 5 5 5 4 4 4 4 4 5 6 6 6 7 7 7 7 7 8 8 8 8
17 16 15 14 13 12 11 11 11 10 10 11 11 11 11 11 10 9 9 8 7 6 6 6 6 5 5 5 5 5 6 6 6 6 7 8 8 8 9 9 8 8
18 18 17 17 17 15 14 13 12 11 10 11 11 12 12 11 11 10 10 9 9 8 7 7 7 6 6 6 6 6 7 7 7 6 6 7 8 8 9 9 9 9
19 18 18 19 19 18 17 16 15 13 11 11 11 11 11 12 12 11 10 10 11 10 10 9 8 8 7 7 7 7 7 7 7 7 7 7 7 8 8 9 10 10
20 19 20 21 21 20 20 19 17 16 15 13 12 11 11 12 12 12 12 12 12 12 11 11 11 10 9 9 9 8 8 8 8 8 8 7 8 8 8 9 9 10
20 21 21 22 22 22 21 20 19 18 17 17 15 14 13 12 12 12 13 13 13 13 13 12 12 12 11 11 10 10 9 9 9 9 8 9 9 8 8 9 9 10
21 21 22 22 23 23 22 21 21 20 19 18 18 17 16 14 13 13 13 13 13 14 14 13 13 13 13 12 12 12 11 11 11 11 10 10 10 9 9 9 10 10
21 21 22 22 23 23 23 22 21 20 20 19 19 18 17 16 15 15 14 13 13 14 14 15 15 15 14 14 14 13 13 13 12 11 11 11 11 11 10 10 11 11
21 21 21 21 21 22 23 22 22 21 20 19 18 18 17 17 16 16 16 15 15 14 15 16 16 16 16 15 15 15 14 14 14 13 13 12 12 12 12 11 12 12
22 22 21 21 21 21 21 21 20 20 19 18 17 16 16 16 16 17 17 17 17 17 17 16 16 17 17 17 16 16 16 16 15 15 15 14 14 14 13 12 13 13
23 22 21 21 21 20 19 19 18 18 18 17 17 16 16 16 16 16 17 18 18 18 19 18 18 18 18 18 18 17 18 17 17 16 16 16 16 15 14 14 14 13
25 24 23 22 22 21 19 19 19 18 18 18 18 18 18 18 18 18 18 19 19 19 19 20 21 20 19 18 19 19 20 19 19 18 18 18 17 16 15 15 15 14
27 26 25 24 24 23 22 21 21 20 20 20 21 21 20 20 21 21 22 22 22 22 21 20 21 23 23 21 20 20 21 21 20 20 20 19 18 17 17 16 16 16
29 29 28 27 27 26 25 24 24 23 23 23 24 24 23 24 25 25 25 25 25 26 25 22 22 25 25 24 23 21 21 21 22 22 22 21 21 20 18 17 17 17
31 32 32 30 29 28 28 27 26 25 25 25 24 24 24 25 26 26 26 27 27 27 27 25 25 26 26 25 25 24 22 23 23 24 23 23 23 22 19 18 18 18
35 35 35 33 31 31 31 30 28 27 27 26 25 25 25 25 26 26 26 27 28 28 28 28 28 27 27 27 27 26 25 24 24 24 23 23 23 22 20 20 21 21
38 37 37 36 34 33 34 33 31 30 29 28 28 28 29 30 29 28 27 28 28 28 29 30 30 29 29 29 29 28 27 27 25 24 23 23 23 23 22 22 22 21
40 39 40 39 37 36 36 35 33 32 31 30 31 32 33 33 31 29 27 27 27 28 28 28 29 31 32 31 31 30 29 29 27 25 23 23 23 22 22 22 22 21
40 38 39 38 37 37 37 35 34 33 31 29 29 29 30 29 29 28 26 26 28 29 30 31 31 32 32 32 33 32 31 30 29 27 25 24 22 22 22 21 21 22
32 31 31 32 31 32 33 32 31 31 28 26 25 25 24 25 26 25 24 26 28 30 31 34 35 34 33 33 35 34 32 30 30 29 27 25 23 23 23 22 22 23
23 24 25 25 24 25 25 24 25 25 23 22 22 21 21 22 22 21 21 25 28 29 30 34 37 37 34 33 35 36 33 30 30 29 27 26 26 26 25 24 24 24
21 22 24 24 22 22 22 23 23 21 20 19 18 17 17 17 16 18 22 26 27 27 28 31 34 35 32 29 31 34 33 30 30 30 29 27 27 28 28 27 27 27

ECMWFNIL_500_spd_105.txt.gz
Wind_Speed
6 5 6 6 6 5 3 3 3 3 4 4 3 4 4 4 4 4 3 3 3 2 2 2 2 1 1 2 2 2 2 2 2 2 2 1 1 0 1 1 1 1
7 6 7 6 6 5 5 5 5 5 5 5 4 4 4 4 4 4 3 3 3 3 2 2 2 1 1 1 1 1 2 2 2 2 2 2 1 1 2 1 1 1
8 8 8 7 6 6 6 7 7 7 6 6 5 5 4 4 4 4 4 3 3 3 3 3 2 2 2 1 2 2 2 2 3 3 3 3 2 1 2 2 1 2
10 10 9 8 8 8 8 8 9 9 8 8 7 6 6 5 5 5 4 4 4 4 3 3 3 3 2 2 2 3 3 3 3 4 4 3 3 3 3 3 2 2
12 11 11 10 10 9 9 9 9 10 10 10 9 8 7 7 6 5 5 4 4 4 4 4 4 4 3 3 3 4 3 3 3 4 4 4 4 4 4 4 3 3
14 14 13 12 12 11 10 10 10 10 11 11 11 10 8 8 8 7 7 6 5 6 5 5 5 5 5 5 5 5 5 5 4 4 4 4 4 4 5 5 4 4
16 16 15 15 14 14 13 12 12 11 10 10 10 10 10 10 9 9 9 9 8 8 7 7 7 7 6 6 6 6 5 6 5 5 5 4 5 5 5 5 5 4
17 16 16 16 16 16 16 16 15 13 11 10 10 10 10 11 11 11 11 11 11 11 10 9 9 8 8 7 7 6 6 7 7 6 6 5 6 6 6 6 5 5
17 17 17 17 17 17 17 18 17 16 15 13 12 11 10 11 11 12 12 12 12 12 12 12 11 10 9 8 8 8 8 8 8 7 7 6 6 7 7 7 7 6
18 18 18 18 18 18 19 19 19 19 18 17 15 14 12 12 12 12 13 13 13 13 13 13 13 13 12 11 10 10 10 10 9 9 8 8 8 8 8 8 8 7
18 19 19 19 19 19 20 20 20 20 19 19 18 17 16 15 14 13 13 14 14 15 14 14 14 14 14 13 13 12 12 12 11 11 10 10 9 9 9 9 8 8
17 18 19 19 19 19 20 20 21 21 21 20 20 19 18 17 16 16 15 15 14 15 15 15 15 15 15 15 14 14 14 13 13 13 12 12 11 11 10 10 9 9
17 18 19 19 19 19 20 20 20 21 21 21 21 20 19 19 18 18 17 16 16 15 15 15 15 15 16 15 15 15 15 15 15 15 14 14 13 13 12 11 11 10
18 18 19 19 19 19 20 20 20 20 21 21 21 21 20 19 19 18 17 17 16 16 16 16 15 15 15 15 16 17 17 17 16 16 17 16 16 15 13 12 13 11
20 20 21 20 20 20 20 20 20 20 20 20 21 22 21 19 18 17 17 16 16 16 16 16 15 16 17 16 17 18 19 19 18 18 18 18 18 16 14 13 14 13
20 20 21 21 20 21 21 21 20 19 19 20 21 22 21 19 18 18 16 14 14 15 15 15 16 18 19 19 19 20 20 20 21 21 20 20 20 18 15 15 15 16
21 22 22 21 20 20 21 21 21 20 20 21 21 21 20 19 19 19 17 15 16 17 17 17 18 19 20 21 22 22 21 21 22 23 22 22 21 19 17 17 17 19
25 24 25 24 23 22 22 22 23 23 22 21 21 21 21 21 21 21 19 19 19 19 19 20 20 20 21 22 24 24 23 22 22 23 24 24 23 21 20 20 21 21
28 27 27 28 28 27 25 25 25 26 25 24 24 23 23 24 24 24 23 23 23 21 22 23 23 23 23 23 24 26 27 25 25 24 24 24 23 23 23 24 24 24
30 30 31 32 32 31 30 28 28 28 28 27 27 26 26 26 26 26 25 25 23 23 23 25 26 26 25 25 26 28 29 28 27 26 26 24 24 25 26 26 26 25
33 33 33 34 35 35 33 32 31 31 30 30 30 29 28 28 27 27 27 26 27 28 28 27 27 28 28 27 26 28 30 31 29 27 27 27 26 25 26 27 27 27
34 35 36 38 38 38 37 35 34 33 33 33 33 33 32 31 30 30 30 30 31 33 32 31 30 30 31 29 26 26 29 31 30 29 29 29 29 28 27 26 27 27
28 30 33 37 41 42 40 38 37 36 36 36 36 36 35 35 34 33 34 34 35 34 34 34 34 32 32 30 27 26 28 29 30 31 31 30 31 30 29 27 27 28
23 23 25 29 36 41 42 41 40 39 39 39 39 39 39 39 38 37 37 37 36 35 35 35 34 33 32 32 30 30 30 31 31 32 33 33 33 33 31 29 28 28
21 20 20 21 25 31 38 42 43 42 41 41 41 42 41 41 40 39 37 35 33 33 33 33 32 31 30 30 30 30 31 32 33 34 33 34 35 34 32 30 29 28
19 19 19 19 19 21 26 31 35 37 38 39 39 40 39 39 39 38 36 33 32 32 32 31 30 29 29 29 29 30 31 32 34 35 35 34 36 36 34 32 31 29

ECMWFNIL_500_spd_108.txt.gz
Wind_Speed
8 7 7 7 7 6 5 5 5 5 6 6 5 5 5 5 5 5 5 5 5 5 5 4 5 5 5 5 5 5 5 4 4 4 4 4 5 5 5 5 5 5
7 7 7 7 7 7 7 6 6 6 6 6 6 5 6 5 5 5 5 5 5 6 6 5 5 4 4 4 4 4 4 4 4 4 3 4 4 5 4 4 4 4
8 8 8 7 7 8 8 8 7 6 6 6 6 6 6 6 6 5 5 5 5 5 6 6 5 5 4 4 4 3 3 3 3 3 3 3 3 4 4 4 4 4
10 9 9 9 9 9 9 8 8 7 7 7 7 7 7 7 6 6 6 6 6 6 6 6 6 5 5 5 5 4 4 4 3 3 3 3 3 4 4 4 4 5
11 10 10 10 10 10 9 9 9 9 9 9 9 8 8 8 8 8 8 7 7 7 7 6 6 6 6 6 5 5 5 4 3 3 4 4 4 4 4 4 5 5
12 12 11 11 11 11 10 10 9 9 9 10 10 10 10 10 10 10 10 9 9 8 8 8 8 7 7 7 6 6 6 5 5 5 5 5 4 4 5 5 5 6
14 13 13 13 13 12 11 11 10 10 10 10 10 11 11 12 12 12 12 11 11 11 10 10 10 9 9 8 8 7 7 6 6 6 6 6 5 5 5 5 5 6
16 15 15 15 15 14 14 13 12 11 10 10 10 11 11 12 13 13 14 14 13 13 12 12 11 11 10 10 9 9 8 7 7 7 7 7 7 6 6 5 5 5
17 17 17 17 17 17 16 16 15 14 13 12 12 11 11 12 13 14 15 15 14 14 14 14 14 13 12 11 11 10 9 9 9 8 8 8 8 7 7 6 5 4
19 19 18 18 19 18 18 18 17 17 16 15 15 14 13 12 12 13 14 15 15 15 15 15 15 15 14 13 12 12 11 10 10 9 9 9 9 8 7 6 5 5
20 20 19 20 20 19 19 19 19 19 18 18 17 16 16 15 15 15 15 15 15 15 15 16 16 16 15 15 15 14 13 13 13 12 11 11 10 9 8 6 6 6
21 21 21 20 21 21 21 20 20 20 19 18 18 17 17 17 18 18 18 17 15 15 15 15 16 16 16 16 16 16 16 15 15 14 14 12 10 10 10 9 9 9
20 21 21 20 20 20 20 20 20 20 19 19 19 18 18 18 18 19 19 19 18 17 16 15 15 16 16 17 17 17 17 17 17 17 15 13 12 13 14 13 12 11
18 18 18 18 17 17 18 18 18 18 19 19 19 19 19 19 19 19 19 19 19 19 18 17 16 17 17 17 17 17 18 18 18 18 16 14 15 17 17 16 15 14
17 18 17 16 15 15 16 17 17 17 17 18 18 19 19 19 20 20 19 19 19 18 18 18 18 19 19 18 18 18 18 18 19 19 18 17 17 19 19 19 19 19
19 18 17 16 15 15 17 17 17 17 17 17 17 18 19 19 19 20 19 18 17 17 16 17 18 19 19 19 19 19 19 19 19 19 19 18 19 19 20 21 21 22
22 21 19 18 17 16 17 18 18 18 18 18 18 18 18 18 18 19 19 18 18 17 17 17 17 18 18 18 19 19 20 21 21 21 20 20 20 21 22 23 23 23
25 24 21 20 18 17 18 19 19 19 20 20 19 19 19 18 18 19 19 19 19 18 18 18 18 17 18 18 19 19 19 20 22 23 22 22 22 22 23 24 25 25
26 24 23 22 21 20 21 21 22 22 22 22 22 22 21 20 20 20 20 20 20 19 19 19 19 19 20 21 21 21 21 21 22 23 24 25 25 25 25 26 27 27
26 25 25 25 25 24 24 25 25 26 26 26 25 25 24 24 23 22 22 22 21 21 21 21 21 21 22 24 25 25 24 24 24 25 26 27 27 27 28 28 29 29
25 26 26 26 26 26 27 27 28 29 31 31 29 28 28 28 26 25 25 25 24 24 23 23 23 23 24 26 29 30 28 26 26 27 28 28 28 29 30 30 31 30
26 27 27 28 28 29 29 29 29 32 35 35 34 32 32 31 29 28 28 28 27 26 26 26 27 26 28 31 34 34 34 32 30 29 29 30 30 30 31 32 32 32
28 30 30 30 30 31 32 32 33 36 39 38 37 36 35 34 32 31 31 31 30 29 29 29 30 30 33 37 38 37 37 35 34 32 31 32 31 31 31 33 34 34
27 28 28 27 26 27 29 31 34 38 40 41 41 40 38 37 36 34 34 33 32 32 32 33 34 34 36 39 40 39 38 36 35 35 33 33 33 32 32 33 34 35
24 25 26 25 24 23 23 24 27 30 34 39 42 43 41 40 38 37 37 36 35 36 37 39 39 39 39 41 42 42 41 39 39 38 36 35 35 35 35 35 35 36
21 22 23 23 23 23 22 21 21 23 25 30 35 38 40 40 39 39 39 39 38 38 39 40 40 40 39 39 40 40 40 40 41 40 39 38 37 37 37 36 35 36

ECMWFNIL_500_spd_111.txt.gz
Wind_Speed
12 12 11 11 10 9 7 6 5 5 5 5 4 4 3 3 3 3 2 2 2 3 3 5 6 6 6 6 6 6 7 7 7 7 7 7 7 7 7 7 7 6
12 12 11 11 10 9 8 7 6 6 5 5 4 3 4 4 4 4 3 3 3 3 3 4 4 5 5 6 7 7 7 7 7 7 7 7 7 8 7 7 6 6
12 12 11 11 11 10 9 8 7 7 6 6 5 4 5 5 5 5 5 5 4 4 4 4 4 5 5 6 6 6 7 7 7 7 7 7 8 8 8 7 7 7
12 12 11 11 11 10 9 9 8 8 8 7 6 6 6 6 6 6 6 6 6 6 6 5 5 5 5 5 6 6 6 6 6 7 7 7 7 8 7 7 7 7
13 12 12 11 11 10 10 9 9 9 9 8 8 8 8 8 8 8 8 7 7 7 7 6 6 6 6 6 6 6 6 6 5 6 6 7 7 7 6 7 7 7
13 13 12 12 12 11 11 10 10 10 10 10 10 10 10 10 10 10 9 9 8 8 8 7 7 7 7 7 6 6 7 6 6 6 6 6 6 6 6 7 7 7
15 14 14 13 13 12 12 12 11 11 11 11 11 11 11 11 11 11 11 11 10 10 9 9 9 9 8 8 8 8 8 8 8 7 7 6 6 6 6 6 7 7
18 16 16 15 15 14 13 13 12 12 11 11 11 11 12 12 12 12 12 12 12 12 11 11 11 10 10 10 10 9 9 9 9 8 8 7 7 7 6 6 7 7
20 19 18 18 17 16 16 15 14 14 13 12 12 11 11 11 11 12 12 13 13 13 13 13 13 13 12 11 11 10 10 10 10 9 8 9 8 8 7 8 8 8
23 22 21 21 20 19 19 18 17 16 16 15 14 13 13 12 12 12 12 12 13 13 14 14 15 14 14 14 13 12 12 11 11 10 10 10 9 9 9 9 9 9
24 24 24 23 23 22 20 19 18 18 17 17 16 16 15 15 14 14 13 13 12 12 13 14 15 15 16 15 15 14 14 14 13 13 12 11 11 11 11 11 11 11
26 25 25 25 24 22 21 20 19 18 17 17 17 17 17 17 17 16 16 16 15 14 13 14 14 15 16 16 17 17 16 16 16 15 14 14 14 14 13 13 13 13
27 26 26 25 24 22 21 19 18 17 17 17 18 18 18 18 18 18 18 18 18 17 16 16 15 15 16 17 18 18 17 17 17 16 16 16 16 16 15 15 15 15
26 26 26 25 24 23 21 20 19 18 18 18 18 18 18 18 18 19 20 20 19 19 18 18 18 18 18 18 18 18 17 18 18 17 17 18 18 17 17 17 18 18
24 25 25 24 23 23 22 21 21 20 19 19 19 19 18 18 19 20 20 20 20 19 19 19 19 20 20 20 19 19 18 18 17 17 17 18 18 18 18 19 20 21
24 23 24 24 23 22 22 21 20 20 20 19 19 18 18 18 18 19 19 20 20 20 19 20 20 21 21 21 20 20 20 19 18 17 17 18 18 18 19 20 21 21
25 24 23 22 22 21 20 19 19 19 19 19 18 17 17 17 18 18 19 19 19 19 19 20 21 21 21 20 19 19 18 18 18 17 17 18 19 20 20 21 21 22
27 25 23 23 22 21 20 19 19 19 19 19 18 17 17 17 17 17 18 18 19 19 19 20 20 20 20 20 18 17 16 17 17 17 17 18 19 20 21 22 23 23
30 27 25 25 24 23 22 21 20 19 19 19 19 18 17 17 16 16 17 18 19 19 19 20 20 21 21 20 20 19 18 18 19 19 20 20 21 22 22 23 25 26
30 28 26 25 25 25 25 23 22 20 19 20 20 19 19 18 17 17 17 18 20 20 21 21 21 22 22 22 22 22 23 22 22 21 22 22 23 24 25 26 26 27
29 28 26 26 26 26 27 25 24 23 22 23 23 23 22 22 21 20 20 20 21 22 23 24 24 24 24 25 26 26 26 25 24 25 26 26 26 27 27 28 28 28
31 29 27 26 26 26 26 26 26 26 26 27 27 27 26 26 25 25 25 25 25 25 26 27 28 28 28 28 28 28 29 28 27 28 30 31 30 30 31 32 32 32
29 28 26 24 24 24 25 26 26 27 28 29 30 30 30 30 30 28 29 30 29 29 30 30 30 30 30 30 30 30 31 30 29 30 32 34 34 34 34 34 35 35
22 23 23 23 23 23 25 27 27 27 27 28 29 30 32 33 33 31 32 33 32 32 34 34 33 32 32 33 34 33 33 32 32 33 35 36 37 37 37 37 37 37
20 22 23 23 24 24 25 26 27 28 28 28 28 29 30 33 34 33 34 35 35 36 37 37 36 35 34 35 35 35 36 36 37 37 38 38 38 39 39 39 39 40
21 22 23 24 23 22 22 23 24 26 28 27 27 27 26 27 29 31 32 34 35 37 39 39 38 37 36 36 36 36 37 38 39 41 41 40 39 39 39 39 40 42

ECMWFNIL_500_spd_114.txt.gz
Wind_Speed
11 10 9 9 8 7 7 6 6 6 6 5 6 6 6 5 5 5 5 5 5 4 4 4 4 4 4 4 4 4 4 4 4 4 5 5 6 7 7 7 7 7
12 11 10 10 9 8 7 7 7 7 6 6 5 5 5 6 6 6 5 5 4 4 4 4 4 4 4 4 4 5 4 5 5 5 6 6 7 8 8 8 8 8
13 12 11 10 10 9 9 8 8 7 7 7 6 5 5 5 5 5 5 5 4 4 4 4 4 4 4 5 5 5 5 5 6 6 7 8 8 9 10 9 9 9
14 13 12 12 11 11 10 10 9 8 8 7 7 6 6 6 5 5 5 5 4 4 4 4 4 4 4 5 5 5 5 6 6 7 7 8 9 9 10 10 10 10
15 15 14 14 13 13 12 12 11 10 9 8 8 7 7 7 6 5 5 5 4 4 5 5 5 5 5 5 5 6 6 6 6 7 7 8 8 9 9 9 9 9
17 17 17 16 16 15 14 13 12 11 11 10 9 9 8 8 7 6 6 6 6 6 5 5 5 6 6 5 6 6 6 7 7 8 7 7 7 8 8 9 9 9
19 19 19 18 18 17 16 15 14 13 12 12 11 10 10 9 9 8 8 8 8 8 7 7 7 7 6 6 7 7 7 8 8 8 8 7 7 7 8 8 9 9
21 20 20 19 18 17 17 16 15 14 14 12 11 11 11 11 10 10 10 10 10 10 10 9 9 9 8 8 9 9 9 9 9 9 8 8 8 8 8 9 9 9
22 21 20 20 19 18 17 17 16 15 14 13 12 12 12 11 11 11 11 12 12 12 12 12 12 11 11 11 11 11 11 10 10 10 10 9 9 9 9 9 9 10
24 23 22 21 21 20 19 18 17 16 15 14 13 13 13 12 11 11 12 12 13 13 13 14 14 14 13 13 13 13 13 12 12 11 11 11 11 10 10 10 10 10
27 25 24 24 23 22 21 21 19 18 17 16 15 15 14 14 13 13 13 12 12 13 13 13 14 14 14 14 15 15 15 14 14 13 12 12 12 12 11 11 11 11
29 28 27 27 26 25 24 23 21 20 19 18 18 17 16 16 16 16 16 15 14 13 13 13 13 13 14 14 15 16 16 16 15 15 15 15 15 14 14 13 13 13
30 30 29 29 28 27 25 24 22 21 21 20 19 18 18 18 19 19 18 17 17 16 16 15 14 14 14 15 15 15 15 16 15 15 16 16 16 15 15 16 16 16
29 29 30 30 29 27 25 23 23 22 22 21 20 20 20 20 20 19 19 19 19 19 18 17 17 16 16 16 16 15 15 15 15 15 15 16 16 15 16 16 17 17
27 29 29 29 28 27 25 24 23 23 23 22 22 22 22 22 21 20 20 20 20 20 19 18 18 19 19 18 18 17 16 16 15 15 15 15 15 15 15 16 17 18
26 28 29 29 28 27 26 25 24 23 23 23 23 23 23 22 22 21 20 20 20 19 19 19 20 21 21 20 19 18 18 17 16 16 15 15 15 16 16 17 17 18
26 27 27 27 27 27 26 25 24 23 22 22 22 22 22 22 22 21 20 20 20 19 19 20 21 22 22 21 20 19 18 17 17 15 14 14 15 16 17 17 18 18
28 28 28 27 26 26 25 24 23 22 21 21 21 21 21 21 21 21 21 20 20 19 19 20 20 22 22 22 21 19 18 17 15 14 13 14 15 16 17 17 17 18
30 29 28 27 26 24 24 23 22 21 21 21 20 20 20 21 22 22 21 20 20 19 19 19 19 20 21 22 21 20 18 16 16 16 16 16 17 18 19 19 19 19
34 30 28 28 26 24 23 22 21 21 20 20 20 21 21 22 22 21 21 21 21 20 19 19 19 19 20 21 21 20 19 18 18 19 19 19 20 21 22 22 21 20
37 33 29 29 28 26 24 22 22 21 21 21 22 22 21 22 22 23 23 23 22 21 21 21 20 20 20 20 21 21 21 21 22 22 22 22 23 24 25 25 24 24
38 35 32 30 29 28 26 23 22 23 24 26 26 25 24 24 25 27 27 26 24 24 24 24 22 22 22 22 23 23 24 24 24 25 25 25 27 28 28 28 29 28
36 35 33 31 29 28 26 24 24 26 28 29 29 29 28 28 28 30 30 29 29 29 29 29 27 26 26 26 26 26 26 26 27 28 29 29 30 30 30 30 30 31
34 34 33 32 31 29 28 26 27 29 29 30 31 30 29 29 29 31 31 31 31 32 32 32 31 30 30 30 30 29 29 29 29 30 31 32 32 32 33 32 32 33
28 31 32 32 32 31 30 29 29 29 28 29 29 29 29 28 28 28 28 28 29 30 30 31 31 32 32 33 33 32 32 32 32 33 33 33 34 34 35 35 35 36
19 22 24 23 23 24 25 24 25 26 26 27 28 28 28 27 27 27 26 26 26 27 27 28 28 29 31 33 34 35 35 35 35 35 34 35 35 36 37 37 36 37

ECMWFNIL_500_spd_117.txt.gz
Wind_Speed
11 11 10 10 10 10 10 9 8 8 7 7 7 7 7 8 8 7 7 7 7 7 7 7 6 6 6 5 5 5 4 4 4 4 4 4 4 4 5 5 5 5
12 12 11 11 11 10 9 9 8 8 7 7 7 6 6 7 8 7 7 7 6 7 7 7 7 7 7 6 6 6 5 5 5 5 5 5 5 5 5 6 6 6
14 14 13 12 11 10 9 9 8 7 7 7 7 6 6 6 7 7 7 7 6 7 7 7 7 7 7 7 6 6 6 6 6 6 6 6 6 6 7 7 7 8
16 15 14 13 12 12 11 10 9 8 7 7 7 7 7 7 7 7 7 6 6 6 7 6 6 7 7 6 6 6 6 6 6 6 6 7 7 7 7 8 8 9
17 16 15 14 14 13 13 12 10 9 8 8 8 8 8 8 8 7 7 7 6 6 6 6 7 7 7 6 6 6 6 6 6 6 6 7 7 7 8 8 9 9
17 17 16 15 15 14 14 13 12 11 10 10 10 9 9 9 9 8 8 8 8 7 7 7 7 7 7 7 7 6 6 7 7 7 7 7 7 8 8 9 9 9
18 18 17 17 16 16 15 14 14 14 13 12 12 11 10 10 9 9 9 9 9 8 8 8 8 8 8 8 8 7 7 8 8 7 7 7 8 9 9 9 9 9
20 19 18 18 18 17 16 16 16 15 15 15 14 13 12 12 11 11 10 11 10 10 10 10 10 9 9 9 9 9 9 9 9 9 8 9 9 10 10 9 9 9
21 20 20 19 19 19 18 18 18 17 16 16 15 14 14 13 13 12 12 12 12 12 12 12 11 11 11 10 10 11 11 11 10 10 10 10 10 10 10 10 9 10
23 22 21 21 21 20 20 19 19 18 18 18 17 16 15 15 14 14 14 14 13 13 13 13 13 13 13 12 12 12 12 12 12 11 11 11 11 11 11 10 10 10
24 23 23 23 23 22 21 20 20 20 19 19 18 17 16 16 15 15 14 14 14 13 13 14 14 14 15 14 14 14 14 13 13 13 13 13 12 12 12 11 11 11
26 26 25 25 25 24 23 22 21 21 20 20 19 18 18 18 17 16 16 15 15 14 14 14 14 15 15 15 15 14 14 13 13 13 14 14 14 14 13 13 13 13
27 28 28 27 27 26 25 23 22 22 22 21 21 20 20 20 20 20 19 18 17 16 16 16 16 16 16 16 15 15 14 13 13 13 14 14 15 15 15 15 15 15
30 30 31 30 29 28 26 25 24 24 24 24 23 23 23 23 23 23 22 22 21 20 19 19 19 19 19 19 18 17 15 14 13 13 14 15 15 15 16 16 16 16
31 31 32 32 32 30 29 27 27 27 27 26 26 25 25 25 25 25 24 24 23 23 22 21 21 21 22 21 21 20 19 17 16 16 16 16 16 16 16 16 16 16
30 30 31 32 33 32 31 30 29 29 28 28 28 27 27 26 26 25 25 25 25 24 23 23 23 23 23 23 22 22 21 20 19 18 18 18 18 17 17 17 17 16
28 27 28 29 30 31 31 31 30 30 30 29 29 28 27 26 25 25 25 25 25 25 24 24 24 24 24 24 23 22 21 21 20 20 20 20 20 19 19 19 18 18
29 27 26 27 27 28 30 31 31 30 30 29 28 28 27 26 25 26 27 27 26 26 25 24 23 23 23 23 23 22 22 21 21 20 20 21 21 21 20 20 19 18
34 30 27 27 27 26 26 28 29 29 29 28 28 28 27 25 25 26 28 28 27 26 25 23 22 22 22 21 21 21 21 21 21 20 20 20 21 21 21 21 20 19
38 35 32 31 30 28 27 26 26 27 29 29 29 29 28 26 26 27 28 28 26 25 23 22 21 21 21 21 20 20 20 20 20 20 20 21 22 22 23 22 22 21
38 37 37 37 35 33 32 29 27 27 29 29 28 28 28 28 29 29 28 26 24 22 21 21 21 21 21 21 20 20 20 20 20 21 21 22 22 23 24 24 24 24
41 40 41 41 39 37 36 34 31 30 30 28 27 28 29 30 29 28 27 25 23 22 23 23 23 22 22 21 21 21 22 22 22 22 22 22 23 24 25 26 27 27
44 42 43 42 39 39 38 37 35 34 31 29 30 31 31 31 30 29 28 26 25 25 25 25 25 24 24 24 24 25 25 25 24 24 24 24 25 25 27 28 29 30
48 45 46 46 43 41 41 38 35 34 33 33 34 35 34 33 32 31 30 29 28 28 28 28 28 28 28 28 28 29 30 30 30 29 28 28 27 28 29 30 31 31
50 47 45 45 45 43 41 39 37 35 34 34 36 37 36 34 33 32 32 32 31 30 30 30 30 30 31 31 31 31 32 33 33 33 33 32 31 31 31 32 33 34
43 44 42 42 42 40 37 36 37 37 36 35 36 38 37 35 33 32 32 32 31 29 29 28 28 28 28 28 28 29 29 29 31 33 34 34 34 34 34 35 36 37

ECMWFNIL_500_spd_120.txt.gz
Wind_Speed
14 13 13 12 11 10 10 9 8 8 8 8 8 8 8 8 8 7 7 7 6 6 5 5 5 4 4 4 3 3 3 3 3 3 3 3 3 2 2 2 2 3
14 14 13 12 11 11 10 10 9 9 9 9 8 8 8 8 8 8 8 8 7 7 7 7 6 6 6 5 5 4 4 4 4 4 4 4 4 3 3 3 3 3
15 14 13 12 11 11 11 11 10 10 10 10 10 9 9 9 8 8 8 8 8 8 8 8 8 8 8 7 7 7 6 6 6 6 5 5 5 5 4 5 5 4
15 14 13 12 11 11 12 12 11 11 11 11 11 11 10 10 10 9 9 9 9 9 9 9 9 9 9 9 8 8 8 8 8 7 7 6 6 5 5 5 5 5
14 14 13 13 12 12 13 12 11 11 10 11 11 11 11 10 11 11 11 11 10 10 9 9 9 9 9 9 9 9 9 8 8 8 7 7 7 6 5 5 5 5
14 14 14 14 14 14 14 13 12 11 11 11 11 11 11 11 11 11 11 12 11 11 11 10 10 10 10 10 9 9 9 9 9 8 8 8 7 7 6 6 6 5
16 15 15 15 15 15 15 14 14 13 12 12 12 12 12 11 11 11 12 12 12 12 12 11 11 11 11 11 10 10 10 10 9 9 9 8 8 8 7 6 6 6
17 17 17 17 17 17 16 16 15 15 14 14 13 13 12 12 12 12 12 12 13 13 12 12 11 11 11 11 11 11 11 11 10 10 9 9 9 9 8 8 7 7
19 18 18 18 18 18 18 17 17 16 16 16 15 15 14 13 13 13 13 14 14 14 13 13 13 12 12 12 12 12 12 11 11 11 11 11 11 10 9 9 8 8
20 20 19 20 20 20 20 19 19 18 18 17 17 16 16 15 15 15 15 15 15 15 15 14 14 14 14 14 14 14 14 13 13 12 12 12 12 11 11 10 9 9
22 21 21 21 22 22 21 21 21 20 20 19 18 18 17 17 17 17 17 17 17 16 16 16 16 16 16 15 15 16 15 15 15 14 14 14 14 13 12 11 11 11
24 23 23 23 24 24 23 23 23 22 22 21 20 19 19 18 18 18 18 17 17 17 17 16 16 16 16 16 16 16 16 16 16 15 15 16 16 15 15 14 14 13
26 26 26 26 26 26 25 25 24 24 24 23 21 21 20 20 20 19 19 19 18 18 18 17 17 17 16 16 15 15 15 15 15 16 16 17 17 18 17 17 17 17
30 29 29 29 29 29 28 27 26 26 26 25 24 23 23 22 21 21 21 20 20 20 19 19 19 18 18 18 16 16 15 14 15 16 16 17 18 19 19 19 19 19
32 32 32 32 32 31 30 29 29 28 28 27 27 26 25 25 24 23 23 22 22 22 22 22 21 19 20 21 20 18 17 16 17 17 17 18 19 19 20 20 19 19
33 33 32 32 33 32 32 31 30 29 29 29 29 28 27 26 26 25 25 25 25 25 25 24 23 21 23 24 23 21 20 19 20 21 20 21 21 20 22 22 20 19
32 32 31 31 31 31 31 31 31 30 30 30 30 30 29 28 28 27 28 28 27 27 27 25 24 24 26 26 25 24 23 22 23 23 23 24 23 22 24 24 22 22
30 29 29 28 27 28 30 31 31 30 31 31 31 31 31 30 30 29 30 30 29 29 29 26 25 26 26 26 25 25 25 24 24 24 24 24 24 24 25 25 24 23
29 28 27 26 27 28 30 31 30 29 29 30 32 32 33 33 32 31 31 31 30 31 30 27 26 27 26 26 26 26 25 25 25 24 25 25 25 25 25 25 24 24
32 31 29 28 29 30 30 31 31 29 29 30 32 33 32 32 32 32 32 32 31 31 30 28 28 28 26 26 26 26 25 25 24 24 24 24 24 24 25 25 24 24
34 34 32 31 31 31 32 33 33 33 31 31 31 32 32 30 30 32 33 33 32 32 30 28 27 27 27 26 26 25 25 24 23 23 23 23 23 23 23 24 25 24
37 38 37 34 34 34 35 35 35 36 36 34 32 32 32 31 29 30 32 33 33 32 30 28 28 27 26 25 25 24 24 24 24 24 24 24 23 21 21 23 26 26
38 41 42 40 39 38 38 37 37 39 41 40 37 36 35 33 32 31 32 33 33 32 30 29 28 27 26 25 25 25 25 26 26 26 26 26 24 23 23 25 27 27
38 40 43 45 45 42 41 42 42 44 45 44 42 40 37 36 35 35 35 35 34 33 31 29 29 28 27 27 26 27 27 28 28 29 29 29 28 28 28 29 30 29
37 38 40 44 46 46 46 47 46 46 46 45 44 42 38 37 37 38 39 38 35 33 31 30 29 30 30 29 29 29 30 31 32 32 32 32 32 32 33 33 34 33
31 36 38 39 41 44 48 49 49 50 49 47 44 41 38 38 40 40 40 39 36 34 32 32 32 32 32 32 32 32 33 33 33 34 33 33 33 33 33 33 34 34

ECMWFNIL_500_spd_123.txt.gz
Wind_Speed
11 12 11 10 10 9 9 9 9 8 8 8 7 7 7 6 6 5 5 4 4 3 3 3 3 3 3 3 3 3 2 2 2 2 2 1 1 1 2 2 2 3
11 11 10 10 9 9 9 8 8 8 8 7 7 7 7 7 7 6 6 5 5 4 4 4 3 3 3 3 2 2 2 2 2 2 2 2 2 2 3 3 4 4
12 11 10 10 9 9 9 9 8 8 7 7 7 7 7 7 7 7 7 7 6 6 5 5 5 4 4 4 3 3 3 2 3 2 2 2 3 3 4 4 4 4
12 12 11 11 10 10 10 10 9 8 8 8 8 8 8 8 8 8 8 8 7 7 7 6 6 6 5 5 5 5 4 4 4 4 3 3 3 3 4 4 4 5
13 12 12 11 11 11 11 11 10 9 9 9 9 9 9 9 9 9 9 8 8 7 7 7 7 6 6 6 6 6 6 6 6 5 4 4 4 4 4 4 4 4
13 13 13 13 12 12 12 12 11 10 10 10 10 10 10 10 10 10 10 10 9 8 8 7 8 8 7 7 8 7 7 7 7 7 6 6 6 5 5 5 5 5
15 15 15 14 14 14 14 13 12 12 11 11 11 11 11 11 11 11 11 11 10 10 10 10 9 9 9 9 9 9 9 9 9 9 8 8 8 7 6 6 6 6
17 17 16 16 16 16 15 15 14 14 13 13 12 12 11 11 11 11 12 12 12 12 12 12 11 11 11 11 11 11 10 10 10 9 9 9 9 9 9 8 8 8
18 18 18 17 17 17 17 17 16 16 15 15 14 13 12 12 12 12 12 12 13 13 13 13 12 12 12 12 12 12 11 11 11 11 11 11 11 11 11 10 10 10
19 19 19 18 18 18 18 18 18 17 17 16 16 15 14 14 13 13 13 13 13 13 14 14 13 13 13 13 13 13 13 13 12 12 12 12 12 12 12 12 12 12
20 20 20 19 19 19 19 19 19 18 18 18 18 17 16 16 16 16 15 15 14 14 15 15 15 15 15 14 14 14 14 14 14 14 14 14 13 13 14 14 13 13
22 22 22 21 21 21 21 20 20 19 19 19 19 19 18 18 18 17 17 16 16 15 16 16 16 16 16 16 15 15 15 15 15 15 15 15 15 15 15 15 14 14
25 24 24 24 23 23 23 22 22 22 21 20 20 20 20 20 20 19 18 17 17 16 16 16 16 16 16 16 16 17 16 16 17 17 16 15 16 16 16 16 16 15
27 26 25 25 25 25 25 24 24 24 23 22 21 22 22 22 21 20 19 18 18 18 17 17 17 18 18 18 18 18 18 18 18 18 17 16 16 16 16 16 16 15
28 27 26 26 26 25 25 24 24 24 24 24 23 24 24 23 22 21 20 19 19 19 18 18 19 19 20 21 20 20 20 20 20 20 20 19 18 19 18 17 16 16
28 27 27 27 26 24 23 23 24 25 25 24 24 25 25 24 24 24 23 22 21 21 21 21 21 22 24 24 23 22 22 22 22 22 22 21 20 21 20 20 20 20
29 29 28 27 26 24 24 24 25 26 26 26 25 26 26 26 26 26 25 24 23 23 24 24 24 26 27 27 25 24 24 24 25 25 24 23 23 24 22 22 23 23
30 29 28 28 27 26 26 26 27 28 29 28 27 26 27 28 28 28 28 28 27 26 26 25 26 28 29 29 28 27 26 26 27 27 27 26 26 26 25 25 25 25
29 28 28 28 27 27 27 28 29 30 30 30 29 29 29 29 29 29 29 30 30 28 27 27 29 30 30 29 28 28 28 28 27 27 27 27 27 27 27 27 27 27
29 28 27 26 27 27 27 28 28 28 29 30 29 30 29 29 29 30 30 31 31 30 29 30 32 32 32 31 30 30 29 29 28 27 27 27 27 26 26 27 28 28
29 27 26 26 26 26 26 27 28 28 29 29 29 30 30 29 29 30 29 30 30 30 30 32 33 34 34 34 33 32 31 30 29 28 28 27 27 26 26 27 28 28
29 28 28 27 27 27 27 29 30 30 30 31 32 33 32 31 31 32 30 29 29 29 30 32 35 37 36 35 35 34 33 31 30 29 28 28 27 27 28 28 29 29
30 29 29 30 29 29 31 32 33 33 34 35 36 37 37 35 34 33 32 31 31 30 30 32 36 37 36 34 34 34 33 32 30 29 29 29 29 29 30 30 30 29
31 32 33 33 33 35 37 37 37 38 38 38 38 39 40 38 36 35 35 35 35 33 32 34 37 37 35 34 34 34 34 33 33 32 31 30 31 31 31 31 30 30
34 36 37 38 38 39 40 41 41 42 43 43 43 43 42 40 38 36 35 37 38 38 37 38 39 39 37 35 33 34 35 35 35 34 33 33 32 32 33 33 32 32
36 36 36 37 38 37 38 40 41 41 42 44 45 45 45 44 42 39 38 38 40 42 43 42 42 41 39 36 34 35 36 37 37 36 35 35 35 35 35 35 35 35

ECMWFNIL_500_spd_126.txt.gz
Wind_Speed
9 8 8 7 7 6 6 5 5 5 5 4 4 4 4 4 4 4 4 5 5 5 4 4 4 4 3 3 2 2 2 2 1 1 1 1 2 2 3 4 4 5
9 9 8 8 7 7 7 6 6 5 5 5 4 3 3 3 3 3 3 3 3 3 4 3 3 3 2 2 2 1 1 1 1 1 1 1 2 3 3 4 4 5
10 10 9 9 8 8 8 7 6 6 6 5 5 4 4 3 3 2 2 2 2 2 2 2 2 1 1 1 1 0 0 1 1 1 2 2 2 3 3 3 4 4
11 10 10 10 9 9 9 8 7 7 6 6 5 5 4 4 3 3 3 2 2 2 2 1 1 1 1 1 2 2 2 3 3 3 3 3 3 3 3 3 3 3
11 11 10 10 10 10 9 9 8 8 7 6 6 5 5 4 4 4 3 3 2 2 2 2 2 2 2 2 3 2 3 3 3 3 4 4 4 4 4 4 4 4
13 12 12 11 11 11 10 10 9 9 8 8 7 6 6 6 5 5 4 4 4 3 3 4 4 3 3 3 4 4 4 4 4 4 5 5 4 5 5 5 4 5
15 14 13 13 13 12 11 10 10 10 9 9 8 7 7 7 6 6 6 5 6 5 5 6 6 5 5 5 6 6 6 6 6 6 6 6 6 6 6 6 6 7
17 16 15 15 14 13 12 12 11 11 10 9 8 7 7 7 7 7 7 7 7 7 7 8 8 8 7 8 8 8 7 7 7 7 7 8 8 8 8 7 7 8
18 18 17 17 16 15 14 14 13 12 11 10 10 8 8 8 8 8 8 8 9 8 9 10 10 10 9 10 10 9 8 8 8 9 9 9 10 9 9 9 9 9
19 19 19 18 17 16 16 15 14 13 13 12 11 10 10 10 10 9 9 10 10 10 10 10 11 11 11 12 12 11 10 10 10 11 11 11 12 11 11 11 11 11
20 20 19 19 18 17 17 16 15 14 14 14 13 12 12 12 12 12 12 13 13 12 12 12 12 13 13 14 13 13 12 12 13 13 13 13 14 14 13 13 13 12
21 20 19 19 19 18 17 17 16 15 16 15 14 14 14 14 15 14 14 15 15 14 14 15 15 15 15 16 15 14 15 15 15 15 15 15 15 16 16 15 15 14
21 21 20 19 19 18 17 17 17 16 16 16 15 16 16 15 16 16 16 16 16 16 16 17 16 16 17 17 16 15 16 16 16 16 16 16 16 17 17 17 17 16
21 20 20 19 19 18 17 17 16 16 16 16 16 17 17 17 17 17 17 18 18 17 18 18 17 17 18 19 17 16 17 17 17 17 17 17 18 18 18 18 18 18
21 20 19 19 18 17 17 17 17 17 17 16 17 17 18 18 18 18 18 19 20 19 18 18 18 19 20 19 18 18 18 18 18 18 19 19 19 20 20 20 20 21
22 21 20 18 18 18 19 19 19 19 18 18 18 18 18 19 19 19 20 20 20 19 19 20 21 22 22 21 20 20 20 19 20 20 21 22 22 21 22 22 23 24
24 22 21 19 19 20 21 22 21 21 20 20 20 20 20 20 20 21 22 21 21 21 22 22 22 23 24 24 23 23 22 22 22 22 23 24 24 24 24 25 26 27
26 24 22 22 22 22 23 24 24 24 24 23 22 22 22 22 22 22 22 23 24 24 23 24 24 25 26 26 26 26 25 25 25 25 25 26 26 26 26 27 28 29
26 24 23 23 24 24 24 26 26 26 26 26 25 25 25 24 25 24 24 24 24 24 25 26 26 27 27 28 28 28 28 27 26 26 26 27 27 27 27 28 29 30
27 26 26 26 26 26 26 27 28 28 28 28 27 27 27 26 27 26 25 24 23 24 28 29 27 28 29 30 30 30 30 30 29 28 28 28 27 27 28 30 31 30
31 30 29 29 28 28 26 26 29 30 29 29 29 29 28 27 26 25 24 24 25 27 30 31 29 29 31 32 32 32 31 31 31 31 31 30 29 28 29 31 32 32
33 31 31 30 28 27 26 26 29 30 29 29 30 30 28 27 26 26 25 25 27 28 30 31 31 32 33 33 32 32 32 32 32 32 32 32 31 30 32 33 33 33
32 30 29 28 28 28 27 27 28 29 29 30 30 30 29 27 28 29 28 28 29 30 31 31 32 35 36 35 34 33 33 34 35 34 34 33 33 33 34 35 34 33
31 30 28 27 29 30 29 28 29 30 30 30 30 31 30 29 30 32 33 33 33 34 34 34 34 37 39 38 37 36 35 35 35 34 33 33 34 34 35 35 34 34
30 31 29 29 32 32 31 31 32 32 33 33 33 34 34 34 34 35 37 38 38 38 38 37 37 40 41 41 41 39 38 36 35 34 33 34 35 36 36 36 35 35
32 33 31 31 33 32 31 33 34 34 35 36 36 38 39 37 36 37 38 39 41 42 43 42 43 43 42 42 43 42 40 39 38 36 36 36 37 37 37 37 36 36

ECMWFNIL_500_spd_129.txt.gz
Wind_Speed
8 8 8 8 7 7 7 7 7 7 7 7 6 6 6 6 5 6 6 6 6 6 6 6 6 5 5 5 5 4 4 4 4 3 3 3 3 2 2 1 1 1
9 9 8 8 7 7 7 7 7 6 6 6 6 6 6 6 5 5 5 5 4 4 5 5 4 4 4 3 3 3 3 3 3 3 2 2 2 1 1 1 2 2
9 9 8 8 7 7 7 7 6 6 6 6 6 6 5 5 6 5 5 4 4 3 3 3 3 3 3 3 3 2 2 2 2 2 2 2 3 3 3 3 3 4
9 9 9 8 8 8 7 7 6 6 5 5 5 5 4 4 4 5 5 4 3 3 3 3 3 3 3 3 2 2 2 2 2 2 3 3 3 4 4 5 5 5
9 9 9 8 8 7 7 6 6 5 5 5 4 4 4 4 3 3 3 3 3 3 3 3 3 3 3 2 2 3 2 2 2 2 3 3 3 4 4 5 5 5
10 10 10 9 9 8 7 7 6 5 5 5 4 4 4 4 3 3 2 3 3 3 3 3 3 3 2 2 2 2 3 3 3 3 3 3 4 5 5 6 7 7
12 12 11 10 10 9 8 8 7 7 6 6 5 4 4 3 3 3 3 3 4 4 4 4 4 3 3 3 3 4 5 5 4 4 5 5 5 5 6 6 7 7
14 13 12 12 11 10 10 9 8 8 7 7 6 5 4 4 4 5 5 5 5 5 6 5 5 5 5 5 5 6 7 6 6 6 6 7 6 6 7 7 7 8
16 15 14 14 13 12 12 11 10 9 8 7 7 6 6 5 5 6 7 7 7 7 7 7 7 7 7 7 7 7 8 8 8 8 8 8 9 9 9 9 9 10
17 16 16 15 15 14 13 12 11 10 9 9 8 8 8 8 8 8 8 8 7 7 7 7 8 8 8 8 9 9 9 9 10 10 10 11 11 11 11 11 11 12
19 19 18 17 17 16 15 14 13 12 12 12 11 10 10 10 10 10 9 9 9 9 9 9 9 10 10 10 11 11 11 12 12 12 12 13 13 13 14 14 14 14
20 20 20 19 19 18 17 16 15 14 14 14 13 12 12 12 12 12 11 11 11 11 11 11 11 12 12 13 13 13 13 13 14 14 14 14 14 15 15 15 16 16
21 21 21 20 20 19 18 17 16 15 15 15 15 14 14 13 14 13 13 13 13 12 13 13 13 14 15 15 15 15 15 15 15 15 15 15 15 15 16 16 16 17
23 22 21 20 19 18 17 17 17 17 17 17 17 16 15 14 15 14 14 15 14 14 15 14 14 16 17 16 15 16 16 16 17 16 16 16 16 16 17 17 17 17
24 22 21 20 19 19 18 18 18 18 19 19 18 18 16 15 16 15 15 16 16 17 17 15 15 16 17 17 16 16 17 17 17 18 18 18 18 18 18 18 19 19
24 23 22 21 20 20 19 20 21 20 20 19 19 19 17 16 17 17 17 18 17 18 18 18 18 18 17 17 18 18 19 19 19 19 20 20 20 20 20 20 21 21
25 23 23 22 21 21 21 22 22 20 19 19 19 20 19 17 18 18 18 19 18 18 19 20 20 21 20 19 19 20 21 22 21 22 22 21 21 21 22 23 24 23
26 24 23 22 22 22 22 22 21 20 20 20 21 22 21 20 20 20 20 20 20 20 20 21 22 23 23 22 21 22 23 24 24 24 24 23 22 23 24 25 25 25
27 26 24 23 22 22 22 22 22 23 23 24 24 23 21 21 22 22 23 22 22 22 22 23 24 25 25 25 24 25 26 25 25 25 25 24 24 25 26 27 26 26
29 28 25 23 22 22 23 24 24 25 26 26 25 23 20 21 23 24 25 25 25 25 25 26 26 27 27 27 27 29 29 27 25 25 26 26 27 28 29 29 28 27
31 33 31 28 25 24 24 25 26 26 27 26 25 24 23 23 24 25 26 26 27 28 28 27 28 29 29 29 29 30 30 29 28 27 28 28 28 29 30 30 30 30
33 36 35 31 28 26 25 25 26 26 27 26 26 26 26 26 25 24 25 26 28 29 28 28 28 29 30 30 29 30 31 30 30 31 31 31 30 30 30 31 31 32
35 36 35 32 29 28 27 27 27 28 27 27 27 28 28 28 27 24 23 25 27 28 27 27 28 30 31 31 31 31 32 32 33 34 34 34 34 33 32 32 32 33
36 35 35 33 30 30 29 28 29 29 28 28 28 29 28 28 27 25 25 27 29 29 29 29 31 32 33 34 34 34 35 35 36 36 37 37 36 36 35 35 35 35
37 34 33 32 30 29 29 29 30 30 30 29 30 30 29 29 29 28 28 31 32 32 32 32 33 34 36 37 38 39 40 40 40 40 41 40 39 39 39 38 37 37
32 32 33 32 30 28 29 31 31 32 32 32 32 32 31 30 29 30 32 33 33 34 35 35 36 37 38 38 38 38 37 38 40 41 42 42 40 40 41 40 40 39